GFSSE_850_thetae_000.txt.gz
Theta_e
339 325 324 331 337 336 335 336 335 333 332 328 326 322 324 332 333 332 331 329 328 327 327 328 331 330 330 331 332 330 329 328 327 325 320 321 321 312 319 332 316 330 330
328 324 324 334 336 336 336 337 334 333 332 328 321 319 328 331 331 330 330 328 326 327 320 326 329 330 330 330 330 329 327 327 326 321 319 318 314 325 322 325 318 330 331
331 326 327 337 337 336 336 338 334 332 329 325 321 327 326 327 328 326 325 325 327 326 321 316 326 327 328 327 327 328 328 326 323 317 313 318 323 325 325 321 319 323 328
332 330 329 338 335 336 337 335 330 327 327 324 321 329 328 329 329 329 328 326 325 324 319 317 314 312 318 324 326 327 327 327 324 322 313 321 325 326 326 323 317 319 328
333 340 340 336 336 339 336 334 332 328 327 323 319 327 329 329 331 330 329 328 327 325 321 316 316 312 311 317 320 323 323 326 325 322 322 324 320 325 327 325 321 315 325
334 334 329 334 338 337 336 334 333 328 329 324 317 327 329 330 332 331 330 329 328 325 322 318 316 317 319 318 317 313 313 315 314 316 319 326 324 316 322 325 321 314 314
337 335 327 324 331 331 333 334 331 329 330 330 318 327 328 330 331 332 331 329 330 322 320 318 313 314 320 323 323 321 315 310 309 309 309 316 323 321 314 314 312 314 313
337 333 325 322 325 328 329 332 332 332 333 332 322 321 326 329 329 332 335 330 331 320 316 315 314 314 314 316 316 317 314 313 312 310 310 311 315 317 315 310 310 310 311
337 333 328 326 329 324 326 326 333 333 333 331 324 318 315 324 329 331 331 326 316 314 315 316 317 317 317 317 318 318 317 317 317 317 314 312 311 312 310 308 308 309 310
337 335 335 329 330 326 327 325 327 329 332 328 320 314 313 318 320 318 319 317 315 315 316 318 319 319 319 319 320 320 321 322 322 321 321 321 320 318 316 313 309 308 309
333 336 338 338 338 334 333 337 336 323 321 318 316 316 313 319 324 322 319 316 317 319 320 321 321 321 322 322 323 324 324 324 323 323 323 323 324 323 322 322 320 316 309
333 332 336 338 339 338 338 336 332 327 328 326 325 326 324 326 326 325 320 322 323 323 324 325 326 327 327 327 327 327 327 327 327 326 326 326 326 326 325 323 323 323 322
332 335 335 337 337 337 338 335 337 335 332 333 333 331 330 327 328 326 327 328 327 327 328 328 330 330 331 331 332 331 331 331 330 330 330 329 329 329 329 329 328 327 325
331 334 335 334 335 338 338 335 337 335 334 334 333 332 330 332 332 333 332 332 333 332 332 332 333 332 332 332 332 331 331 331 331 331 331 331 331 330 330 329 329 329 328
331 332 333 332 333 335 338 337 335 336 335 333 333 333 333 333 334 334 333 333 333 332 332 331 330 329 329 329 329 328 328 329 329 330 330 330 330 329 329 329 329 329 328
332 333 333 332 334 334 335 337 336 336 336 335 334 333 333 332 332 333 333 332 331 331 330 329 328 327 325 325 323 324 326 325 325 325 326 326 325 327 328 327 325 324 325
330 331 331 333 333 335 335 336 336 335 335 335 334 333 333 333 332 332 331 330 326 326 324 324 317 316 316 317 318 318 321 322 321 319 321 319 322 325 326 325 326 326 324
326 324 324 324 328 333 335 335 335 334 333 333 332 331 331 330 329 329 324 317 316 315 314 313 313 312 312 311 313 315 315 315 314 314 315 318 321 324 326 327 327 322 323
325 322 323 323 326 332 335 334 334 332 331 331 330 329 325 322 320 313 310 310 311 312 312 311 310 309 308 307 310 309 309 311 311 315 316 318 319 320 321 318 318 317 319
324 324 325 328 331 333 334 332 331 331 330 328 323 320 314 310 309 310 311 311 310 309 308 307 305 305 303 306 303 305 304 308 308 311 314 312 312 309 310 311 312 315 317
328 327 327 328 330 331 331 331 328 323 322 320 314 310 309 310 311 311 309 308 306 305 304 302 301 300 300 300 302 300 302 303 306 308 306 305 304 306 311 313 310 309 310
328 328 330 331 331 331 327 323 322 321 314 311 309 309 310 311 310 309 307 306 305 303 302 299 298 297 298 298 300 299 302 301 302 300 306 302 306 306 305 301 304 305 306
322 321 324 325 325 325 324 322 317 313 311 309 310 311 311 309 309 308 306 305 303 301 299 297 296 296 296 297 297 298 300 302 300 302 299 302 299 300 298 298 299 303 301
318 317 317 318 318 318 317 316 313 311 310 310 311 310 310 310 309 309 307 305 302 299 297 296 296 295 295 295 296 295 295 297 299 299 300 298 297 297 298 299 298 301 302
317 316 315 315 316 316 315 313 311 311 311 311 310 310 309 309 310 309 307 305 303 300 297 295 294 294 294 294 296 295 294 296 294 296 297 297 296 296 297 297 300 296 296
315 314 313 313 313 313 312 312 311 311 311 310 310 310 309 309 309 308 306 304 300 297 295 294 293 293 293 293 294 294 294 294 294 295 296 295 296 295 296 295 294 293 297

GFSSE_850_thetae_003.txt.gz
Theta_e
337 326 326 332 337 338 337 336 335 333 332 330 325 320 322 330 330 332 331 329 328 326 324 328 331 331 332 331 334 330 329 329 327 325 320 315 322 314 316 329 317 322 324
331 323 325 335 338 336 338 336 334 332 331 328 319 319 329 331 330 329 329 328 326 325 318 325 327 329 330 331 331 329 329 328 326 321 315 315 314 318 320 317 314 325 331
327 322 328 334 337 337 338 337 336 332 327 324 319 324 327 329 328 327 326 325 326 323 318 315 321 324 328 328 327 327 327 327 326 318 311 316 321 320 323 322 318 320 324
328 324 329 338 338 336 336 337 331 326 325 322 319 329 329 328 329 329 329 327 326 323 320 316 314 311 314 318 320 322 326 325 322 321 313 314 320 321 327 324 321 317 322
329 331 329 331 334 337 337 335 332 330 327 323 317 326 329 328 331 330 329 329 326 324 320 314 314 313 311 311 313 313 317 317 315 319 317 316 318 318 321 323 319 316 317
329 329 329 333 333 337 335 334 331 329 327 322 317 324 328 330 332 332 331 329 328 327 314 312 311 312 313 315 316 316 314 312 310 309 309 314 317 319 317 312 311 315 314
332 333 330 326 329 333 334 333 332 329 330 327 318 325 328 329 331 332 331 331 330 327 314 314 314 314 314 315 315 315 314 312 311 310 310 310 312 315 315 317 312 310 311
333 333 329 324 328 330 331 331 330 333 334 335 322 320 323 326 329 330 334 333 331 317 315 315 316 316 316 317 317 317 317 317 317 317 316 313 312 313 315 315 312 310 309
335 332 329 325 327 327 326 328 331 337 335 333 324 317 314 319 327 329 332 328 318 315 316 316 317 318 318 318 319 319 320 321 321 322 322 321 320 318 314 316 315 309 307
335 331 330 328 328 327 326 325 327 327 329 329 321 316 313 316 320 318 317 316 315 316 317 318 319 319 320 321 322 322 322 324 325 324 324 325 324 324 323 321 323 321 318
333 330 330 332 332 327 328 332 333 327 324 322 317 317 312 316 321 317 315 317 319 321 323 325 325 328 328 328 329 330 330 329 328 328 328 328 328 328 327 327 326 324 323
331 330 331 333 332 332 331 334 331 325 329 323 323 322 320 320 320 321 323 326 327 328 328 328 329 329 330 331 332 332 331 331 330 330 330 330 330 330 330 330 330 329 328
326 332 330 336 335 334 333 332 330 329 330 328 329 327 326 326 327 328 329 330 331 330 330 331 331 331 330 330 330 330 330 329 331 331 330 330 331 331 331 330 329 328 328
327 330 333 333 336 338 337 334 331 333 332 331 331 329 329 329 331 332 333 333 332 332 331 330 330 329 329 329 328 328 327 327 325 328 329 329 330 328 327 327 327 327 326
327 330 333 334 336 337 338 337 334 336 334 333 333 332 331 331 332 333 333 332 331 330 330 329 328 327 325 322 321 317 318 321 322 322 321 320 321 322 323 325 325 325 325
330 332 332 333 332 335 336 337 335 336 336 334 333 333 332 331 332 333 331 330 329 329 327 325 325 318 313 314 314 313 315 319 320 322 317 316 320 319 321 324 325 327 327
332 333 333 332 332 334 335 336 335 336 335 335 334 333 332 332 332 330 330 329 325 322 320 317 314 313 312 312 311 310 311 312 313 312 311 315 318 319 319 319 320 322 323
333 334 334 334 333 333 334 335 334 335 335 334 333 331 330 331 330 329 324 313 312 312 312 312 311 310 308 307 307 307 306 307 306 310 313 317 318 317 316 316 315 315 316
326 328 329 331 332 333 334 335 332 333 332 331 330 329 327 324 321 312 310 311 311 310 309 307 306 305 304 304 304 304 305 304 310 307 310 313 312 309 308 309 312 313 314
324 324 325 328 331 332 334 333 332 331 330 329 328 321 312 309 310 311 310 308 307 306 305 305 304 303 302 301 302 303 303 304 303 307 308 305 305 304 306 309 311 310 310
325 327 328 328 332 333 333 332 331 330 328 323 313 309 310 311 310 309 307 307 306 304 303 302 302 302 302 300 300 302 301 301 305 301 300 299 299 301 301 303 302 300 298
328 329 330 331 332 332 330 329 328 323 315 310 309 310 311 310 309 309 309 309 307 304 302 301 300 299 299 297 297 298 299 299 302 297 300 298 300 300 296 296 296 297 298
329 330 330 330 330 329 326 322 319 313 310 310 311 311 310 309 310 310 310 309 307 304 301 299 298 296 297 298 296 297 298 298 295 299 295 300 295 297 294 295 296 296 299
329 329 328 328 327 324 321 318 313 312 311 311 311 310 310 311 311 311 310 308 305 302 300 298 297 296 295 295 295 294 295 295 295 297 296 294 295 294 294 295 294 297 297
321 323 321 319 319 316 314 312 311 311 311 311 310 310 311 311 310 309 308 306 304 301 299 297 296 295 294 293 293 293 294 294 293 294 295 294 294 295 294 295 294 292 292
318 318 317 317 317 317 315 312 311 311 311 310 309 309 309 309 309 308 306 304 301 298 297 296 295 294 293 293 293 293 293 293 292 293 293 293 294 294 293 293 292 292 292

GFSSE_850_thetae_006.txt.gz
Theta_e
336 327 329 334 340 340 337 336 334 333 332 326 321 319 323 326 330 332 331 329 328 326 315 329 330 330 331 333 332 331 330 328 328 327 322 317 316 319 316 327 323 315 320
334 323 325 331 341 336 338 336 334 333 331 326 319 316 330 330 329 328 328 327 326 324 316 320 327 328 330 330 332 330 328 328 324 323 312 314 316 315 316 327 320 323 329
326 322 325 333 335 336 338 336 334 334 325 321 317 323 325 329 329 327 326 325 323 318 315 314 315 320 327 328 328 327 326 325 325 317 312 314 316 318 321 324 320 317 321
324 323 327 333 336 338 337 337 335 326 323 321 320 328 325 325 328 328 328 327 321 320 316 313 313 311 311 316 318 320 319 322 320 318 317 311 314 319 321 331 323 318 316
328 325 327 334 336 336 335 335 332 329 326 323 318 326 328 330 330 330 329 328 323 325 315 312 312 314 314 313 313 313 313 315 314 312 313 316 317 319 322 327 325 322 315
330 329 329 330 334 338 334 334 332 327 325 319 317 325 328 329 331 332 331 327 326 329 317 314 314 313 314 317 318 318 318 315 313 312 311 310 314 317 324 327 325 316 316
330 332 330 333 333 335 334 333 331 327 330 324 319 324 326 330 331 332 330 330 330 328 315 315 316 316 316 316 317 318 318 317 317 316 316 314 313 315 319 326 327 327 322
332 333 335 330 331 331 332 333 329 329 335 331 321 320 322 325 329 330 332 331 329 319 316 316 317 317 317 318 318 318 319 320 320 321 322 322 320 317 317 320 328 326 324
334 334 334 327 328 330 330 329 332 337 334 331 324 318 315 318 326 329 330 328 319 317 317 317 318 319 320 321 323 322 322 322 324 325 325 325 324 324 324 323 325 328 328
335 335 332 327 327 327 327 327 329 333 330 328 323 316 313 316 321 322 318 316 316 318 319 323 325 327 328 329 330 330 330 330 330 330 330 329 329 329 329 328 327 328 328
334 333 331 329 328 328 326 327 330 328 325 324 320 317 313 314 317 317 317 319 323 325 326 327 327 328 329 330 331 331 331 331 330 329 330 329 330 330 330 329 330 329 329
330 330 330 329 330 330 329 330 333 331 326 323 318 320 318 318 320 322 324 326 329 329 328 330 331 330 330 329 329 329 329 329 328 330 328 329 329 329 329 329 328 328 328
326 330 331 329 332 332 331 332 333 330 330 327 328 325 325 324 326 327 330 331 331 330 331 330 330 329 329 328 328 326 324 323 324 323 324 326 327 327 326 326 327 328 328
325 327 331 332 332 334 335 334 334 332 331 328 328 327 326 326 329 331 331 333 332 331 329 329 328 328 327 327 324 324 320 319 319 322 323 321 317 320 322 325 322 324 325
325 326 330 334 335 334 336 336 335 333 332 332 331 331 330 328 330 331 333 333 331 330 328 328 328 326 323 316 314 314 314 314 315 319 323 321 315 315 318 319 322 323 325
323 325 331 335 337 338 338 338 337 334 335 334 333 332 332 332 332 332 330 330 328 328 327 325 319 316 313 313 312 312 311 311 312 313 314 312 312 317 318 319 318 319 319
323 325 332 335 336 337 338 339 337 337 334 333 333 333 332 332 331 330 329 328 328 321 315 314 312 312 311 309 307 306 306 306 306 306 309 315 314 313 313 314 314 316 316
327 328 334 334 334 335 336 337 336 334 333 333 331 331 330 329 330 330 328 317 311 311 311 310 309 307 305 305 305 305 305 304 305 309 308 311 311 311 310 309 309 311 312
330 332 333 334 334 335 335 336 334 332 334 333 332 329 328 329 326 317 310 311 309 307 306 305 304 304 303 303 303 303 303 305 306 303 306 305 303 302 304 305 306 307 307
327 330 333 334 335 334 333 333 331 331 332 331 330 328 325 314 310 310 309 308 307 306 304 303 303 302 301 300 301 301 301 303 300 306 299 299 298 299 300 298 298 298 298
323 324 326 330 334 333 332 331 329 330 330 328 325 311 310 310 309 309 309 309 308 307 304 302 302 301 300 299 299 300 299 298 301 304 298 298 297 297 296 296 296 296 296
323 326 326 331 333 332 332 331 331 329 325 319 310 310 310 309 309 310 311 310 308 306 303 301 300 299 298 296 295 297 296 297 299 296 298 295 298 295 295 295 294 294 294
326 329 329 331 331 333 332 331 329 324 313 309 310 310 310 309 311 311 311 309 307 303 301 299 298 297 296 296 294 294 295 297 294 296 294 296 295 294 293 293 293 293 293
328 330 331 332 332 331 329 327 324 317 310 310 311 310 309 311 311 311 310 308 305 302 299 297 296 295 295 295 294 293 293 293 294 293 293 292 293 292 292 292 292 292 291
328 329 330 329 329 325 321 320 314 310 311 311 310 310 310 311 310 310 308 306 303 300 298 296 296 295 293 293 293 293 293 292 292 291 291 292 291 291 291 291 291 291 290
328 328 328 328 324 320 316 312 310 311 311 311 310 310 310 310 309 308 307 304 301 298 297 296 294 292 292 292 293 292 291 291 290 290 290 290 290 290 291 290 290 290 291

GFSSE_850_thetae_009.txt.gz
Theta_e
331 329 339 341 341 340 339 336 334 330 331 326 320 319 319 321 330 332 331 330 329 327 321 328 330 330 333 333 330 328 328 329 328 326 325 317 316 315 318 320 324 318 314
329 324 330 340 341 340 338 336 334 332 332 324 317 327 331 328 328 330 328 328 327 322 314 315 327 327 329 332 333 332 331 328 324 323 315 313 315 315 314 330 321 319 325
326 322 325 335 343 339 338 336 334 333 329 321 316 324 330 329 329 328 327 326 320 316 315 313 315 319 324 329 329 328 327 324 323 319 318 313 316 318 319 327 321 317 326
323 322 325 330 338 338 337 336 335 332 324 321 320 323 322 327 327 328 327 322 322 321 315 313 313 312 312 318 318 317 318 319 317 317 316 316 315 317 320 327 328 323 318
324 324 326 331 334 338 337 336 334 329 325 322 321 328 329 329 329 328 328 326 325 326 314 313 312 313 314 313 314 314 314 313 313 312 311 311 315 319 325 329 330 328 327
326 325 327 332 334 338 334 332 332 329 325 318 317 327 329 331 331 331 331 328 328 326 316 315 315 315 315 316 316 317 317 316 316 315 315 313 312 312 320 325 329 329 326
328 328 327 330 333 336 336 333 332 328 326 318 318 323 328 330 331 332 331 329 330 326 316 316 316 317 317 317 317 319 321 320 320 320 321 322 321 317 315 318 329 328 327
329 330 330 330 332 336 334 333 332 328 335 323 318 321 323 328 330 331 331 330 331 320 316 317 317 318 319 319 321 321 321 320 322 325 325 326 326 324 324 321 321 327 329
334 333 332 332 330 332 332 332 331 331 335 328 320 317 316 321 326 328 330 328 320 316 317 319 322 324 326 328 328 328 329 330 329 329 329 329 328 328 329 329 328 328 330
335 335 334 331 328 331 330 330 330 337 336 331 324 317 314 316 322 324 321 316 317 321 324 327 327 328 329 330 330 330 330 330 329 329 329 329 330 330 329 329 329 329 329
335 335 335 332 327 330 329 329 330 331 330 328 324 317 314 316 317 316 317 319 325 328 328 329 330 330 330 329 329 329 329 328 328 328 327 326 328 328 328 328 328 329 329
332 332 334 332 329 328 329 328 330 331 329 326 322 320 318 318 319 321 324 326 329 329 330 330 330 329 329 328 328 328 327 326 325 326 324 325 326 326 326 326 328 329 328
325 330 331 331 331 330 330 330 332 334 332 327 324 324 324 323 325 326 328 329 330 331 332 330 329 328 327 327 327 325 322 322 319 319 322 322 322 319 318 321 325 325 324
324 326 329 333 332 333 334 333 335 334 329 328 330 329 328 327 328 330 330 332 330 331 330 328 327 327 327 327 324 318 315 314 315 315 318 320 323 321 315 316 318 321 323
324 324 327 332 334 335 336 336 336 334 332 331 331 330 329 329 330 330 332 330 331 328 328 327 327 327 322 316 313 313 312 311 311 312 313 314 314 313 314 315 318 320 321
326 324 324 329 334 336 337 338 337 336 334 333 332 332 332 332 332 332 330 328 327 327 327 325 319 315 313 312 311 309 307 306 306 306 307 309 312 313 313 313 314 314 316
326 325 324 328 334 338 339 339 338 337 334 332 332 331 331 331 330 328 327 327 327 325 315 312 312 311 309 307 306 305 304 305 304 305 308 311 312 312 312 311 310 310 311
325 325 324 330 336 339 339 339 336 336 333 332 331 331 329 328 328 327 326 325 312 311 310 308 307 305 304 304 304 304 303 303 304 307 307 307 307 307 306 306 307 306 307
324 324 326 332 336 338 340 339 336 334 332 331 330 330 326 325 326 326 314 310 308 307 307 305 304 303 303 303 303 302 302 302 306 302 301 301 300 299 299 301 300 298 299
325 327 331 335 337 337 337 337 334 333 332 331 330 328 328 325 313 310 309 308 308 309 307 304 303 302 301 301 301 301 300 301 303 300 301 298 298 297 298 297 297 297 296
324 329 333 336 335 334 336 333 331 330 329 328 328 328 321 310 309 309 309 310 310 308 304 303 301 300 299 299 299 300 298 298 298 301 300 298 297 297 297 296 296 295 295
322 324 328 333 334 336 335 332 330 328 327 328 325 312 310 309 309 310 311 310 309 306 303 301 299 298 297 296 296 296 295 297 298 301 297 297 296 296 296 295 295 294 294
322 322 324 328 335 336 333 330 328 327 326 320 310 310 310 309 310 311 311 310 308 304 301 299 297 296 295 294 293 293 294 294 293 295 294 294 293 294 293 293 293 293 293
323 324 326 330 335 334 332 330 328 328 323 312 310 310 309 310 311 311 310 308 306 303 300 298 297 295 294 293 293 293 292 292 291 292 292 293 292 292 292 292 291 291 291
325 326 329 334 333 332 332 331 329 326 314 310 310 310 310 311 311 310 308 307 305 302 299 297 296 294 293 292 292 292 292 292 291 290 289 290 291 291 290 290 289 289 290
327 329 331 332 332 331 329 328 325 316 310 311 310 310 310 310 310 308 307 306 304 300 298 296 294 292 292 292 292 292 291 290 289 288 288 288 288 288 288 289 289 288 288

GFSSE_850_thetae_012.txt.gz
Theta_e
329 326 343 340 341 339 338 337 334 330 330 327 321 320 323 325 329 331 331 330 328 324 319 323 330 331 333 332 331 331 328 328 329 325 321 316 313 315 316 321 320 320 314
327 325 339 343 342 340 339 336 334 332 332 326 317 325 325 326 330 330 330 328 324 319 314 314 326 327 332 333 333 331 331 330 326 321 317 312 314 315 315 329 326 321 318
324 323 336 342 343 341 339 337 335 332 332 322 318 332 331 329 327 328 327 324 319 318 314 313 316 319 323 328 330 329 328 323 319 319 316 313 315 317 319 322 328 319 324
323 323 326 340 341 340 338 337 334 334 326 321 317 330 330 328 328 327 322 322 323 318 313 312 312 312 313 318 319 317 314 315 313 314 312 315 315 316 317 325 328 327 323
322 323 326 336 341 339 336 336 334 329 325 321 323 325 326 327 328 328 327 327 325 321 314 314 313 313 313 313 314 314 314 313 313 312 311 310 310 312 316 327 328 328 328
323 324 325 327 332 337 335 334 332 329 324 318 318 328 329 330 330 331 329 328 328 322 315 315 316 316 316 316 317 317 317 317 318 318 319 319 318 315 312 316 323 327 328
325 325 325 328 331 337 333 330 331 328 325 317 316 326 330 330 331 332 331 329 329 326 317 317 317 317 318 318 318 319 319 320 320 322 324 325 325 323 321 317 317 327 328
329 328 327 328 331 335 333 332 331 329 326 320 319 322 328 330 331 332 331 329 330 323 318 318 320 321 322 324 326 326 327 327 327 328 328 327 327 326 326 325 325 323 324
332 332 330 328 329 332 334 333 332 330 335 325 320 318 321 326 328 329 330 330 325 318 319 324 325 327 328 329 330 330 329 329 329 329 329 329 330 330 328 329 328 329 329
335 334 333 333 330 329 331 333 331 332 335 333 327 320 316 318 324 326 325 318 318 323 326 327 328 328 329 329 329 329 329 328 328 327 327 328 328 328 328 328 329 328 327
333 335 335 335 333 329 330 331 331 333 335 332 329 320 316 316 319 319 318 319 325 327 328 329 329 329 329 329 328 328 327 327 326 325 326 323 324 327 328 328 329 329 330
330 331 334 335 333 331 331 332 330 331 330 328 326 320 315 317 319 320 323 325 328 329 331 330 329 328 327 326 327 326 325 323 322 320 320 321 322 323 323 323 324 327 328
327 329 331 332 334 333 330 332 330 331 332 329 326 321 320 320 322 325 328 329 330 330 331 328 327 326 326 327 326 326 321 317 315 315 315 317 320 322 321 318 315 321 321
326 327 329 332 333 333 332 332 330 332 334 331 327 326 326 326 327 329 330 329 329 329 328 328 327 327 326 326 321 316 313 312 312 312 311 313 315 316 316 315 318 318 320
326 326 325 328 332 334 334 335 333 335 334 331 331 330 329 328 329 330 329 329 328 327 326 326 326 323 320 315 313 312 311 309 307 306 307 308 309 311 312 314 316 317 319
326 326 326 324 329 334 335 337 336 337 334 333 332 331 331 331 332 332 328 325 325 325 326 324 314 312 311 311 309 307 305 305 304 304 305 308 310 311 311 311 311 312 312
325 326 326 325 324 333 337 338 338 337 335 333 331 330 330 329 329 328 325 324 326 325 313 311 309 308 307 305 304 303 303 303 303 304 306 308 309 310 310 311 310 309 310
325 325 325 325 324 332 338 339 338 335 334 331 330 331 329 329 328 327 325 323 316 310 308 307 307 306 304 303 303 303 302 302 303 304 304 304 304 304 303 303 303 304 304
325 325 324 324 325 333 338 339 338 335 334 332 330 330 328 325 325 324 322 311 308 308 308 307 305 303 303 302 302 302 301 301 302 304 302 300 299 298 297 298 298 297 297
324 324 323 325 329 336 338 338 336 334 334 332 331 331 327 325 323 312 309 309 310 309 307 304 303 302 301 301 301 301 301 300 301 304 300 301 298 298 297 297 297 296 296
323 323 323 327 334 337 337 336 335 333 333 332 331 329 327 325 310 309 309 310 310 308 305 303 302 301 301 300 301 301 299 298 299 297 299 301 297 297 296 296 296 295 295
323 322 323 329 335 337 337 337 334 331 330 329 328 326 319 309 309 309 311 311 310 308 305 303 301 300 299 298 296 296 296 297 298 298 297 297 296 296 295 295 294 294 294
322 322 323 330 336 337 337 336 332 329 328 327 324 319 309 309 309 311 311 310 309 308 306 302 300 299 297 295 293 293 293 293 292 294 295 295 294 294 293 293 293 293 293
322 322 323 327 335 335 333 334 331 327 327 324 319 310 309 309 311 311 311 310 309 308 305 302 299 297 294 293 293 292 292 291 290 291 292 293 292 292 293 293 292 292 292
322 322 322 324 331 333 333 333 329 327 326 322 311 309 309 310 311 310 310 309 308 306 304 301 297 295 293 292 292 292 292 291 290 289 289 290 292 292 291 290 290 290 290
322 323 325 326 330 332 333 330 328 326 326 316 309 309 309 310 310 310 308 307 307 305 302 299 295 293 292 292 292 291 290 289 289 288 288 288 288 289 289 290 290 289 289

GFSSE_850_thetae_015.txt.gz
Theta_e
327 327 342 341 340 339 337 336 334 329 330 328 321 319 324 329 330 331 331 330 327 323 318 321 329 335 333 327 333 330 328 327 327 328 317 313 312 313 314 327 324 323 318
326 325 342 341 340 339 337 337 334 332 331 326 317 319 325 326 328 329 330 328 322 316 313 315 324 331 334 332 332 331 329 329 329 321 316 313 313 314 314 327 328 324 317
324 325 341 343 341 340 338 336 334 331 329 321 328 332 330 329 329 329 327 323 316 315 312 313 317 321 329 331 332 331 329 325 319 314 313 314 313 314 317 319 328 321 319
323 324 336 343 342 340 338 336 334 332 325 320 328 332 329 328 327 325 323 323 320 314 312 312 312 312 314 321 323 319 316 313 312 311 310 310 313 314 316 329 326 327 324
323 325 332 344 340 339 336 335 334 329 324 319 319 330 324 327 326 327 327 327 324 318 315 315 314 314 314 313 314 314 315 314 314 315 315 313 312 310 311 316 327 328 328
323 326 328 342 341 336 334 334 333 329 323 317 323 326 329 329 330 330 329 328 328 323 316 317 317 317 316 317 318 319 328 321 319 320 321 322 322 320 315 313 314 325 324
323 326 328 335 340 336 333 331 331 328 323 316 320 329 329 330 332 330 330 329 329 324 317 318 318 318 318 319 320 320 320 321 320 324 325 325 325 324 323 321 318 319 327
324 326 328 331 334 336 333 330 330 329 326 317 318 327 330 330 331 332 331 328 329 323 318 319 322 325 326 328 328 328 328 329 329 328 328 328 328 326 326 327 327 326 325
328 328 328 330 333 337 333 331 331 330 327 323 318 322 327 330 330 331 329 328 328 318 320 326 327 328 328 328 328 328 329 329 328 328 327 327 327 327 327 328 329 330 330
331 331 332 330 331 336 335 333 332 330 334 330 324 318 317 323 327 327 327 326 318 322 326 327 328 329 329 329 329 328 328 328 326 323 324 325 324 325 327 329 329 329 331
333 334 335 335 334 332 333 334 332 332 335 334 330 322 316 316 322 324 320 318 324 327 328 329 328 329 329 327 326 326 326 325 322 321 321 320 321 322 325 327 327 328 329
330 333 335 335 336 335 332 334 332 331 334 331 329 323 315 316 319 318 319 324 328 328 329 330 328 327 325 326 326 326 326 322 316 315 314 315 316 319 320 320 318 318 322
328 330 333 334 336 336 333 332 333 331 331 330 327 323 318 318 321 321 326 328 330 329 330 330 328 327 326 326 325 321 317 313 312 312 312 312 312 314 317 320 321 319 316
325 326 328 331 334 336 335 331 333 330 331 332 330 321 323 322 325 327 329 329 328 328 327 326 327 326 325 322 317 314 312 312 311 309 308 308 308 311 315 317 317 316 319
325 326 326 326 327 333 335 333 333 331 331 334 329 326 327 327 328 330 328 328 327 326 326 326 325 322 314 312 311 310 308 307 306 305 305 305 307 308 310 312 313 315 316
325 324 325 325 325 327 333 335 333 333 334 333 331 330 330 330 329 329 327 326 324 323 325 323 312 310 309 307 305 304 304 303 303 304 304 306 308 309 310 310 310 311 311
324 324 324 325 325 325 330 336 336 335 336 334 332 331 330 329 328 329 327 324 323 324 314 310 308 307 305 304 303 303 303 303 302 303 304 306 307 307 308 308 308 308 309
324 324 325 325 325 324 328 336 337 337 335 333 331 330 329 328 328 327 325 324 323 310 309 308 307 306 304 303 302 302 302 301 301 302 303 301 301 301 300 299 299 299 299
324 324 325 324 324 324 328 337 337 337 334 333 330 330 330 328 327 325 323 321 309 309 309 307 305 303 303 302 302 301 301 301 301 302 303 301 299 298 298 297 297 297 297
324 324 324 323 324 325 328 336 337 335 333 333 331 330 329 327 324 323 317 309 309 309 308 305 303 302 301 302 302 301 301 300 299 301 304 299 298 300 297 296 296 296 296
324 324 324 323 324 325 330 337 337 334 334 333 332 330 329 326 324 311 309 310 310 309 307 305 303 302 301 301 301 300 299 298 298 299 297 298 297 297 296 296 295 295 295
324 324 323 324 325 328 331 336 335 334 333 332 331 328 327 324 315 309 310 311 311 309 308 306 305 302 301 299 298 297 297 297 297 298 297 296 296 296 296 295 295 295 294
323 323 323 324 326 332 334 337 335 333 332 330 327 326 321 313 309 309 311 311 310 309 308 308 306 302 300 297 296 295 294 294 293 296 296 296 295 295 295 294 294 294 294
324 323 323 326 328 333 336 336 334 332 330 328 326 323 319 308 309 311 311 310 309 309 308 307 304 302 299 297 295 294 293 292 291 292 292 293 293 293 294 294 293 293 292
323 322 322 325 329 334 336 335 333 332 329 326 323 321 309 309 309 311 310 309 308 308 307 305 303 300 297 295 294 293 293 292 291 290 290 292 292 293 292 292 292 291 291
322 322 322 324 329 332 332 331 332 331 327 324 321 310 308 309 310 310 309 308 307 307 306 304 301 297 295 293 293 292 291 290 290 289 289 289 289 289 290 291 290 290 289

GFSSE_850_thetae_018.txt.gz
Theta_e
327 337 343 340 340 338 336 334 332 327 328 327 322 321 328 330 330 330 330 329 327 324 319 319 330 334 324 330 333 330 329 328 327 326 321 314 312 313 313 315 326 329 325
325 339 345 342 341 338 336 335 332 331 330 323 317 318 326 332 330 331 330 328 321 315 312 314 328 334 336 335 335 333 331 328 329 325 316 314 313 313 314 317 327 328 318
326 340 342 342 339 338 336 333 332 330 326 319 329 325 325 331 330 329 328 319 317 314 312 312 322 328 331 331 332 332 331 327 320 314 313 322 320 313 315 317 325 321 317
332 341 344 343 340 339 337 335 333 330 323 320 334 331 329 327 326 325 323 322 318 314 313 312 313 315 319 323 329 325 318 313 312 311 322 320 321 313 314 317 324 328 325
332 339 343 343 342 341 337 335 333 328 322 316 332 329 325 325 327 327 328 326 323 317 316 315 315 315 313 313 314 315 319 317 316 322 326 321 317 319 310 314 327 328 329
336 341 340 341 342 341 337 335 333 328 320 317 325 328 328 328 330 329 330 329 327 321 317 317 317 317 317 317 319 320 329 328 321 329 328 328 324 323 320 314 316 323 327
329 341 333 343 342 341 337 335 332 328 320 317 326 328 330 330 332 331 330 329 328 323 318 318 318 319 320 322 323 323 322 323 322 329 329 329 328 325 324 323 322 321 320
334 335 336 342 344 341 336 332 331 328 320 317 327 329 330 330 331 331 331 329 329 323 318 321 323 326 327 327 328 328 328 328 331 332 331 330 328 327 326 329 331 331 328
337 328 330 336 343 339 337 333 331 329 321 317 320 328 330 330 331 331 330 328 330 319 321 325 326 327 327 328 328 328 328 328 328 329 327 329 329 326 327 329 330 331 331
329 329 331 339 340 339 337 335 333 330 331 321 318 319 323 328 329 330 330 328 321 321 325 327 328 329 329 329 328 326 326 326 326 324 326 325 321 320 321 326 329 329 329
331 329 332 337 340 340 338 337 334 332 335 331 328 320 316 319 324 326 324 320 320 326 327 328 328 329 328 326 326 326 326 324 321 318 319 315 315 317 320 321 322 323 324
333 333 333 337 340 341 338 337 335 334 334 332 330 325 318 316 319 323 319 319 326 327 328 330 329 327 326 326 325 325 322 319 315 313 313 312 313 314 316 321 321 319 319
337 338 332 333 336 339 338 338 337 335 335 333 331 325 316 315 318 320 322 328 329 329 329 330 329 327 326 326 323 319 314 313 312 311 311 310 309 310 318 318 316 318 317
335 335 329 331 332 336 335 338 338 337 335 334 331 327 319 319 320 327 330 329 329 327 327 326 326 326 325 317 313 312 311 310 308 307 308 306 306 308 312 313 314 314 314
331 330 327 328 329 330 334 338 338 336 334 335 333 329 327 328 329 329 329 327 327 326 326 325 325 320 312 310 308 307 305 304 304 304 305 305 306 308 309 310 311 312 314
328 330 330 326 326 328 332 336 336 337 336 335 334 328 327 331 330 328 328 327 326 324 324 324 312 309 307 306 305 304 304 303 303 303 304 305 307 308 308 309 309 310 310
325 325 326 325 326 325 329 335 338 336 335 335 333 331 330 329 328 328 328 327 325 323 322 310 308 307 306 305 303 303 302 302 302 302 304 305 305 306 305 305 304 303 303
324 324 324 324 324 325 328 336 338 336 334 334 333 332 330 329 328 328 327 326 324 321 309 309 307 305 303 303 302 302 302 301 300 301 302 301 300 299 298 298 298 297 297
323 324 324 324 324 325 335 337 337 336 336 336 334 331 330 329 328 327 326 325 322 309 309 308 305 303 303 302 302 302 301 301 300 301 302 301 301 300 299 299 298 297 297
321 324 324 324 324 324 332 339 337 336 337 335 333 330 330 329 327 326 324 322 309 309 308 307 306 305 303 302 301 300 300 300 300 300 301 302 298 297 297 297 297 296 296
322 324 324 324 324 324 326 329 335 337 337 335 333 331 331 329 326 324 321 309 310 310 309 309 308 306 304 302 300 300 299 298 298 299 299 297 297 297 296 296 296 295 295
323 324 324 324 324 324 325 329 333 336 336 334 332 332 330 327 325 324 309 310 311 310 310 309 309 307 305 301 299 299 300 300 298 298 297 296 296 295 296 295 296 295 295
322 324 324 324 324 325 327 332 334 335 335 334 332 330 327 324 321 311 310 311 311 311 310 309 308 306 302 300 297 296 298 299 296 297 297 296 295 295 295 295 295 295 294
321 322 323 323 325 326 327 331 332 334 333 333 331 329 325 318 311 309 311 311 311 310 310 309 308 306 302 298 296 295 294 294 295 296 295 295 294 293 293 293 294 293 293
319 321 323 323 327 326 328 332 334 334 333 332 329 325 320 313 309 309 311 310 310 309 309 308 307 304 300 297 295 294 293 293 293 293 294 295 294 293 292 291 291 291 290
319 320 322 324 326 327 331 334 334 334 331 330 325 322 314 311 309 309 310 309 309 308 308 307 305 303 299 296 294 293 293 292 293 292 293 293 293 293 292 291 290 290 289

GFSSE_850_thetae_021.txt.gz
Theta_e
338 332 343 338 336 335 334 331 327 326 325 325 325 325 330 332 330 330 329 329 327 322 320 318 327 335 325 334 335 331 332 329 328 326 325 316 312 312 313 314 316 329 331
340 332 340 341 339 336 335 333 331 330 329 321 318 320 323 332 331 330 328 326 319 314 312 313 328 336 334 336 336 334 332 330 328 325 316 314 321 314 315 317 325 330 324
345 346 338 341 342 338 336 334 332 330 323 319 320 324 335 333 331 329 328 317 314 312 312 313 326 332 332 332 332 332 331 327 318 313 314 325 325 319 314 316 320 323 317
344 347 344 343 339 338 336 334 332 329 321 332 333 326 330 329 329 328 321 319 316 314 312 312 317 321 326 328 328 329 320 314 312 313 326 323 323 322 312 314 320 328 327
343 346 346 340 339 339 337 335 331 326 319 331 334 330 325 324 325 326 327 325 321 316 316 315 314 314 312 313 314 314 325 319 317 329 330 330 322 328 317 311 315 325 327
342 346 347 344 341 340 338 335 332 325 317 320 330 325 326 326 328 329 328 328 326 319 317 317 317 317 317 317 318 319 320 320 323 331 330 331 331 326 323 321 316 315 319
341 345 342 342 343 341 338 335 332 326 316 320 328 328 328 330 329 331 330 329 328 322 318 319 319 320 321 324 324 325 325 326 327 332 332 332 331 327 325 325 330 329 326
340 344 343 344 342 342 339 335 331 327 317 321 326 329 330 330 331 331 330 329 328 324 319 323 324 326 326 326 327 327 328 328 328 330 330 330 330 328 326 327 329 330 330
340 342 344 342 342 341 338 334 331 329 318 318 327 329 330 330 331 332 331 328 328 319 321 325 327 327 328 328 328 328 326 325 326 331 328 329 329 323 320 327 329 329 330
340 341 342 343 341 341 337 335 332 330 321 317 321 325 329 330 330 330 330 327 324 318 323 326 328 329 329 328 327 325 324 324 325 324 324 325 316 316 318 320 322 323 326
339 340 341 342 342 342 339 336 333 331 333 325 320 317 318 326 328 328 328 324 318 322 325 327 327 328 326 324 324 325 322 322 321 319 318 317 313 313 315 318 317 319 320
339 340 340 341 342 342 342 338 335 333 334 330 328 322 326 329 328 329 322 318 320 326 327 328 330 328 325 322 321 321 318 315 314 315 315 313 311 312 320 319 318 320 319
338 339 340 341 341 342 342 339 339 336 335 335 334 333 328 323 318 320 318 319 326 328 328 328 326 325 326 326 322 314 312 312 311 313 313 311 308 317 319 315 317 316 315
336 339 340 341 342 342 342 340 339 337 336 336 335 334 328 326 326 328 331 331 331 328 326 326 325 325 324 316 311 310 308 307 308 310 311 306 305 307 309 312 311 310 311
333 336 340 340 342 341 343 341 340 338 336 336 336 335 330 328 329 330 330 326 327 327 325 325 325 322 310 310 308 306 305 306 306 308 309 305 305 306 307 308 309 310 311
332 333 337 339 341 342 341 343 341 339 337 337 335 335 331 330 331 331 326 328 326 326 324 324 319 310 308 307 306 304 303 303 304 305 307 304 305 306 307 308 308 308 308
327 329 332 337 339 340 339 341 340 339 338 337 335 335 332 332 332 329 328 327 326 326 323 315 309 308 306 304 303 303 303 302 303 304 303 304 304 305 305 305 303 301 300
327 327 326 329 335 340 330 341 340 339 338 337 335 333 332 331 328 327 328 327 326 324 318 309 308 305 304 303 302 303 302 302 302 302 302 302 302 300 300 300 299 298 298
326 326 326 325 327 333 336 338 339 339 337 336 335 334 333 330 329 328 327 326 325 323 310 309 307 306 305 303 302 302 301 302 302 301 301 301 301 302 301 298 298 298 298
324 325 326 325 325 327 335 338 338 337 336 336 336 334 332 330 329 328 327 326 325 310 310 309 308 308 307 305 303 302 301 302 301 301 301 300 300 299 298 297 296 297 296
322 324 324 325 327 329 332 337 336 336 335 337 335 334 331 330 329 327 326 324 312 310 310 310 310 310 308 306 303 302 302 301 301 302 303 300 298 297 297 296 296 296 296
323 324 324 325 328 331 334 334 334 337 336 334 335 334 331 330 329 326 323 316 310 311 311 311 311 310 309 306 302 301 302 302 301 300 300 298 297 296 296 296 296 296 295
322 323 324 326 329 331 335 332 335 335 332 335 335 333 331 331 327 324 318 309 311 311 311 311 311 309 306 305 301 299 299 301 299 299 298 298 297 297 296 295 295 295 294
321 323 324 327 332 331 334 330 326 326 330 335 335 332 331 329 324 321 310 310 311 311 311 310 310 309 306 303 299 298 297 296 296 297 298 297 297 296 295 295 294 295 294
319 322 324 329 331 332 331 327 327 328 333 333 332 331 330 325 319 314 309 311 311 310 310 310 309 308 306 302 299 296 295 295 295 295 295 296 295 295 295 294 293 293 292
315 321 323 330 328 332 329 327 327 330 332 332 332 330 326 320 317 309 309 310 310 310 309 309 308 307 304 301 298 296 295 294 294 294 294 294 293 294 293 293 293 292 291

GFSSE_850_thetae_024.txt.gz
Theta_e
338 329 335 326 328 327 326 326 323 323 329 333 334 334 333 332 330 329 328 328 326 320 318 318 331 326 331 337 336 331 332 331 329 326 323 315 314 313 312 313 320 330 331
330 332 334 328 329 330 329 328 327 327 325 323 321 325 326 330 330 329 325 320 315 312 311 313 332 332 333 337 335 332 331 329 325 318 312 321 322 319 314 314 321 327 323
333 334 335 334 334 333 332 331 329 326 318 317 316 331 335 334 330 328 326 314 312 311 312 312 330 332 330 332 332 331 330 322 313 313 323 323 323 322 314 314 316 322 317
341 333 334 338 337 334 333 332 330 324 321 331 321 333 333 331 329 321 317 316 315 313 312 313 321 327 328 326 322 325 315 312 317 326 327 325 323 325 321 311 314 329 329
347 335 336 337 337 334 333 332 329 323 324 333 329 328 324 325 326 323 324 321 317 316 316 314 314 313 312 312 313 314 317 317 327 330 330 329 327 327 323 320 314 316 322
347 345 341 337 337 337 334 331 328 321 318 332 326 326 322 324 326 327 328 326 322 318 317 317 317 317 317 318 319 320 321 322 325 330 331 331 329 328 325 323 328 326 323
346 347 346 339 339 338 335 332 327 321 316 326 325 325 323 324 328 330 328 326 324 318 318 319 321 321 323 324 325 326 326 326 329 330 330 330 330 330 327 326 329 329 329
344 346 345 341 341 337 335 332 328 323 316 322 326 327 330 330 330 332 330 326 323 318 319 322 324 324 325 326 327 327 326 325 326 330 330 328 328 328 323 329 329 329 330
343 345 339 339 341 338 337 332 329 325 316 321 325 328 329 330 331 331 330 326 325 318 320 324 326 328 329 329 328 325 323 322 327 327 325 328 327 318 317 318 320 325 327
342 344 342 341 339 338 337 332 328 326 317 318 324 326 329 330 330 331 330 326 322 318 323 324 326 326 327 325 324 324 322 323 323 322 322 323 320 313 314 315 317 318 319
341 342 343 340 340 340 339 335 330 327 320 317 318 321 325 328 329 329 328 324 319 320 324 325 326 328 326 323 323 323 320 320 317 318 316 315 314 313 318 317 317 321 318
340 341 342 342 342 341 339 336 333 330 326 320 320 317 316 326 329 325 325 322 317 323 325 325 327 328 326 325 324 322 315 313 312 313 313 313 312 316 321 318 318 315 315
339 340 340 341 342 340 340 339 336 332 331 329 327 329 326 329 327 326 324 318 321 325 325 326 324 324 325 324 320 312 311 310 309 311 311 310 309 319 316 314 312 311 312
338 339 340 340 342 341 341 340 338 335 336 333 335 334 328 324 320 320 326 329 329 328 327 325 324 325 323 314 311 309 307 306 306 307 308 308 305 306 309 308 308 308 309
336 337 339 341 342 341 341 340 338 336 337 335 336 334 332 324 324 326 331 330 329 326 324 325 324 324 313 310 308 307 305 305 305 306 306 306 305 305 306 307 308 308 308
331 334 338 340 341 342 342 340 339 337 337 336 335 334 333 328 329 330 331 330 326 326 326 324 324 312 309 308 305 304 304 303 303 304 305 305 304 305 305 306 306 306 304
327 332 334 339 340 341 340 341 340 339 337 336 335 334 334 330 330 330 331 326 326 326 326 324 312 309 307 305 303 303 303 303 302 303 303 303 303 303 303 303 301 299 299
327 327 331 334 338 340 339 339 340 339 336 337 336 334 333 331 331 330 330 327 327 326 325 314 309 307 306 305 304 303 302 302 302 302 302 302 302 302 301 302 301 298 298
324 327 327 330 334 335 336 335 340 338 338 337 336 334 332 331 332 330 327 327 325 325 322 309 308 308 308 307 305 304 303 302 302 302 301 301 301 301 301 299 298 298 298
323 325 327 327 329 333 337 337 340 338 337 337 335 334 333 332 331 329 328 327 325 325 312 309 310 310 310 309 307 304 303 302 302 301 301 301 301 299 299 297 297 297 298
321 322 323 326 326 326 334 337 339 338 337 336 334 334 333 333 329 329 328 326 326 322 310 310 311 311 311 310 307 304 303 303 302 301 301 302 299 298 298 297 297 297 297
322 322 321 325 326 326 325 337 336 336 337 335 335 334 334 332 330 329 328 326 324 310 311 311 312 312 311 310 307 303 302 301 301 301 300 299 299 298 297 297 297 297 297
321 322 323 322 324 326 326 331 338 335 336 335 335 333 334 331 330 329 327 325 315 310 311 311 311 311 311 309 306 303 300 301 301 299 299 298 297 297 297 297 296 296 295
318 320 321 323 324 325 327 333 333 329 334 333 333 333 332 330 330 329 326 322 310 311 311 312 311 310 310 309 307 302 299 298 297 297 298 298 297 297 297 296 296 295 295
315 318 320 322 324 325 330 333 334 332 333 331 333 331 329 329 328 327 324 315 310 311 311 311 311 310 309 308 305 301 298 297 296 295 295 296 296 296 295 295 294 294 293
315 315 316 321 323 329 332 334 334 331 330 331 331 330 328 327 324 322 322 310 310 311 311 310 310 309 308 306 303 299 297 296 295 295 294 295 294 295 294 293 292 292 292

GFSSE_850_thetae_027.txt.gz
Theta_e
342 335 326 322 324 327 328 329 331 333 334 335 337 336 334 332 329 329 328 326 324 319 318 326 328 326 335 338 335 331 330 330 328 324 318 314 316 314 313 313 319 325 329
338 335 325 323 321 321 321 321 322 322 322 325 328 331 327 328 329 328 319 318 312 311 312 328 329 333 335 335 332 330 330 325 318 313 316 318 320 319 312 314 317 325 316
331 337 328 325 324 324 325 326 325 322 318 318 319 326 333 332 329 321 313 311 311 311 312 328 331 330 331 330 330 329 326 313 313 321 321 318 319 322 317 311 314 321 319
333 335 330 329 328 326 325 324 321 317 325 317 335 336 334 331 327 315 314 314 313 311 312 322 331 331 329 322 318 317 313 315 323 326 326 326 323 325 322 315 313 318 325
336 334 333 331 328 328 327 323 320 317 326 323 332 334 332 329 327 319 318 316 315 315 314 313 312 312 312 313 314 317 317 323 327 327 329 330 328 328 325 322 321 317 319
341 335 336 332 330 330 328 325 320 316 325 327 326 322 323 322 321 323 321 319 316 316 316 316 316 317 318 319 321 323 323 323 330 330 330 329 329 330 328 326 328 328 326
345 337 336 333 333 332 329 325 321 316 320 323 324 320 320 322 325 326 323 321 317 317 318 319 320 322 323 324 325 325 325 327 328 329 329 328 328 328 328 326 330 330 330
345 344 343 336 334 333 330 326 323 316 317 322 323 321 324 326 330 330 324 321 318 317 320 321 322 323 326 327 327 325 323 325 330 329 328 328 326 325 318 324 326 328 328
345 346 346 340 336 334 331 327 323 318 317 321 325 327 329 329 330 331 326 321 318 318 320 322 324 326 326 326 324 323 323 325 325 325 324 326 326 322 314 316 318 326 325
342 343 342 340 339 336 334 329 325 321 317 319 324 326 328 330 332 331 328 322 319 318 321 322 323 325 325 323 323 323 322 323 322 321 321 320 320 315 314 316 318 324 321
341 341 341 339 339 337 336 332 328 325 317 317 320 325 327 328 329 329 326 323 318 320 322 323 325 326 325 323 323 322 319 318 316 316 316 315 315 319 321 322 320 319 321
340 341 342 341 340 337 338 335 330 328 319 317 318 320 323 326 325 327 327 322 317 321 324 325 325 326 325 325 325 323 314 312 312 312 312 312 312 320 322 320 316 315 317
339 340 341 341 341 339 335 337 334 330 327 320 319 317 317 321 324 323 324 321 318 323 325 325 323 323 324 324 319 312 311 309 308 308 310 309 312 318 319 312 309 309 310
338 339 340 341 342 341 340 337 336 334 330 328 324 328 325 325 326 324 324 320 323 325 326 324 323 324 324 315 311 309 307 306 306 306 306 307 307 308 308 307 307 308 309
338 338 339 339 340 341 340 340 339 337 333 333 331 332 332 327 325 321 325 328 326 328 324 323 324 323 318 311 308 307 305 304 304 304 305 305 305 305 306 306 306 306 307
332 337 338 339 339 340 340 340 339 338 335 336 334 334 334 330 322 323 327 329 330 327 325 325 323 321 311 309 306 304 304 303 303 303 304 304 304 304 304 305 305 304 301
328 330 338 338 340 340 340 340 339 338 336 335 335 334 334 331 328 328 329 330 330 325 325 325 323 311 309 306 305 304 303 303 302 303 303 303 303 303 303 302 302 301 301
325 327 331 336 338 339 340 341 338 338 337 336 335 334 333 333 329 329 330 330 328 325 325 325 314 309 307 307 306 305 304 303 302 302 302 302 301 301 301 301 301 299 299
325 324 327 331 334 334 337 339 337 338 337 336 336 335 333 332 330 330 330 330 328 326 325 323 310 309 309 309 308 306 304 303 302 302 302 301 301 300 300 299 299 298 298
321 323 323 327 331 333 332 335 336 338 336 336 336 335 334 333 331 330 331 329 327 325 325 319 310 310 311 311 309 306 304 303 302 302 301 301 301 300 299 298 298 298 297
320 320 321 323 329 333 334 334 335 335 338 336 336 335 334 333 331 331 329 328 327 325 325 312 311 312 312 311 309 306 304 303 302 302 301 301 301 299 299 298 297 297 297
321 321 320 321 322 330 334 332 330 331 336 336 335 335 334 332 332 332 328 328 326 325 324 310 311 312 312 311 310 306 303 303 302 301 300 299 299 299 298 297 297 297 297
319 320 321 322 321 327 330 330 330 332 334 336 335 335 333 332 332 332 329 327 325 325 313 311 312 312 312 311 310 308 303 301 300 299 299 298 298 298 297 297 297 296 295
316 317 318 321 321 322 326 327 327 327 331 335 334 333 333 332 333 331 329 327 326 321 310 312 312 312 312 311 310 308 305 301 299 299 298 298 298 297 297 296 296 295 294
314 316 316 319 319 322 324 325 325 326 329 330 331 332 332 332 331 330 328 325 323 313 311 312 312 312 311 311 310 308 304 300 298 297 297 298 297 296 296 296 295 293 292
315 315 314 314 318 319 321 325 326 326 327 329 331 332 332 331 330 328 328 323 318 311 311 312 312 311 311 310 309 307 303 299 297 295 295 295 295 296 295 294 293 292 291

GFSSE_850_thetae_030.txt.gz
Theta_e
342 333 329 329 327 328 331 332 333 336 338 338 338 335 334 332 330 328 327 325 324 320 326 330 323 325 334 334 330 330 328 328 328 325 321 317 314 313 312 313 316 323 325
337 334 327 326 326 325 325 325 326 330 332 336 336 334 331 328 328 327 319 319 314 313 323 331 337 338 336 333 330 328 328 324 317 313 313 316 316 315 311 313 316 316 315
337 332 326 325 324 320 319 319 319 318 319 323 328 323 327 330 328 318 311 310 310 311 325 330 330 332 332 330 329 326 319 312 315 318 318 317 319 321 316 311 315 325 323
333 330 324 323 322 321 322 320 317 317 318 316 325 334 334 331 318 312 312 311 311 311 326 330 330 328 329 326 319 313 312 317 321 323 323 325 322 324 321 315 314 318 324
332 329 325 325 325 324 323 320 317 319 319 332 336 336 333 330 318 314 314 314 312 311 316 325 323 318 314 312 316 316 320 324 327 329 327 328 328 329 325 325 324 321 320
334 330 328 329 328 326 324 320 317 318 319 330 335 334 332 329 316 317 316 315 315 315 314 314 315 316 317 319 321 321 323 328 330 329 329 328 329 329 328 326 330 331 330
336 332 331 332 330 328 326 321 317 318 319 323 325 322 322 318 320 319 318 316 317 317 318 318 320 322 322 323 324 325 326 329 329 328 328 328 327 325 326 327 329 329 330
337 333 335 334 332 329 327 323 318 317 318 321 319 317 319 323 325 321 320 318 317 319 320 322 322 324 326 327 325 323 323 325 328 328 328 327 327 325 318 318 321 327 328
342 336 337 334 334 332 328 325 320 317 318 319 320 322 323 327 331 327 320 320 317 320 322 323 325 325 325 324 323 322 324 326 327 327 325 326 326 323 315 316 326 325 324
344 344 344 342 337 334 331 328 324 317 318 319 323 328 328 329 330 329 322 321 318 320 322 323 324 325 323 322 322 322 321 321 321 320 320 320 318 317 321 322 323 324 325
345 345 345 344 340 335 333 330 327 321 317 320 324 327 328 330 331 328 325 321 318 320 322 323 324 325 324 323 322 321 319 318 316 315 315 315 316 320 322 323 322 321 321
343 344 342 341 340 338 336 332 328 325 317 319 322 325 326 327 328 328 325 321 318 320 323 324 325 325 324 324 324 323 317 313 312 312 312 312 314 321 322 322 317 319 317
339 341 340 340 339 339 336 336 331 327 321 318 320 322 324 325 325 326 326 322 318 320 323 324 324 323 324 324 320 313 311 310 308 308 308 309 310 320 321 311 309 308 309
338 338 339 339 340 339 338 337 336 331 327 320 318 318 319 319 322 323 323 322 318 320 324 323 322 323 323 320 311 309 308 307 306 306 306 306 307 311 309 307 307 307 307
337 337 337 338 339 340 340 340 337 334 331 329 322 320 318 319 323 324 324 322 321 323 325 323 323 323 323 314 309 307 305 304 304 304 305 305 305 306 306 306 306 306 305
338 338 337 338 338 338 339 340 338 337 334 331 329 327 328 328 325 325 324 324 327 326 326 323 324 323 321 310 308 304 304 303 303 303 303 304 304 304 304 304 304 302 300
325 334 338 337 338 338 337 338 339 339 337 333 334 333 331 332 331 322 321 326 327 329 326 324 324 323 312 308 305 304 304 303 303 303 303 303 303 302 302 301 301 301 300
324 324 330 338 338 338 337 338 339 339 337 334 335 335 334 333 331 326 325 326 328 330 326 325 324 319 309 307 307 306 304 303 302 302 302 302 302 301 301 301 300 299 298
324 324 323 328 337 338 338 338 338 339 337 333 335 334 334 333 333 330 328 329 329 329 326 325 324 312 308 309 309 307 304 303 302 302 302 302 301 301 300 299 299 298 298
322 323 322 322 328 336 337 334 336 337 337 334 335 335 334 333 333 330 329 329 329 330 326 325 324 309 310 311 310 307 304 303 302 302 302 301 301 301 300 299 298 298 298
320 320 319 319 321 330 333 333 332 334 336 336 334 336 334 333 332 330 329 329 329 329 326 325 322 310 311 311 309 307 304 303 302 302 301 301 301 300 299 298 298 298 298
320 320 320 320 320 320 328 332 333 330 331 332 334 335 334 334 333 331 330 330 329 327 325 325 320 310 312 312 310 307 304 304 302 302 301 300 300 299 298 298 297 297 296
319 319 320 320 320 320 321 328 332 333 330 330 333 334 334 334 333 332 331 330 328 327 325 324 315 311 312 312 311 309 305 303 302 301 300 299 299 299 298 297 297 296 295
316 317 318 319 319 321 322 325 329 331 331 329 328 330 332 332 332 331 330 330 329 327 324 324 312 312 312 312 311 310 309 307 303 300 299 299 298 298 297 296 296 295 294
315 315 316 316 317 318 320 321 324 330 331 329 329 328 329 329 331 331 330 331 330 327 323 316 311 312 312 312 311 311 309 307 304 301 299 298 298 297 296 296 295 294 293
314 314 314 314 315 316 317 320 321 325 330 331 331 329 328 330 330 330 330 332 330 326 321 311 311 312 312 311 311 310 308 306 303 299 298 297 296 296 296 296 294 293 292

GFSSE_850_thetae_033.txt.gz
Theta_e
335 338 342 337 331 329 331 334 336 335 335 335 336 336 335 334 332 329 327 325 323 321 325 320 323 329 332 329 329 329 327 325 325 325 323 320 316 312 312 313 315 318 319
331 334 330 334 331 330 336 339 336 337 338 337 336 334 332 330 325 325 318 319 318 318 336 338 333 337 337 330 329 329 328 325 321 316 314 315 315 313 310 311 315 316 315
335 331 327 328 330 330 329 330 329 331 335 336 334 334 323 326 325 313 311 311 311 317 332 337 337 335 332 330 328 325 321 313 313 316 316 317 319 319 314 313 317 329 322
335 330 325 325 326 325 322 320 320 320 322 327 325 323 331 329 313 311 310 310 311 325 328 328 328 331 331 328 323 313 312 317 319 321 323 322 322 323 319 316 316 319 323
335 328 322 323 323 321 321 320 318 318 318 317 331 335 332 327 312 312 312 311 311 322 329 328 327 325 320 313 315 315 321 323 326 327 327 325 328 328 325 326 326 324 321
331 329 322 322 322 323 322 319 318 319 320 331 336 335 332 325 313 313 314 313 312 312 314 314 313 314 315 318 318 321 324 327 327 327 327 326 328 329 328 328 332 332 332
333 329 324 325 325 325 322 318 318 318 321 337 337 333 328 316 315 315 315 315 315 315 316 317 319 321 322 323 323 324 324 327 327 328 327 326 326 324 321 324 328 328 328
334 331 326 328 327 327 324 319 317 319 319 323 326 322 316 317 317 316 316 316 317 319 320 321 322 323 326 326 324 324 325 326 326 327 327 327 326 325 322 315 324 327 329
337 333 331 330 330 329 327 322 317 319 319 319 317 316 319 323 319 317 317 316 318 320 321 322 325 326 325 324 322 321 322 325 326 326 324 324 325 322 318 322 325 324 323
342 337 334 332 332 331 329 326 319 317 319 320 319 319 322 328 329 321 318 318 318 321 323 324 324 325 323 322 322 322 321 321 321 319 319 319 318 318 321 322 323 324 322
343 342 339 337 335 333 331 328 324 317 319 321 321 326 327 328 329 327 321 320 317 321 322 323 324 324 323 322 322 321 320 318 317 316 315 315 316 319 322 323 323 321 320
343 343 344 344 342 339 334 330 327 322 318 321 323 326 327 329 329 327 325 322 319 321 323 324 324 325 324 323 323 323 320 314 312 311 311 316 318 320 321 322 319 319 313
339 343 342 342 342 341 337 334 329 326 320 319 322 324 326 327 328 328 327 323 319 320 322 323 325 324 323 323 322 316 311 310 308 307 310 314 316 319 319 314 310 310 309
338 338 340 340 340 339 338 336 334 330 325 319 320 323 324 325 326 326 327 325 321 319 322 324 323 321 323 322 317 311 309 307 306 306 306 306 310 312 312 307 307 307 307
338 338 338 337 338 338 339 338 336 334 331 325 318 320 322 322 323 324 324 324 322 319 322 323 323 322 323 322 313 309 307 305 304 304 304 305 305 306 306 306 305 305 304
337 338 337 337 337 337 338 338 338 337 335 331 326 320 318 318 318 323 325 324 322 322 325 324 322 323 322 320 310 307 304 303 303 303 303 304 304 304 304 304 303 302 301
337 337 337 337 338 338 337 338 339 338 336 333 331 329 325 321 321 326 326 325 324 326 326 325 323 324 323 313 308 305 304 304 303 303 303 303 303 302 302 301 301 301 300
324 328 328 334 337 337 338 338 338 337 336 336 336 331 329 330 332 331 326 323 324 327 328 326 324 324 322 310 306 306 305 304 303 303 302 302 302 301 301 301 300 299 298
322 322 321 322 326 335 336 336 337 337 337 335 335 333 333 332 332 332 328 324 326 327 329 327 324 324 319 308 307 306 305 304 303 302 302 302 301 301 301 299 299 298 298
318 320 321 320 320 322 333 337 335 335 337 338 336 333 334 334 333 332 330 328 328 328 327 327 326 324 316 308 309 307 305 304 302 302 302 302 301 301 301 299 299 298 298
320 318 318 319 319 320 321 332 336 333 333 338 336 336 333 333 334 332 331 329 328 327 327 328 325 324 314 309 310 307 305 303 303 302 302 301 301 301 300 299 298 298 298
319 320 319 318 319 319 319 320 330 333 332 332 334 334 334 334 334 332 332 330 329 328 328 328 324 324 315 310 310 307 304 304 303 302 302 301 301 301 300 299 298 298 297
318 319 320 320 320 320 319 319 326 334 333 332 331 333 334 334 334 332 332 331 329 329 328 327 324 323 317 311 312 309 306 306 304 303 302 301 300 300 299 298 297 297 296
314 315 317 317 318 319 319 319 320 324 331 330 331 329 331 331 332 331 332 331 330 330 330 327 325 323 316 311 312 311 310 309 305 303 301 300 299 299 298 297 297 296 296
314 314 315 315 316 317 317 318 320 323 326 329 328 330 330 329 329 329 331 330 329 329 330 328 325 321 311 312 312 312 311 310 308 305 301 301 299 298 298 297 296 295 295
314 314 314 314 315 315 315 315 316 319 322 327 332 331 330 328 328 327 328 330 328 329 330 328 324 316 311 312 311 312 311 311 309 307 304 301 299 297 297 296 296 295 294

GFSSE_850_thetae_036.txt.gz
Theta_e
333 339 342 339 339 338 337 338 338 339 339 337 337 338 338 337 335 333 330 327 323 319 319 317 325 330 325 328 328 326 325 324 325 325 325 322 317 312 312 313 317 315 320
328 335 344 340 341 334 337 337 336 336 334 334 334 334 335 333 330 325 321 321 319 330 333 327 335 336 334 329 326 327 326 325 322 318 315 315 314 311 310 314 317 316 318
329 327 338 338 335 338 338 337 337 338 338 336 335 336 327 323 323 311 313 314 315 334 338 338 338 338 331 329 326 322 319 315 313 315 315 317 318 317 313 314 318 329 318
330 327 329 327 324 336 338 336 338 339 337 336 335 327 329 322 312 310 310 310 317 332 335 336 335 331 330 326 322 312 312 314 318 319 320 321 322 322 322 320 319 320 324
334 327 323 323 323 326 326 324 327 334 336 334 324 331 329 316 311 311 310 310 314 322 326 323 323 325 321 313 313 314 318 321 324 325 325 327 329 327 324 329 329 327 325
334 329 323 323 323 322 320 321 320 320 324 322 335 333 328 314 312 312 312 311 317 326 326 322 316 313 313 317 316 320 323 326 326 326 324 327 328 328 327 329 330 331 333
333 329 323 322 321 321 322 319 317 318 318 334 336 333 327 314 313 314 314 313 313 313 313 314 316 319 321 322 322 323 324 326 326 326 325 325 326 324 319 319 326 328 329
332 329 324 323 323 323 322 318 318 318 327 333 337 332 323 315 315 315 315 316 316 316 318 320 321 322 324 324 324 323 324 326 326 327 326 326 326 323 319 318 322 326 328
335 330 325 325 325 325 324 320 317 318 330 337 334 326 317 317 317 316 316 317 318 320 320 321 324 326 325 323 322 322 323 324 326 325 323 322 322 318 320 324 325 323 321
337 333 328 327 326 326 325 323 318 318 320 324 321 317 318 322 320 319 318 317 319 320 321 323 327 324 322 321 322 321 321 321 320 319 318 317 317 322 325 323 323 324 320
340 336 333 331 329 328 327 326 322 317 320 321 318 318 322 327 328 323 320 319 318 321 324 327 324 323 322 322 321 321 320 318 315 314 313 314 317 321 321 322 323 321 318
341 341 337 334 332 332 330 328 326 322 317 320 321 321 324 327 328 328 324 321 318 322 325 323 324 324 323 323 322 322 320 315 311 310 310 315 322 321 320 320 320 315 309
339 340 340 341 341 340 338 333 328 325 321 318 321 322 326 327 329 329 327 323 321 319 322 323 324 324 323 323 323 319 312 310 308 307 310 320 319 316 314 314 310 307 307
334 336 339 341 340 340 339 338 334 330 325 321 319 321 324 326 327 328 327 325 323 318 321 323 324 323 321 322 321 313 310 308 306 306 306 307 310 311 309 306 306 306 305
337 336 337 339 340 340 339 338 337 335 331 327 321 319 322 324 325 325 326 327 325 320 320 323 323 322 322 322 321 311 308 305 304 304 304 305 305 306 306 305 305 304 303
336 336 335 337 338 339 338 338 338 337 335 333 329 321 320 322 323 324 324 324 325 322 320 323 323 322 322 322 320 310 306 304 304 303 303 304 304 304 304 304 303 302 301
336 337 336 337 337 337 337 338 338 338 337 336 334 330 321 320 322 322 321 324 324 323 321 324 324 322 323 323 316 308 305 304 303 303 303 303 303 303 302 302 301 301 300
324 335 337 336 336 337 337 337 338 338 338 337 335 332 330 327 321 319 320 326 326 323 325 326 326 323 323 323 313 307 306 305 304 303 303 303 302 302 301 301 300 299 299
319 321 325 332 333 330 333 337 336 336 336 336 336 335 335 332 328 325 328 329 326 323 325 327 327 324 324 323 310 306 306 305 304 303 302 302 302 301 301 300 300 299 299
318 318 319 320 320 321 322 328 335 334 335 336 336 336 336 333 331 331 332 331 325 323 326 327 325 326 324 321 308 307 307 305 304 302 302 302 301 301 301 301 300 299 299
319 319 318 318 319 320 320 320 323 331 334 334 334 333 336 335 333 332 332 331 328 327 327 327 327 326 324 321 308 308 307 305 304 303 302 302 302 301 301 301 300 299 299
318 319 319 319 319 318 318 319 319 321 326 330 332 331 332 334 334 333 331 329 329 327 327 327 326 327 324 322 310 308 306 305 304 303 303 302 302 302 301 301 300 299 298
314 316 317 318 319 319 318 318 319 320 322 328 334 333 330 330 334 334 333 330 330 329 328 327 327 327 324 322 315 310 307 307 306 304 303 303 302 302 301 300 299 298 298
314 314 314 315 317 317 318 318 318 319 320 320 324 329 330 329 329 333 333 332 331 330 329 328 328 327 324 322 317 311 310 309 307 305 304 304 302 301 300 299 299 298 297
313 313 313 314 315 316 316 317 318 318 319 320 322 328 332 330 329 328 329 330 329 331 330 329 329 328 326 322 319 312 311 310 310 308 307 306 304 302 300 299 298 298 296
314 313 313 313 313 314 315 315 316 316 317 319 322 326 328 331 329 330 329 328 328 329 330 329 328 329 326 324 317 311 312 312 311 310 308 307 304 302 300 299 297 296 296

GFSSE_850_thetae_039.txt.gz
Theta_e
333 335 343 341 342 337 338 338 336 338 339 341 341 340 341 340 337 335 333 329 322 318 318 318 330 328 324 326 324 325 326 328 327 327 327 324 319 313 311 312 312 315 323
329 331 342 342 344 340 339 339 340 339 339 340 338 337 336 335 333 330 325 322 322 331 327 332 335 334 333 326 325 326 324 323 322 320 317 314 313 310 312 315 317 317 324
330 329 337 340 339 339 340 337 338 336 335 334 335 333 334 330 324 314 316 317 334 338 332 337 338 336 329 327 324 322 319 316 314 314 315 317 316 315 315 317 324 321 323
330 328 332 334 334 338 339 336 336 337 336 335 335 323 324 320 312 310 311 314 333 335 336 337 337 332 328 324 318 312 313 315 317 319 319 321 321 323 324 323 321 321 324
329 325 325 332 328 343 338 336 337 337 337 335 331 326 323 311 311 310 310 312 325 334 336 334 331 327 322 313 312 315 319 321 322 322 324 326 327 328 331 331 331 330 329
331 327 323 327 330 322 329 330 332 333 336 335 325 330 322 312 312 311 311 314 321 324 321 320 319 315 313 315 316 320 323 324 325 324 325 327 329 326 323 328 329 331 331
333 328 324 323 322 322 321 321 320 321 332 332 334 331 323 313 313 313 312 315 320 320 315 314 314 316 319 319 321 322 324 325 325 325 324 324 326 323 318 323 328 329 330
334 330 324 323 322 321 320 320 318 318 319 332 336 332 324 315 314 315 315 314 314 314 316 319 321 321 322 323 323 323 324 324 325 326 325 324 325 320 323 322 321 326 328
335 331 325 323 322 322 322 319 318 318 322 338 337 331 321 316 316 316 316 317 317 318 320 321 325 325 324 322 321 321 322 324 324 323 321 321 318 322 323 327 325 322 320
335 331 326 324 324 324 323 320 318 319 331 337 338 333 319 317 318 317 316 318 320 320 321 323 327 323 322 321 321 321 321 320 319 318 317 316 322 326 326 325 324 322 320
336 334 329 326 326 326 325 323 320 318 319 327 334 328 318 320 319 318 319 317 320 321 323 327 325 323 322 321 321 321 320 318 315 314 313 316 320 321 323 322 321 320 317
337 336 333 330 329 328 328 326 324 320 318 320 320 318 320 325 326 324 320 320 318 322 328 327 323 323 323 322 322 322 320 315 311 310 310 318 323 322 320 318 317 314 307
337 337 337 335 333 331 331 330 328 326 322 318 320 319 320 324 327 328 326 321 320 319 322 322 323 323 323 322 322 321 313 310 308 307 308 322 321 317 313 310 308 307 306
339 338 338 339 338 337 338 338 335 330 326 323 318 320 321 325 327 328 327 325 322 319 319 322 322 323 322 322 322 319 312 309 307 306 306 309 309 309 307 306 305 305 305
339 335 335 338 338 339 338 338 339 337 332 328 324 319 321 323 325 327 328 326 325 322 318 320 322 323 321 322 321 320 311 307 305 304 305 305 306 306 306 305 304 304 303
337 336 335 335 335 335 337 338 338 338 336 334 330 325 320 321 323 325 326 326 327 325 321 320 322 322 321 322 322 319 309 306 304 304 304 304 304 304 304 304 303 302 301
329 332 336 336 336 335 333 336 337 337 338 337 335 333 328 321 320 322 324 324 325 325 323 320 322 323 322 323 322 318 309 305 304 304 303 303 304 303 303 302 302 301 301
319 321 326 334 336 336 336 335 335 337 338 337 337 336 335 330 321 320 322 322 322 324 324 321 324 324 323 323 323 318 308 306 305 304 303 303 303 303 302 301 301 300 300
317 318 319 323 333 336 335 335 335 336 336 336 337 337 336 334 329 324 321 321 320 326 325 323 325 326 324 324 323 318 308 306 305 304 303 303 303 302 301 301 300 300 300
316 317 317 318 323 332 335 335 332 329 332 334 334 335 335 336 334 331 327 323 321 327 327 324 326 326 325 325 323 317 307 306 305 304 303 303 302 302 302 301 301 300 300
318 318 318 318 318 321 322 325 322 322 325 331 332 333 333 333 334 334 332 327 328 330 327 323 326 326 325 324 323 314 307 307 305 304 303 303 302 302 302 302 302 301 300
315 316 316 318 318 318 318 319 320 320 321 323 327 330 331 331 331 332 332 331 331 331 327 324 326 326 325 325 322 314 306 306 306 305 303 303 303 302 302 302 302 301 300
312 313 314 315 317 318 318 318 318 318 320 321 321 324 330 330 330 329 329 329 330 331 329 327 327 327 326 326 324 317 308 308 308 306 304 304 303 303 303 303 302 301 300
312 313 313 313 314 316 317 318 318 318 318 318 319 320 321 327 330 330 329 330 329 330 330 328 327 326 326 326 323 320 318 311 309 307 306 304 303 303 303 303 302 300 299
313 313 313 313 313 313 314 315 316 318 318 318 318 320 321 322 328 329 330 328 328 328 329 329 328 328 327 326 326 322 316 312 310 309 309 307 305 304 303 302 301 300 299
312 313 314 314 313 313 313 314 314 315 317 318 318 319 319 320 322 329 330 329 328 328 328 328 328 328 328 327 326 324 319 316 311 309 309 309 308 306 305 302 300 299 298

GFSSE_850_thetae_042.txt.gz
Theta_e
334 334 342 342 337 339 337 336 336 340 340 341 342 341 341 341 339 336 334 328 318 319 317 329 330 330 330 325 326 328 328 327 327 327 327 324 317 312 311 312 318 329 316
335 341 343 342 340 337 339 337 338 339 340 340 341 340 339 336 334 331 325 320 329 325 322 335 333 333 326 321 325 324 325 324 323 321 318 314 312 311 313 317 317 320 323
343 344 341 345 340 340 340 339 339 340 339 339 339 334 335 333 326 317 317 328 338 333 333 337 336 333 327 325 321 323 320 318 316 314 315 327 316 316 317 319 320 323 315
344 344 343 343 340 340 342 340 338 336 336 336 335 324 328 322 315 312 316 334 337 336 337 338 336 332 325 319 314 313 313 315 316 318 329 330 330 327 330 327 324 323 322
343 343 342 336 341 342 337 337 336 336 336 337 328 327 318 311 310 310 313 330 335 336 336 336 335 328 318 312 313 317 320 322 322 327 330 331 334 331 332 332 333 331 331
343 342 335 335 342 340 337 338 339 337 337 336 329 326 311 311 310 310 311 314 330 335 335 330 323 316 314 314 318 322 324 324 325 328 330 328 334 322 324 328 331 332 332
342 342 336 336 343 341 335 334 339 335 339 334 328 324 312 312 312 311 314 320 326 326 321 317 314 315 318 318 321 322 323 324 329 329 330 330 331 320 319 328 330 330 332
341 341 339 341 341 331 327 325 326 333 335 332 332 326 315 313 313 313 313 318 318 315 314 315 318 320 322 323 323 323 324 324 329 330 329 329 322 320 325 323 321 326 328
341 340 337 334 327 327 322 322 320 321 321 330 336 331 319 315 315 315 315 314 314 316 319 321 322 324 324 322 321 321 322 323 329 327 325 326 318 326 327 327 325 322 321
340 340 339 339 332 323 323 322 318 320 323 338 336 334 322 316 316 316 317 317 318 320 321 329 325 323 322 321 321 321 320 320 322 318 322 324 326 328 327 326 324 321 319
339 340 339 338 335 332 332 324 320 321 328 336 337 335 328 327 321 318 317 319 320 320 322 329 325 323 322 321 321 321 320 318 317 319 324 321 325 323 324 323 319 318 317
337 339 339 338 336 332 328 329 326 325 326 335 335 334 331 332 332 331 321 318 320 322 327 328 324 323 322 322 322 322 320 316 315 321 324 317 322 323 319 315 313 311 307
337 336 334 333 335 333 329 330 333 334 333 333 334 333 331 332 332 330 330 321 319 321 329 326 323 323 323 322 322 322 316 311 316 320 323 322 322 320 311 310 307 306 305
338 337 337 335 334 332 332 331 333 332 331 331 331 331 330 329 331 332 333 332 330 326 329 326 323 323 323 321 322 321 316 310 315 319 322 318 318 311 308 306 305 305 305
335 338 339 338 338 336 336 337 338 337 335 330 325 326 330 329 331 331 332 333 330 329 327 320 322 322 323 321 322 321 318 310 311 317 321 311 308 307 306 305 305 304 304
339 337 335 335 336 339 339 339 338 337 337 336 332 327 322 326 327 331 331 329 329 329 325 320 320 322 322 321 322 321 318 310 308 312 318 312 306 306 305 305 304 303 302
332 337 341 338 334 334 335 337 337 338 337 337 336 334 330 324 322 326 331 330 329 329 327 324 320 321 322 322 322 322 318 310 307 308 309 315 306 304 304 304 303 302 302
320 323 330 337 337 335 335 334 334 335 337 337 336 336 335 333 328 323 329 330 329 328 325 325 322 321 323 322 322 323 319 310 306 307 304 304 305 306 303 303 302 301 301
318 318 319 321 333 336 334 335 335 335 335 336 337 336 335 336 333 331 326 327 329 327 324 324 324 322 324 323 323 323 321 312 306 305 304 304 304 303 303 302 302 301 300
316 317 317 317 319 330 336 333 335 335 334 334 335 335 335 335 335 334 332 325 326 326 322 324 325 323 325 325 324 324 323 313 306 305 304 304 304 303 302 302 301 301 301
318 318 318 317 317 318 330 336 332 334 332 334 330 332 334 332 332 331 332 332 328 324 322 322 326 324 325 326 324 322 322 314 307 306 305 304 304 303 302 302 302 302 301
316 316 317 317 318 318 318 329 326 331 332 333 327 325 330 332 330 331 331 331 332 330 324 323 328 326 325 325 324 318 311 311 309 306 305 304 303 303 302 302 302 302 302
312 312 313 315 316 317 318 318 325 330 330 324 322 322 323 326 329 330 330 330 330 331 329 328 330 327 324 326 325 319 314 314 309 308 307 305 304 303 303 303 303 303 302
313 312 312 313 313 315 316 316 317 327 327 322 319 319 320 321 323 330 329 329 328 328 329 329 330 328 325 326 324 324 322 315 310 308 308 307 305 304 303 303 303 302 302
312 313 314 313 313 313 313 313 315 325 328 328 329 327 320 319 319 320 324 328 328 330 329 328 329 329 326 326 326 325 323 319 314 311 308 309 307 305 304 303 303 302 302
313 313 312 313 314 313 313 312 312 313 323 327 328 328 325 324 320 320 322 325 326 327 329 328 328 330 328 327 327 326 325 324 319 315 309 308 308 307 305 303 303 302 301

GFSSE_850_thetae_045.txt.gz
Theta_e
345 328 328 339 344 343 343 338 338 340 340 340 340 340 340 341 340 337 333 325 319 318 319 334 330 333 330 326 329 331 331 330 329 327 325 318 313 311 312 314 331 327 321
346 331 333 341 342 343 339 337 340 341 340 340 340 339 340 338 335 330 323 323 324 317 332 334 328 325 321 319 324 324 326 326 324 320 317 317 312 313 317 316 318 317 317
347 342 335 340 336 338 336 340 339 340 339 339 339 339 335 333 326 314 320 337 334 327 337 336 335 330 324 320 323 322 320 318 316 316 328 328 319 320 320 320 320 315 314
347 346 343 344 336 342 341 338 339 339 338 336 334 327 330 323 315 316 332 338 338 334 338 337 334 332 320 314 314 313 313 314 316 327 331 331 333 333 330 330 327 324 322
347 346 343 343 340 343 342 340 338 336 336 335 327 324 316 311 310 314 330 336 336 336 336 337 334 326 313 311 314 317 320 321 325 331 332 332 332 330 330 332 333 333 331
345 344 343 342 340 342 339 337 338 337 337 336 328 322 311 311 310 311 316 331 335 335 335 335 327 315 314 316 320 323 323 325 329 331 332 330 330 319 327 330 332 332 333
343 344 340 330 340 341 338 337 339 339 338 335 328 319 312 311 311 311 312 317 333 333 329 319 315 316 317 320 321 323 323 326 330 330 330 331 326 319 324 330 330 332 333
343 343 340 336 341 342 341 335 340 339 338 336 329 321 313 313 312 312 317 323 325 322 317 314 316 319 321 322 322 322 322 323 331 330 329 330 317 327 328 324 319 324 325
343 342 340 337 341 340 338 333 328 332 336 337 333 327 314 314 314 313 315 317 316 314 316 319 320 323 322 321 320 320 321 324 330 328 326 327 325 329 328 327 325 322 320
343 342 342 341 338 334 324 323 322 322 322 326 335 334 323 315 315 315 315 315 315 318 320 323 323 322 321 320 320 320 320 320 326 323 323 323 327 329 327 326 322 318 316
344 342 341 340 340 337 335 325 321 320 321 334 337 334 324 320 317 316 317 318 318 324 321 325 324 322 321 321 321 321 320 322 321 321 326 323 327 326 324 320 316 312 312
343 343 341 340 339 337 336 334 323 321 326 337 337 336 332 332 331 328 323 318 320 320 321 325 325 322 322 321 321 322 321 319 319 323 325 318 319 320 320 313 311 309 306
337 343 341 340 339 338 337 337 336 336 336 338 337 337 334 333 333 333 331 319 318 321 324 329 325 322 322 320 320 320 320 316 318 322 324 317 323 320 315 308 307 306 305
341 338 339 341 340 339 339 337 337 337 336 335 336 336 335 333 334 333 333 331 327 327 329 329 328 326 323 322 321 320 319 316 318 321 324 319 320 316 309 306 305 305 305
342 342 337 337 339 339 340 339 338 337 337 336 334 333 332 333 333 334 334 334 332 331 331 331 329 324 322 322 320 320 319 316 318 320 323 317 314 310 306 305 305 304 304
341 342 341 338 337 336 337 341 341 341 339 338 337 333 332 332 332 333 334 334 334 332 330 330 327 323 320 320 320 320 318 316 317 319 321 316 308 307 305 305 304 304 303
338 340 341 341 334 334 336 336 337 340 340 339 339 337 334 332 330 332 333 333 334 333 332 330 327 323 319 318 318 321 321 317 315 316 318 318 312 306 305 304 304 303 302
326 328 334 340 342 341 340 336 335 335 338 340 339 339 337 335 332 330 330 332 332 333 332 330 327 322 319 319 321 320 321 321 315 314 315 316 313 308 305 304 303 303 302
321 322 323 327 335 340 341 341 339 335 336 335 340 339 338 338 335 333 331 331 332 332 331 330 326 322 320 319 320 319 322 321 318 312 312 310 310 310 307 304 303 302 301
319 320 320 321 321 327 334 338 340 335 335 335 336 340 338 336 336 335 333 332 332 331 329 329 326 323 322 320 320 318 321 322 319 313 309 309 307 305 305 304 303 302 301
318 318 319 319 319 320 324 330 335 336 327 328 331 334 340 339 337 336 335 333 331 331 330 329 326 323 323 320 318 320 319 321 319 315 310 308 307 306 304 303 303 302 302
315 316 317 318 319 319 318 321 326 336 327 323 326 329 331 335 337 336 334 333 333 331 330 330 328 323 322 324 321 320 316 316 319 317 312 308 307 306 305 303 303 302 302
314 313 314 315 316 317 318 318 319 328 334 335 331 331 329 333 333 335 335 334 333 332 331 330 329 325 323 325 325 322 318 317 316 315 312 308 306 306 305 304 303 302 302
314 313 313 312 312 313 314 316 317 320 327 332 333 334 330 325 324 327 338 336 334 332 331 331 330 328 324 325 326 324 321 317 315 311 311 308 306 305 305 304 303 302 302
313 312 313 314 314 313 312 312 313 314 318 325 329 331 330 330 328 321 323 333 333 331 331 331 329 328 328 325 328 325 324 320 318 315 312 312 309 306 304 303 303 302 302
316 314 313 312 313 314 314 313 312 312 316 321 326 328 329 331 331 330 328 328 332 334 330 329 328 328 327 326 326 327 325 324 323 319 314 311 311 309 305 303 302 301 301

GFSSE_850_thetae_048.txt.gz
Theta_e
343 328 326 341 345 342 341 339 338 339 339 340 340 340 339 340 339 335 329 320 318 319 336 334 333 331 327 326 331 332 331 329 327 322 320 313 311 314 315 324 321 317 332
335 325 328 343 343 343 342 337 341 340 340 339 339 337 339 338 333 326 321 326 316 330 335 330 324 323 318 319 323 325 326 324 319 321 320 316 316 317 316 318 314 315 328
340 331 331 341 343 340 337 341 342 340 339 339 338 338 335 331 321 316 335 331 323 335 337 336 332 327 318 318 323 320 318 316 325 330 330 330 327 325 325 321 318 315 314
345 337 334 335 338 335 337 340 339 340 338 337 331 327 328 320 312 333 338 338 331 337 338 336 332 325 313 313 314 313 314 318 329 331 332 332 331 333 332 332 327 327 325
347 342 337 334 339 340 339 338 338 338 337 333 324 319 312 310 313 335 336 336 336 337 336 333 333 316 312 313 316 319 320 327 331 331 328 330 329 330 330 330 333 332 330
346 346 341 339 340 341 339 338 337 337 338 327 324 313 311 310 311 318 332 335 335 335 335 334 320 314 314 319 321 321 324 328 330 331 331 329 321 325 329 332 333 333 334
345 346 343 339 340 341 339 335 337 338 337 331 326 314 312 311 311 311 318 329 332 331 330 318 314 316 317 320 321 321 323 328 329 330 329 329 319 319 324 328 330 331 332
343 344 342 339 340 342 337 337 338 338 338 335 327 315 312 312 311 311 316 321 330 326 317 314 317 319 320 320 320 321 322 330 330 328 328 325 321 329 327 325 320 316 323
343 343 336 331 342 342 338 338 340 339 337 337 329 320 313 313 313 314 317 319 319 315 315 317 320 321 320 319 319 320 322 329 329 327 326 326 328 330 327 325 321 316 316
343 342 340 330 337 338 337 335 332 333 333 337 331 325 315 314 314 314 314 315 315 315 318 319 321 321 320 319 320 319 319 323 323 319 322 321 328 330 326 322 316 310 309
342 342 341 339 335 331 325 323 322 323 324 324 334 330 318 315 315 316 315 316 316 318 318 321 321 321 320 320 320 320 319 321 320 322 324 323 327 327 323 316 312 307 307
344 342 341 341 340 338 335 330 323 319 320 323 334 334 321 319 321 317 316 318 318 318 319 321 322 321 321 321 321 321 320 319 318 323 323 323 319 318 317 313 308 306 306
343 343 341 340 340 337 337 336 328 322 320 326 333 335 329 330 333 332 326 321 318 319 319 320 323 321 321 320 320 321 321 318 317 321 320 321 315 317 313 307 306 305 305
337 343 342 341 340 338 338 336 335 334 334 337 336 334 333 332 332 333 331 325 319 317 319 321 323 323 321 321 321 321 321 317 317 320 320 321 318 313 312 306 305 305 305
342 338 341 341 341 339 339 338 337 337 337 335 336 337 337 335 333 333 333 333 331 325 326 327 328 327 324 322 322 320 320 320 317 318 319 321 318 312 310 306 305 305 304
341 341 339 338 339 339 339 339 339 337 337 337 336 334 334 335 333 332 334 333 334 331 331 331 331 329 326 321 320 320 320 319 317 318 319 318 317 311 307 306 305 304 304
339 340 341 336 334 335 337 338 340 340 340 339 338 337 335 332 332 332 332 333 333 333 331 331 330 328 325 320 319 319 319 320 319 317 317 317 314 311 307 305 305 304 304
333 335 339 340 341 338 333 334 337 340 340 340 339 338 337 336 332 331 331 332 333 333 329 332 330 328 325 321 319 318 319 320 320 317 316 316 314 312 308 305 305 304 303
323 326 328 331 338 342 341 339 336 333 335 337 338 339 338 337 337 334 331 330 330 332 331 332 331 330 327 323 319 318 319 320 321 319 316 314 313 311 309 308 305 304 303
319 320 321 322 325 333 336 341 340 338 336 333 333 336 340 339 337 336 335 333 331 332 333 332 331 330 328 323 319 318 317 318 321 321 318 315 312 310 309 308 306 304 303
319 319 319 319 320 320 321 330 334 336 335 334 332 327 336 339 338 336 333 334 333 332 332 332 331 330 328 323 319 317 315 317 319 321 320 317 313 310 308 307 306 304 303
317 316 317 318 319 319 319 320 324 328 331 332 333 331 326 329 335 339 336 332 332 332 332 332 331 330 328 325 320 317 314 315 320 321 320 318 315 311 308 307 306 304 303
313 314 315 316 317 318 318 319 319 320 324 333 334 329 323 322 330 333 336 337 334 331 331 331 331 331 330 326 322 320 317 319 320 320 319 318 313 310 309 307 306 304 303
315 313 313 312 313 313 314 317 318 318 318 321 331 333 330 329 327 326 329 334 334 335 332 330 330 330 330 329 324 321 321 321 320 318 317 315 311 310 310 307 306 304 303
314 313 312 313 314 314 313 312 312 313 314 316 321 327 332 332 331 328 328 328 331 332 333 333 329 331 329 328 328 326 321 321 317 319 318 316 311 311 309 308 306 304 304
317 315 314 313 313 314 314 314 314 313 312 312 314 319 324 328 329 329 329 329 330 329 329 330 330 329 330 328 327 327 325 323 322 317 317 317 316 313 308 306 305 304 305

GFSSE_850_thetae_051.txt.gz
Theta_e
345 335 336 341 341 339 337 337 338 339 340 339 339 339 338 338 336 330 321 319 324 336 334 333 328 328 325 331 333 332 329 325 322 317 313 313 315 316 319 316 319 333 334
343 334 335 343 341 339 336 338 338 339 340 338 338 338 337 335 329 318 324 316 336 337 328 328 326 317 316 321 326 326 324 322 323 325 323 323 319 319 316 313 315 326 331
336 330 341 345 342 338 336 341 340 339 339 338 337 334 333 327 315 333 325 327 335 337 335 332 329 314 316 321 321 319 320 328 329 330 329 328 330 328 326 319 315 314 322
335 330 337 344 339 338 340 341 340 338 337 335 325 327 324 315 335 338 335 330 337 337 336 332 328 311 312 314 314 314 324 330 331 330 330 329 331 333 333 329 329 328 331
336 331 333 344 338 334 340 339 341 336 336 329 320 316 312 315 335 336 335 333 336 336 335 333 318 312 313 315 317 318 325 329 329 329 331 328 329 330 331 333 332 331 334
342 334 335 334 335 336 337 337 337 337 331 323 315 311 310 312 329 331 332 335 334 333 333 330 314 314 318 320 321 323 327 330 330 330 327 324 321 329 332 333 333 334 334
343 341 337 338 341 338 336 336 335 334 325 327 315 312 311 311 312 321 327 329 331 329 327 315 316 316 318 320 320 324 325 329 330 329 328 326 317 319 328 328 329 331 331
345 346 341 340 343 341 336 334 335 336 333 329 320 312 312 312 311 312 317 321 326 322 315 315 318 319 319 319 320 322 329 329 329 329 325 320 327 328 326 324 320 317 318
344 344 343 339 342 342 336 336 338 337 333 324 323 314 313 313 313 315 317 321 320 316 315 318 319 320 319 319 319 320 327 328 329 326 323 322 330 329 324 322 317 311 312
343 342 337 337 342 341 337 340 338 337 334 324 323 317 313 314 313 315 316 316 315 315 317 319 320 319 319 319 319 318 320 321 321 318 320 320 328 327 323 316 311 307 307
342 341 341 330 334 335 333 333 333 329 327 326 322 319 314 314 315 314 315 315 315 317 318 319 320 319 319 319 320 319 318 318 316 317 321 322 324 323 319 313 309 306 305
342 342 341 336 335 330 327 324 322 321 321 320 321 323 317 315 315 315 316 316 317 317 318 319 320 320 320 320 320 320 319 318 317 317 319 320 320 315 313 311 307 305 305
342 342 341 340 339 338 329 329 327 321 319 319 322 324 327 319 320 319 318 317 317 318 318 318 320 320 320 320 320 321 321 319 317 317 317 318 318 313 310 307 305 305 305
343 342 341 340 340 339 336 334 332 326 322 320 325 330 328 328 327 329 328 328 324 318 318 319 320 322 320 320 320 320 320 320 316 317 318 319 319 318 308 307 305 305 305
341 342 341 340 339 339 338 337 334 333 332 332 331 335 335 333 330 331 331 331 329 325 319 319 321 323 322 321 320 321 320 320 319 317 318 318 319 318 312 308 306 305 305
341 340 341 341 340 339 338 338 337 335 336 335 336 335 336 337 335 333 332 331 331 331 331 326 327 327 327 324 322 321 320 320 320 318 318 318 318 317 314 308 306 305 305
337 337 335 336 340 339 338 338 339 337 337 337 337 337 335 335 335 334 333 331 331 333 332 331 330 330 330 329 324 319 319 319 318 319 319 318 318 317 313 309 306 305 304
335 338 338 338 339 338 336 337 338 339 338 338 337 338 338 336 335 333 332 331 330 331 333 333 331 331 330 329 326 321 318 318 317 318 319 318 318 317 314 311 307 306 305
324 326 332 339 337 339 338 338 336 336 339 339 338 337 337 337 336 335 333 332 331 330 331 333 332 331 331 329 327 324 320 317 318 317 318 319 319 317 315 312 308 306 305
318 323 324 324 323 325 333 337 339 336 335 336 337 338 336 336 337 337 336 335 333 331 330 331 332 330 331 330 329 326 322 318 317 318 318 319 320 319 317 313 309 308 305
317 319 320 320 321 322 324 326 328 334 335 333 332 334 335 335 334 336 335 333 334 334 333 332 331 332 331 331 330 328 322 318 316 317 317 317 318 320 319 315 311 308 306
318 318 318 319 319 320 320 320 320 321 324 329 331 331 331 334 333 329 333 335 335 332 333 333 331 331 331 331 330 327 318 317 317 318 317 319 318 318 319 317 312 309 307
316 316 316 316 317 318 318 319 319 319 320 321 325 328 331 331 331 329 328 329 331 332 332 332 331 329 329 329 329 327 317 317 319 320 318 319 319 318 317 316 313 309 307
314 314 314 314 315 316 316 317 318 318 318 318 319 319 324 329 328 328 328 328 328 327 328 329 331 331 329 329 329 328 326 322 321 321 321 321 318 316 314 312 311 309 307
314 313 312 312 313 313 313 313 312 313 313 315 316 317 321 326 328 328 327 329 327 326 326 327 329 330 330 328 327 328 326 322 319 319 320 321 318 315 313 311 310 308 306
317 316 315 314 313 313 313 313 313 313 313 313 312 312 313 318 323 326 327 326 327 327 328 327 328 328 328 329 330 328 327 325 320 318 317 317 318 315 314 310 321 311 305

GFSSE_850_thetae_054.txt.gz
Theta_e
342 328 342 334 334 335 336 336 337 338 338 338 338 338 335 335 331 320 318 321 333 335 334 329 328 326 329 333 332 331 328 326 323 316 315 315 315 316 314 322 334 333 333
341 329 341 341 336 336 338 340 339 339 338 338 337 339 335 331 320 325 318 337 336 323 326 322 314 314 322 329 329 327 325 324 322 317 321 322 321 315 313 316 327 330 330
341 333 340 341 338 338 337 337 338 338 337 336 333 332 329 318 329 317 328 336 337 331 331 327 312 316 319 323 322 322 324 324 326 327 328 331 329 328 322 315 315 318 318
341 333 342 342 341 336 339 338 339 336 328 322 325 325 317 331 336 326 332 336 338 336 332 326 311 315 318 318 319 322 324 325 329 327 327 329 331 332 330 330 329 333 333
333 334 345 344 341 338 339 338 336 334 330 320 317 314 314 334 335 335 331 338 337 336 331 321 312 312 312 313 316 324 327 328 327 328 329 326 330 331 333 332 331 335 333
332 335 345 342 338 337 338 337 335 333 332 318 312 311 314 332 334 333 333 334 335 330 329 315 315 317 318 318 321 326 327 328 327 325 323 320 328 331 333 333 334 333 332
332 334 342 343 335 336 336 335 336 334 325 318 311 311 311 313 320 324 327 329 325 325 321 315 316 318 318 319 321 323 325 327 326 325 323 318 316 322 328 330 330 330 331
337 336 336 336 337 336 335 336 333 329 323 319 312 311 311 311 313 317 319 323 322 319 315 316 317 318 318 319 320 322 325 325 325 323 322 320 328 325 323 322 320 318 317
342 341 335 341 341 338 335 334 335 335 323 318 314 312 312 311 312 314 316 320 319 315 316 318 319 318 318 318 319 322 325 325 323 321 320 319 329 324 319 315 312 309 310
344 343 342 338 341 340 335 334 338 337 328 319 316 313 313 313 313 316 319 320 317 315 317 318 319 318 318 318 318 319 321 322 321 317 318 317 325 318 315 312 309 307 306
343 341 338 339 337 340 336 338 337 334 325 322 320 317 314 314 314 316 316 316 315 315 318 319 319 319 319 319 319 319 319 318 316 317 319 321 320 320 317 311 308 306 305
342 341 340 333 329 330 334 335 334 329 324 322 321 322 316 315 315 315 315 315 315 316 318 319 320 320 319 319 320 319 319 319 317 317 318 320 320 318 313 310 307 305 305
341 341 340 337 333 330 326 325 324 322 321 320 320 322 324 317 315 315 316 316 317 317 318 319 320 320 320 320 320 320 320 320 318 317 317 318 317 318 313 309 306 305 305
341 341 340 340 339 338 334 329 327 326 322 319 319 322 326 325 320 321 322 323 324 321 318 318 319 321 321 320 320 320 320 320 320 317 317 318 318 318 317 310 307 306 305
342 341 340 340 339 339 338 335 332 329 326 324 322 330 332 330 328 327 328 329 329 328 324 318 318 320 322 321 320 320 320 320 320 318 317 318 319 318 318 315 308 306 305
341 342 341 340 339 339 338 338 336 334 332 333 333 332 333 334 334 334 333 331 330 330 330 331 327 324 324 324 323 322 321 320 320 319 318 318 319 319 318 316 311 307 305
335 338 341 341 339 338 338 338 337 336 336 335 335 336 336 334 334 334 334 333 332 331 330 331 331 329 328 328 328 327 324 320 319 319 319 318 319 319 318 317 313 309 306
334 338 338 339 340 339 339 338 337 336 336 335 335 336 336 336 335 334 333 333 332 331 331 331 331 331 331 330 329 329 328 322 318 318 318 318 318 319 318 317 315 311 307
321 328 333 337 338 338 339 338 338 338 337 337 336 336 336 335 333 335 334 333 333 332 331 331 330 331 332 331 330 330 329 326 322 318 317 318 318 318 318 318 316 313 309
319 321 324 328 334 337 336 338 338 338 337 337 338 338 338 336 335 336 336 334 334 334 333 332 331 331 332 332 331 331 330 328 326 322 318 317 318 318 318 318 318 315 310
317 317 322 322 323 323 323 324 327 332 334 335 334 334 333 333 333 335 334 334 331 334 332 333 332 331 331 331 331 330 330 329 327 326 320 318 317 318 318 318 317 316 312
317 317 318 320 320 320 320 322 324 323 323 325 328 330 332 333 333 333 332 331 332 334 332 333 333 332 332 331 330 330 326 326 328 328 325 319 318 317 317 317 316 316 314
316 317 317 318 318 318 318 318 319 319 319 319 321 322 324 328 330 330 331 331 329 328 329 331 331 331 331 331 330 329 326 325 325 325 325 322 320 318 317 317 318 315 314
315 315 315 315 315 315 316 317 317 317 317 318 318 318 319 319 320 325 328 327 327 328 329 329 328 327 329 329 329 329 329 328 323 322 323 323 320 316 315 315 315 314 313
314 313 312 312 313 313 313 314 314 314 314 315 315 316 316 317 317 321 325 326 327 326 325 324 326 326 327 328 329 328 327 327 327 323 322 323 322 321 320 316 314 313 312
314 314 313 313 312 312 312 312 312 313 313 313 313 312 312 312 313 315 319 325 324 325 324 326 325 325 325 326 326 325 326 326 324 323 321 323 321 319 319 319 317 316 311

GFSSE_850_thetae_057.txt.gz
Theta_e
335 332 339 333 333 335 336 337 337 336 336 337 337 336 334 331 323 318 318 335 338 335 331 330 326 325 334 334 333 332 329 327 323 316 315 315 314 313 323 332 333 333 334
329 335 337 332 333 335 338 338 338 338 338 337 335 329 331 321 324 317 333 335 322 323 320 314 315 324 331 331 330 329 327 325 319 317 320 323 321 315 315 326 330 332 333
329 338 335 333 332 336 342 338 339 339 338 335 332 327 320 324 317 331 337 338 329 330 322 311 313 315 326 328 326 325 324 321 321 325 329 331 332 326 318 315 318 318 317
330 341 340 340 336 340 337 338 341 339 330 326 325 319 317 330 323 334 335 338 334 332 322 311 317 317 322 322 322 321 318 321 323 324 328 329 331 330 331 329 335 334 333
336 336 340 340 338 336 337 341 337 333 325 320 316 313 327 335 329 333 336 338 336 332 320 312 311 314 316 317 316 316 320 322 323 323 324 329 332 332 332 330 334 334 334
338 339 342 342 336 338 338 336 330 324 326 316 313 312 323 334 333 332 336 335 334 325 316 314 316 315 314 315 318 321 322 322 320 319 318 322 330 332 333 333 332 332 333
333 340 345 342 337 340 338 334 332 329 320 314 311 313 328 328 325 328 327 326 323 321 315 315 317 318 318 319 320 322 323 323 320 319 319 315 318 327 329 328 328 328 331
332 340 345 341 335 337 336 334 333 327 318 313 311 312 327 319 322 322 324 323 320 317 315 316 318 318 318 319 321 322 324 324 323 321 320 322 325 321 320 319 318 316 315
333 332 338 340 334 335 335 333 331 326 318 315 312 311 312 315 320 320 321 322 319 316 316 317 318 318 318 319 321 322 324 325 323 320 318 317 326 319 316 313 310 308 307
337 336 332 335 338 336 334 334 332 329 320 318 314 313 312 312 312 315 319 321 320 316 316 318 319 319 319 319 320 323 323 324 322 318 318 320 321 319 316 312 309 307 306
344 343 340 338 338 337 336 332 334 331 326 323 319 314 314 314 314 315 317 318 318 315 317 319 320 319 319 319 319 322 323 323 320 317 318 320 321 322 318 313 309 306 305
343 341 339 340 339 334 333 333 334 334 329 326 324 323 315 314 314 315 316 316 316 316 317 318 320 320 319 319 319 320 322 321 319 318 318 320 320 319 318 313 309 306 306
342 340 340 337 337 331 330 333 334 331 329 325 323 322 322 317 315 315 315 315 316 316 317 318 319 320 320 319 319 320 320 320 320 319 317 319 319 319 319 316 310 307 306
341 340 339 336 333 331 328 328 328 327 324 322 321 320 323 324 318 316 316 316 317 318 318 318 318 319 320 320 320 320 320 320 320 320 319 318 318 319 319 319 315 308 306
341 340 339 339 338 337 336 332 329 329 329 325 320 319 323 326 325 324 323 325 327 328 327 325 319 318 319 321 321 320 320 319 320 320 320 318 318 319 319 319 317 314 307
341 341 340 339 338 338 337 337 335 334 332 330 329 327 329 331 331 330 330 329 329 329 329 329 329 328 325 323 324 322 321 320 320 320 319 318 318 318 319 319 318 316 311
339 341 340 340 339 338 337 337 337 336 335 333 332 333 334 334 334 334 334 333 333 332 331 330 330 331 330 329 328 328 327 327 326 322 319 318 318 318 318 319 319 318 315
335 337 340 340 340 340 339 337 338 337 336 335 334 334 334 335 336 335 334 333 333 333 332 332 331 331 331 331 331 331 329 329 328 327 322 318 318 317 318 318 318 318 316
326 332 337 338 339 338 339 338 339 338 338 337 337 336 335 335 334 334 333 332 333 334 333 332 331 331 331 331 331 331 331 330 330 329 327 324 320 317 317 318 318 318 317
318 320 327 335 338 338 339 339 339 339 339 338 337 336 336 337 337 336 336 335 335 336 334 334 333 332 332 331 331 331 332 331 330 330 329 328 326 322 318 317 317 317 317
317 318 319 323 327 334 339 339 339 339 338 338 337 337 337 337 335 337 337 336 336 335 333 332 333 333 332 332 331 331 330 330 330 330 329 328 328 326 321 317 316 316 317
317 317 317 317 322 323 326 326 326 327 327 329 331 333 334 336 336 334 333 332 331 332 331 331 331 331 331 332 331 331 330 329 327 327 327 327 326 326 325 320 317 316 316
317 317 317 317 318 319 320 320 320 321 324 324 323 322 323 326 327 330 332 333 331 333 332 330 330 329 330 330 329 329 327 326 326 326 325 325 324 324 323 320 317 315 315
316 316 316 316 316 317 317 317 317 318 318 318 318 318 319 319 319 319 319 322 325 325 327 327 327 328 329 329 328 327 329 329 327 326 324 325 324 323 322 321 321 316 314
315 315 315 314 314 314 313 313 314 314 315 315 315 315 315 315 316 316 317 317 319 324 326 326 326 325 324 326 325 327 327 328 327 324 322 322 322 322 323 322 320 318 315
314 314 313 312 312 312 312 313 313 313 313 313 313 313 312 312 312 312 312 313 316 322 326 325 325 326 326 325 325 325 325 325 325 324 324 323 321 321 321 321 321 320 318

GFSSE_850_thetae_060.txt.gz
Theta_e
331 340 334 333 333 334 336 338 339 338 337 336 336 335 332 324 317 321 334 338 334 330 329 327 324 330 337 336 333 332 330 327 321 315 316 314 312 321 330 332 333 335 331
327 338 333 332 332 334 335 336 335 334 336 336 335 332 325 321 319 331 335 322 321 318 313 315 323 326 331 331 331 329 327 324 317 317 321 325 320 314 320 324 326 330 327
326 336 331 332 332 334 336 339 339 339 339 334 326 324 320 318 327 336 338 327 327 319 311 312 313 324 327 327 326 324 322 317 319 325 330 331 328 325 322 330 330 322 321
329 334 331 333 332 340 340 337 340 338 335 328 323 316 326 320 335 338 338 332 331 321 311 315 315 321 325 325 322 318 317 321 321 325 326 327 329 331 331 335 335 333 331
330 333 333 335 341 340 336 340 338 335 325 322 317 321 331 325 333 334 337 335 332 319 312 312 316 318 318 318 316 319 321 321 321 321 327 331 332 332 330 333 333 334 333
330 336 341 340 340 335 337 337 331 324 321 317 314 325 339 329 331 336 335 334 330 319 314 315 314 314 315 316 319 322 323 321 319 318 317 328 331 331 332 331 331 332 333
333 340 343 338 336 336 336 332 325 323 317 315 313 323 336 330 329 332 328 329 323 318 315 317 317 317 317 320 321 322 323 321 320 319 317 316 322 327 327 326 323 323 327
337 341 343 340 335 338 336 334 328 324 317 313 312 321 329 323 323 325 326 320 320 316 315 317 318 318 319 320 322 322 323 323 322 320 318 323 324 320 318 316 314 311 309
337 341 344 341 337 338 337 335 332 326 318 313 312 312 318 323 326 324 325 322 319 316 316 317 318 318 319 320 321 322 324 323 322 320 319 319 321 318 314 312 310 307 306
338 338 339 340 335 333 336 333 332 329 319 316 313 312 312 312 314 318 321 321 319 316 316 318 318 318 318 319 320 321 323 322 321 318 317 320 321 319 318 314 310 307 306
337 336 337 336 333 333 334 333 331 331 324 319 315 313 313 313 313 314 316 319 319 316 316 318 319 318 318 318 319 320 321 322 320 317 317 318 320 320 319 316 311 307 306
339 340 337 335 337 335 335 333 331 331 328 325 322 320 314 314 314 315 317 318 317 315 316 318 319 319 319 319 319 319 319 320 319 319 318 318 319 319 319 318 315 310 307
342 341 339 339 339 338 332 332 331 332 331 328 325 323 322 317 315 315 315 316 315 315 316 317 318 319 320 319 319 319 319 320 320 320 319 318 318 320 319 319 318 315 308
342 340 339 338 338 337 333 332 332 332 329 326 323 322 321 324 320 315 315 315 316 316 317 318 318 318 319 320 320 319 319 320 320 320 320 319 318 318 319 319 319 318 314
341 340 339 337 333 332 332 330 329 327 325 326 324 321 320 321 325 325 320 320 321 325 327 327 326 322 319 318 319 321 321 320 319 319 320 320 319 318 318 319 319 319 318
340 340 339 338 337 336 336 335 332 331 332 331 328 325 321 324 330 329 329 327 327 328 329 329 329 329 329 327 325 324 324 323 322 322 323 320 319 318 318 318 319 319 319
339 339 339 338 338 337 337 337 336 336 335 334 332 332 332 331 332 333 333 333 332 332 332 331 330 330 330 330 330 329 329 329 328 328 327 326 321 318 318 318 318 319 319
338 338 336 337 339 339 338 338 337 336 336 336 335 334 333 333 334 334 334 332 333 332 332 332 332 331 331 330 330 330 330 331 331 330 329 329 327 323 319 317 317 318 318
334 334 335 337 338 339 339 338 338 338 337 337 337 336 336 335 334 334 333 333 333 334 334 334 333 333 332 331 331 331 331 331 331 331 330 329 329 327 325 321 317 317 317
327 328 333 337 337 338 338 338 338 338 337 338 338 337 337 337 336 336 336 336 336 336 336 335 335 334 333 333 332 332 331 331 331 331 330 329 329 329 327 325 322 318 316
318 319 321 327 334 336 336 336 337 337 336 337 338 336 336 336 335 335 336 335 335 336 335 333 333 332 332 331 330 330 329 330 330 329 328 328 328 327 327 326 323 322 317
319 318 317 318 321 324 328 334 337 338 338 337 336 336 336 335 335 336 337 336 335 334 333 332 332 332 331 331 331 330 330 328 326 326 325 326 325 325 325 324 323 320 317
317 317 317 317 317 319 324 326 329 332 332 330 329 330 331 331 328 329 331 332 332 334 333 333 331 332 331 329 329 329 329 326 325 325 325 326 325 324 324 323 321 319 317
316 316 316 316 317 317 318 318 319 319 319 319 320 321 321 320 319 319 319 319 319 320 321 327 327 328 327 327 327 327 327 328 326 325 324 324 323 322 322 323 322 322 321
315 316 316 316 315 315 315 315 315 314 315 315 315 315 315 315 315 315 315 316 316 316 317 319 324 326 327 327 325 327 325 324 323 324 323 322 321 321 322 321 320 321 320
315 315 315 314 314 313 313 313 313 313 313 313 313 313 312 312 312 312 312 312 311 312 313 316 323 327 327 326 326 326 324 325 324 322 322 322 319 318 318 318 317 317 317

GFSSE_850_thetae_063.txt.gz
Theta_e
333 337 338 338 339 338 338 338 339 339 339 337 336 334 328 318 320 334 337 332 328 326 326 322 324 335 337 335 333 330 327 323 315 317 318 314 322 328 330 331 334 331 326
328 341 336 339 334 337 336 338 337 336 335 335 335 331 319 319 331 335 320 322 317 314 313 323 324 329 332 331 328 326 323 316 318 325 328 320 315 317 319 320 321 321 323
328 334 334 333 333 334 337 335 335 337 335 328 325 319 320 323 333 337 326 326 318 311 312 313 322 324 326 325 324 321 317 320 326 329 329 328 328 331 336 334 331 326 330
328 331 332 332 333 334 337 337 336 338 330 323 318 323 320 335 339 338 330 330 319 311 315 314 319 323 325 322 318 318 320 321 324 326 327 330 331 332 333 333 333 331 335
330 331 332 332 336 340 339 337 337 335 326 321 319 325 325 333 335 337 334 331 318 313 313 316 318 319 318 316 319 320 320 320 318 322 329 331 332 331 332 331 333 334 334
333 331 334 333 342 339 337 337 334 327 322 318 324 324 327 331 333 335 334 330 318 315 315 314 314 315 316 318 321 321 320 319 318 317 320 329 331 332 329 325 329 331 330
335 334 336 342 340 335 338 336 328 324 318 317 322 334 327 328 337 335 328 325 318 315 317 317 316 317 318 320 320 321 321 320 319 318 319 318 321 321 320 320 317 315 314
336 339 339 343 337 335 336 333 328 328 316 313 315 335 334 332 336 323 323 321 318 315 317 317 317 318 319 320 320 321 321 321 320 318 318 320 321 316 314 312 310 308 307
338 342 341 339 336 337 335 332 330 328 317 312 312 314 319 328 329 325 323 320 318 316 316 318 318 318 319 319 320 321 321 322 320 319 318 319 318 317 316 313 310 307 306
340 341 342 341 338 338 337 334 332 328 319 313 312 312 313 314 317 319 322 321 319 316 316 317 318 318 318 318 319 319 320 320 319 317 317 318 319 318 318 317 312 308 307
341 343 341 341 339 334 336 334 332 330 320 316 313 313 312 313 313 316 318 319 319 316 316 318 319 318 318 318 319 319 319 320 320 319 318 318 319 319 319 318 317 313 308
340 340 340 340 339 333 334 333 331 330 326 320 317 315 314 314 314 314 316 318 319 317 316 318 319 319 319 319 319 319 319 320 320 320 319 319 318 318 319 319 319 318 313
339 336 336 336 335 336 335 335 332 330 330 325 324 323 322 317 314 315 316 317 317 316 315 317 318 319 320 319 319 319 319 319 320 320 320 319 319 318 319 319 319 319 318
340 341 340 337 339 339 337 333 333 331 332 328 325 323 322 322 321 316 315 315 315 315 316 317 318 318 319 319 320 320 320 319 319 319 319 319 319 319 318 318 318 319 319
341 340 339 338 337 338 337 332 332 331 329 327 325 323 321 321 323 325 321 317 317 317 324 328 327 327 323 320 319 319 320 322 322 320 320 321 320 319 318 318 318 318 319
338 340 339 338 335 333 333 332 330 328 328 329 329 327 323 321 323 329 328 327 325 327 328 329 329 329 329 329 329 328 327 327 327 326 326 327 326 322 319 318 318 318 318
333 339 339 338 337 336 336 336 335 334 333 333 333 331 331 330 329 331 332 333 333 333 332 332 331 331 330 330 330 330 330 330 330 330 330 328 328 327 324 320 318 317 318
335 339 339 339 338 338 337 337 336 336 335 335 335 335 334 333 333 333 334 334 333 333 333 332 332 332 331 331 331 331 331 330 330 330 330 330 330 329 328 326 322 318 317
333 335 338 338 337 338 339 338 338 338 337 336 337 336 336 335 335 334 334 334 334 334 334 334 334 334 333 333 333 332 332 331 331 331 331 330 330 329 329 328 326 323 318
331 333 332 333 335 337 338 339 339 338 338 337 337 337 337 336 336 336 336 335 335 336 335 336 335 335 335 333 332 331 330 329 329 329 329 329 328 328 328 328 327 325 322
318 325 326 328 330 333 333 335 336 336 336 336 332 335 337 337 336 336 335 334 334 335 334 333 334 332 331 331 332 330 330 328 328 328 328 325 326 325 326 327 326 323 321
318 318 318 319 321 324 326 330 332 332 334 336 337 337 337 335 335 335 334 334 335 335 335 335 334 334 332 332 332 331 330 327 325 326 325 325 325 325 325 324 324 323 321
318 318 318 317 317 318 321 323 324 327 331 333 334 334 334 333 332 332 332 330 329 329 331 330 332 334 333 332 332 331 329 326 326 325 324 324 323 323 324 323 322 322 322
317 317 316 316 316 317 318 319 321 323 325 326 326 325 325 325 325 324 322 321 320 320 319 319 321 326 332 331 329 327 327 327 326 324 323 322 321 322 321 321 321 321 321
315 315 316 316 316 316 316 316 317 317 316 316 316 316 316 316 316 316 315 315 315 315 315 315 316 318 322 327 328 327 327 328 325 323 322 322 321 320 319 319 319 319 318
315 315 315 315 315 315 315 314 314 313 313 313 313 313 313 313 313 313 312 312 312 312 312 312 312 314 319 327 329 328 326 325 324 322 320 320 319 318 317 316 317 315 316

GFSSE_850_thetae_066.txt.gz
Theta_e
340 344 340 339 338 338 338 339 340 339 339 338 336 333 323 320 335 337 333 327 324 323 323 332 333 336 335 332 328 325 320 316 320 320 316 321 323 325 327 330 334 331 323
340 343 338 339 340 339 340 339 340 338 336 335 334 325 319 329 337 329 322 317 314 313 321 323 328 330 331 327 323 319 316 322 329 326 320 320 329 334 331 322 320 329 333
341 344 340 341 338 340 339 338 338 336 333 327 324 321 323 334 334 325 326 317 311 312 313 322 324 327 325 322 317 318 320 324 326 327 329 335 336 334 334 333 330 334 334
343 343 342 339 339 340 340 335 336 336 329 321 321 320 332 337 337 329 328 316 312 315 313 321 322 324 321 316 318 318 319 323 326 331 334 335 337 333 333 333 334 335 334
344 343 342 340 341 339 336 339 337 334 324 320 322 329 336 337 336 333 327 316 313 315 316 320 320 318 316 318 318 318 317 317 320 333 334 334 337 332 329 333 333 333 332
343 343 337 341 341 341 339 338 332 323 320 322 325 328 333 336 335 333 327 317 315 314 314 315 316 316 317 318 318 318 318 318 321 330 333 332 333 325 321 321 322 326 325
342 343 340 339 343 339 336 336 326 320 318 322 328 332 332 336 337 332 325 318 315 316 316 315 316 317 318 319 320 320 319 319 324 319 324 329 318 317 314 312 310 308 308
342 345 340 341 343 337 338 332 325 318 315 317 339 335 329 337 333 323 323 320 316 317 317 317 317 318 319 320 320 321 321 320 323 320 321 328 317 315 314 312 309 307 306
342 346 343 343 339 336 338 331 329 320 313 313 321 336 338 337 333 321 321 320 317 316 317 318 318 318 319 319 320 320 320 320 325 319 319 329 319 318 318 316 312 308 307
345 345 345 342 338 339 337 335 333 325 315 312 313 315 318 318 319 321 322 320 318 316 317 318 318 318 318 319 319 319 320 320 324 318 323 323 319 319 319 319 318 313 309
344 343 341 342 342 342 339 336 334 329 320 313 312 313 314 318 316 318 320 320 319 316 316 318 319 319 319 318 319 319 319 321 321 320 322 319 318 319 319 319 319 319 315
344 340 340 340 342 341 339 336 335 332 326 319 314 313 319 314 314 314 316 318 320 318 316 318 319 319 319 319 319 319 319 319 320 320 322 319 319 319 319 319 319 319 319
343 342 339 338 340 340 338 338 337 335 332 325 321 320 318 315 314 314 316 318 319 317 315 317 318 319 320 320 320 319 319 319 320 320 320 319 319 319 319 318 318 319 319
340 339 338 338 338 338 339 337 338 336 334 332 327 325 323 322 320 315 315 315 316 316 316 316 319 319 319 319 319 320 320 320 320 320 320 319 320 320 319 319 318 318 319
341 338 339 338 337 338 338 338 337 337 333 333 328 324 323 321 322 324 322 317 316 316 316 323 327 327 327 326 323 323 323 323 324 325 323 323 325 325 322 319 318 318 318
340 340 340 339 338 338 339 337 336 336 336 330 327 327 325 322 321 323 328 326 324 324 326 328 329 329 330 330 329 329 329 329 329 329 329 329 328 328 327 323 320 319 320
336 337 339 338 338 337 335 335 336 335 332 330 331 330 328 328 326 327 330 332 332 332 331 331 331 331 331 330 330 330 330 330 330 330 330 330 330 330 329 328 325 322 319
334 335 337 339 338 337 337 336 337 336 335 334 334 334 333 332 332 333 333 334 334 333 333 333 332 332 332 332 332 333 332 331 330 330 330 330 330 330 330 329 329 326 322
332 334 337 339 339 339 338 338 338 337 336 336 336 336 335 335 335 334 334 334 334 334 334 334 334 334 334 335 334 334 333 332 330 331 330 330 329 329 329 329 329 328 326
334 334 335 337 338 339 339 339 339 338 338 337 336 336 336 336 336 336 336 335 335 335 335 335 335 335 334 334 334 332 331 331 330 330 329 328 329 328 326 328 328 328 327
329 332 334 334 333 335 337 337 337 336 336 336 336 336 335 335 337 337 336 336 335 334 334 335 335 334 333 332 332 331 332 330 329 328 327 325 325 325 325 325 326 326 326
318 318 321 327 330 332 334 334 334 333 335 335 335 337 335 335 337 337 336 335 335 335 334 334 335 335 335 334 334 333 332 329 328 326 325 325 324 323 322 323 325 323 323
319 318 318 318 319 323 323 324 327 330 331 331 332 335 336 337 336 335 334 332 331 331 330 329 330 332 333 333 332 332 329 327 325 326 325 324 323 323 323 322 322 322 322
318 318 318 318 317 317 318 320 322 325 325 325 329 330 332 332 330 328 326 325 325 324 323 321 320 320 321 328 332 330 331 330 328 325 324 323 323 322 321 321 321 320 320
317 317 317 317 316 316 317 318 318 318 318 318 318 318 318 317 317 317 317 317 316 316 316 315 314 314 315 317 319 327 329 329 327 325 323 322 321 320 320 320 318 318 317
317 316 316 315 316 316 316 316 316 316 315 315 315 314 314 313 313 313 313 313 313 312 312 312 312 312 312 313 315 325 327 326 326 324 323 322 320 319 318 317 315 314 316

GFSSE_850_thetae_069.txt.gz
Theta_e
347 340 336 335 335 336 337 340 340 342 339 337 334 327 319 334 336 328 323 323 323 333 339 336 334 333 331 326 321 315 318 325 319 317 320 327 329 324 325 331 332 332 331
346 340 339 337 338 337 339 340 340 339 337 335 332 319 327 337 330 321 315 313 315 322 332 329 327 328 325 320 316 320 325 327 325 329 336 336 335 333 330 327 334 334 332
346 343 341 339 340 339 339 340 339 336 332 331 322 322 336 332 324 324 314 312 312 317 332 325 324 323 319 316 318 321 323 325 329 333 336 336 334 333 331 333 335 335 331
345 344 343 339 339 339 340 338 335 332 323 321 321 331 337 335 328 324 313 314 314 315 322 321 322 319 316 318 318 319 322 328 331 335 335 336 334 333 334 335 335 333 331
344 344 344 338 339 341 339 335 334 328 320 321 324 335 339 336 331 325 315 314 315 318 321 321 318 316 318 317 317 316 316 324 334 335 335 335 333 324 325 325 329 328 325
344 344 341 340 342 338 336 336 333 322 320 322 333 337 338 336 334 327 317 314 314 316 317 316 316 317 318 318 318 318 318 323 331 334 334 331 317 315 315 313 311 310 310
343 346 340 342 341 338 339 334 325 319 320 324 330 333 336 337 336 329 319 316 316 315 315 316 317 318 319 319 319 319 319 322 329 331 332 329 315 314 313 311 309 307 307
343 344 341 342 342 339 337 333 324 317 319 329 332 331 338 338 336 324 320 316 317 317 317 317 318 318 319 319 320 320 320 322 329 330 332 322 317 318 317 314 311 309 307
343 343 343 342 342 338 339 332 328 315 316 328 337 333 336 338 333 326 321 318 316 317 318 318 318 318 318 319 319 320 320 321 329 326 329 332 319 319 319 319 317 313 309
343 342 343 343 341 337 339 333 332 318 314 317 324 330 330 325 321 320 320 319 317 317 317 318 318 318 319 319 319 319 320 322 329 327 329 321 318 319 319 319 320 319 315
342 342 343 342 342 341 340 335 333 322 314 314 317 319 319 331 320 321 321 320 318 317 317 318 318 319 319 318 319 319 319 327 328 328 328 321 319 319 319 319 319 319 320
343 343 342 341 341 341 340 336 336 329 321 315 314 314 330 333 334 330 319 319 319 318 316 317 318 319 319 324 322 319 321 326 326 325 325 320 319 319 319 319 318 318 319
342 342 340 340 341 341 340 339 338 337 336 332 328 328 329 328 320 314 316 316 318 319 317 316 317 319 330 323 322 322 322 320 323 325 323 320 319 319 319 319 318 318 318
344 341 342 344 342 342 339 340 339 338 337 336 333 332 331 327 324 327 328 327 321 328 325 328 330 331 330 324 325 325 324 321 322 323 323 322 321 322 324 321 320 318 318
341 342 340 338 341 342 340 339 340 339 338 338 337 335 333 332 330 328 327 327 328 327 326 328 329 332 332 332 331 329 328 327 326 325 326 327 327 326 327 326 322 321 320
342 343 341 341 341 341 341 340 339 338 339 338 338 336 334 333 331 329 331 329 326 324 326 328 332 333 334 334 333 333 332 331 330 330 329 329 329 329 329 328 327 325 322
340 342 342 341 340 341 343 341 340 338 338 338 337 337 334 329 327 326 330 334 333 332 331 332 333 333 334 334 334 333 333 333 332 332 332 330 329 329 330 330 329 328 327
341 341 342 342 342 340 339 339 338 338 337 338 338 339 338 336 331 331 331 333 335 336 335 335 335 335 335 334 334 334 334 333 333 333 332 332 331 330 329 328 329 329 329
339 340 335 339 339 339 340 340 339 339 340 340 339 339 339 337 335 333 335 335 336 336 336 336 335 336 335 335 335 334 334 334 334 333 333 332 332 331 328 328 327 327 328
337 339 339 337 338 339 338 338 340 342 341 339 340 339 339 338 337 336 336 336 337 337 337 337 337 336 336 336 334 334 334 333 333 333 332 331 331 330 329 325 325 326 327
324 335 339 339 337 339 339 339 339 339 339 338 339 339 338 338 338 336 336 337 339 337 336 338 336 336 334 334 333 332 332 332 332 329 328 327 329 327 324 323 323 324 325
318 323 331 337 337 335 338 338 339 339 339 340 338 338 338 337 335 334 335 336 337 336 335 336 338 334 335 336 334 332 330 328 328 328 328 326 324 325 323 322 322 323 323
318 318 318 320 326 333 333 338 337 335 331 333 336 334 334 335 336 336 336 336 335 335 338 337 337 337 331 332 329 330 328 328 327 326 326 325 324 324 323 322 322 322 321
320 318 319 318 318 318 321 325 327 329 331 334 332 330 325 329 331 332 332 331 329 327 325 324 322 322 322 325 325 325 325 326 327 327 326 324 323 323 322 322 321 319 319
319 318 318 318 318 318 317 317 320 322 325 326 323 321 320 319 319 319 318 317 317 316 316 315 315 314 314 315 321 323 323 324 322 325 326 323 322 320 321 322 319 318 317
318 319 317 317 317 317 316 316 317 318 317 317 316 316 315 315 314 314 313 313 313 313 313 313 312 312 312 312 312 319 323 322 323 324 323 323 323 320 320 319 317 317 315

GFSSE_850_thetae_072.txt.gz
Theta_e
348 333 333 337 337 337 337 340 340 341 338 335 326 322 336 334 320 323 324 328 341 340 337 333 330 327 319 315 317 325 320 319 333 336 335 333 329 324 327 334 332 331 322
338 333 333 334 335 337 339 341 339 337 333 331 320 332 336 327 319 314 313 318 330 336 336 331 325 320 316 317 322 324 326 331 335 334 333 333 331 330 333 335 334 332 326
334 334 334 336 337 339 340 339 336 330 328 322 327 336 332 323 321 312 312 312 330 333 332 322 321 316 317 318 321 324 329 334 335 334 333 331 331 334 336 335 334 329 328
334 337 337 339 339 339 339 337 331 321 321 322 334 337 330 325 316 313 314 313 322 323 320 320 317 317 317 317 319 324 330 334 335 335 333 326 330 330 328 325 326 328 328
337 339 340 340 339 340 338 333 325 320 320 326 336 338 334 327 319 314 315 315 319 319 319 316 316 317 317 316 316 320 332 335 335 331 329 320 316 316 315 312 311 311 312
342 343 338 338 341 340 334 330 325 320 322 331 336 338 335 328 323 315 314 316 317 317 316 316 317 317 317 318 318 319 323 329 334 333 327 316 314 313 311 310 309 308 307
345 345 339 341 341 336 336 330 320 320 323 333 336 338 338 333 326 318 316 315 315 316 316 317 318 318 318 319 319 318 321 323 326 330 324 317 317 317 315 313 311 309 308
344 344 339 342 338 338 336 325 319 320 324 332 333 336 336 332 323 319 316 317 316 316 317 317 318 318 318 319 319 319 321 327 328 326 326 322 319 319 319 318 316 312 309
345 342 341 339 340 337 336 326 318 318 325 327 331 338 337 332 320 321 318 316 317 318 318 318 318 318 318 319 319 320 320 325 323 324 327 322 319 319 319 320 320 318 313
344 341 341 340 340 337 335 330 318 317 326 333 328 330 335 323 319 319 319 318 317 317 318 318 318 319 319 319 319 319 320 324 325 326 327 323 319 319 319 319 319 320 319
342 341 341 342 340 337 336 330 327 315 318 328 330 326 323 320 319 320 320 319 318 317 317 318 318 319 319 319 319 319 319 322 328 327 325 323 319 319 319 318 318 318 319
341 341 343 341 340 338 336 333 330 320 314 316 319 318 331 333 324 321 320 319 319 318 317 317 318 318 319 320 320 320 321 324 324 323 322 321 319 319 319 319 318 318 318
339 341 342 340 339 339 338 336 333 330 322 322 319 322 331 332 331 324 316 316 317 318 318 316 317 319 320 320 321 320 321 320 320 324 322 321 320 320 322 323 322 319 318
339 340 340 340 339 338 339 338 338 337 337 334 329 328 329 328 324 320 320 320 318 318 319 319 319 326 327 325 326 324 322 323 323 322 323 324 325 325 325 326 326 324 321
342 342 338 338 341 339 339 337 339 338 338 336 335 331 332 330 329 324 325 326 322 322 324 324 323 323 330 331 331 330 329 329 328 327 327 327 328 328 328 328 328 327 326
343 342 342 342 340 341 339 338 336 336 338 338 338 335 333 333 330 329 328 326 326 323 320 321 324 331 332 333 333 333 332 332 331 331 330 329 328 327 328 329 329 328 328
340 340 340 338 336 339 339 339 338 339 338 338 338 337 334 330 331 329 326 332 331 329 329 329 330 331 332 332 332 331 332 332 332 332 332 332 330 328 328 328 328 329 329
338 341 340 339 339 339 338 339 337 338 338 338 338 335 337 333 329 328 327 329 332 335 334 333 333 333 333 333 333 333 334 334 333 333 333 332 332 332 330 328 327 327 328
340 341 340 340 340 339 340 338 337 336 337 335 337 338 339 337 335 333 332 332 333 334 335 335 334 334 335 334 333 333 333 332 332 331 333 333 333 332 331 331 328 326 325
337 341 338 339 337 339 339 338 337 337 337 338 339 338 339 338 337 336 335 336 337 335 335 335 334 334 333 333 333 333 333 332 333 333 331 331 330 330 329 329 326 324 324
333 339 339 338 335 336 338 336 336 338 337 338 337 338 338 338 337 338 336 336 336 336 336 335 334 333 332 334 334 332 332 331 330 330 331 331 328 327 328 324 323 322 322
326 332 335 339 336 335 339 339 338 337 337 337 338 337 338 337 338 337 337 335 337 336 338 335 333 333 332 332 331 330 328 327 326 326 327 331 328 326 324 323 322 322 322
323 323 328 335 338 335 336 338 338 338 339 337 338 338 334 337 338 336 335 334 336 338 338 335 335 331 331 330 330 329 328 327 327 326 326 327 326 325 323 322 322 322 321
322 319 320 321 328 332 330 332 331 331 334 335 334 334 334 329 330 333 333 332 332 332 329 325 322 320 320 323 325 325 327 327 328 326 324 326 325 324 322 322 321 319 319
320 319 318 318 318 318 320 325 324 326 330 329 333 334 332 327 325 322 321 320 318 317 316 315 314 314 314 314 314 314 319 324 323 324 325 320 323 321 322 320 320 319 318
319 319 318 317 317 318 317 317 317 319 319 322 326 326 319 316 315 315 314 314 313 313 313 312 313 312 313 313 312 312 317 321 321 322 321 322 323 323 322 320 318 318 316

GFSSE_850_thetae_075.txt.gz
Theta_e
346 332 337 337 337 337 338 339 338 336 332 321 333 334 326 325 326 336 342 341 340 338 333 324 319 314 317 323 318 330 334 333 332 332 331 327 329 334 334 332 328 321 316
343 332 334 336 336 339 340 338 337 333 326 324 335 336 318 315 314 319 327 338 339 338 329 319 315 316 320 323 326 332 333 333 331 330 331 330 334 335 335 330 326 327 327
339 332 333 334 336 338 340 337 333 330 322 332 336 325 320 314 312 311 318 333 336 325 318 316 316 317 320 325 331 334 333 334 331 327 331 334 336 334 328 327 323 328 330
331 332 333 335 337 338 338 332 323 322 327 337 335 323 320 313 313 313 315 333 323 318 317 316 316 317 320 325 331 334 333 333 332 331 321 317 315 315 313 312 312 313 316
332 333 335 337 337 337 334 326 320 321 330 337 332 325 319 314 314 313 316 317 317 317 316 317 317 316 316 323 331 334 333 330 328 322 316 314 313 312 311 310 309 308 308
336 338 338 338 339 336 330 322 320 324 332 336 334 329 321 316 314 315 317 317 317 316 317 317 317 317 318 318 326 328 329 326 323 320 316 316 316 315 313 311 310 309 308
338 340 338 339 339 334 328 323 321 325 332 335 336 329 323 318 315 315 316 316 316 316 317 318 318 318 319 319 319 322 322 323 322 323 320 319 319 319 318 317 314 311 309
343 338 338 340 338 334 328 319 321 325 332 335 338 334 322 319 317 317 316 316 316 317 318 318 318 318 319 319 319 321 324 324 321 324 323 319 319 319 319 320 319 316 313
346 339 340 340 336 334 325 319 320 324 331 333 337 338 324 319 318 317 317 318 317 318 318 318 318 318 319 319 319 320 321 323 321 322 323 320 319 319 319 319 319 320 319
345 341 341 339 337 333 325 319 318 324 326 329 336 337 323 320 318 318 318 318 318 318 318 318 319 319 319 319 319 319 320 323 323 323 322 322 319 319 318 318 318 318 319
344 339 339 338 337 333 327 321 317 324 326 327 333 336 325 321 319 319 319 318 318 318 318 318 318 319 318 319 319 319 319 322 322 322 322 321 320 319 318 319 319 318 318
342 339 339 340 339 337 332 327 318 316 323 327 327 325 322 324 321 320 319 319 319 318 317 317 318 318 318 319 319 319 320 320 320 321 321 321 320 320 320 322 322 320 318
341 340 340 338 337 335 332 331 327 319 314 316 318 319 328 329 326 322 319 316 317 318 318 317 317 318 319 320 319 319 319 319 319 320 321 322 323 323 324 326 326 325 323
340 337 342 338 338 337 335 334 334 331 325 323 320 323 329 329 329 322 317 319 319 318 318 318 319 320 320 324 326 325 325 325 325 325 325 326 326 327 328 327 327 327 326
338 338 339 339 338 337 336 337 336 337 336 333 331 327 326 328 325 323 322 321 321 319 319 319 319 321 323 328 329 330 330 329 329 329 328 328 328 327 327 328 329 328 328
337 333 331 338 338 339 337 337 338 337 337 337 336 333 329 329 328 326 324 324 324 323 322 320 321 324 329 331 332 333 332 330 330 330 330 329 329 329 329 329 328 329 329
338 338 339 338 337 340 338 338 338 338 337 337 337 336 336 331 330 328 326 326 326 328 326 326 327 329 330 331 331 331 331 332 333 332 332 332 331 331 331 331 330 328 327
337 338 336 339 341 339 338 338 337 336 337 337 337 337 337 334 329 328 325 325 329 331 333 332 332 332 332 332 332 332 333 332 332 331 331 332 333 332 331 331 330 329 327
338 338 339 339 338 337 336 338 337 338 337 336 337 337 334 336 334 330 329 330 331 332 334 335 334 334 333 333 332 332 332 332 332 331 332 332 331 330 328 328 327 328 326
335 339 339 339 339 338 337 338 337 337 336 336 335 334 337 337 337 335 334 334 335 334 334 334 334 333 333 332 331 331 330 332 332 332 332 331 330 330 329 328 328 328 323
334 338 338 338 338 339 338 338 337 335 335 335 336 337 337 337 336 336 336 335 336 335 335 334 333 332 332 332 331 329 330 327 328 326 326 326 331 330 329 327 328 322 321
328 332 333 334 334 335 335 335 335 335 335 335 336 336 336 337 336 336 336 336 336 335 335 334 333 333 332 331 329 329 327 326 325 326 325 325 328 331 328 326 323 321 321
324 327 331 331 334 333 333 334 334 336 336 337 336 337 337 337 337 335 336 336 336 338 336 333 333 332 331 331 329 328 328 327 326 326 325 324 329 328 326 323 322 322 320
323 323 326 333 333 332 335 332 331 331 331 331 329 333 334 333 333 331 329 333 334 337 336 335 331 327 326 322 319 321 324 328 325 324 323 324 324 324 323 323 320 321 318
322 320 321 324 333 333 331 330 330 328 331 332 334 334 334 333 332 327 327 329 328 323 319 317 315 314 314 314 313 313 314 317 319 321 322 321 322 323 323 323 322 320 319
320 318 318 318 319 326 325 326 324 324 324 327 328 323 322 325 327 320 316 315 314 314 313 313 312 312 313 313 312 312 312 313 315 319 319 319 319 320 322 322 321 320 318

GFSSE_850_thetae_078.txt.gz
Theta_e
338 340 336 336 335 336 336 336 336 330 324 333 323 330 341 341 342 342 341 340 337 334 322 315 314 320 317 325 332 332 332 331 329 327 331 335 334 332 327 325 326 326 322
335 339 336 336 335 337 339 337 334 324 331 337 328 319 327 336 341 341 340 340 337 329 315 315 320 320 322 328 330 330 329 329 328 330 335 337 335 330 323 322 329 333 333
333 337 336 336 339 341 337 333 329 322 334 340 328 316 313 317 324 335 338 338 331 317 315 316 320 323 325 330 332 333 328 325 325 330 329 324 319 316 314 316 318 322 332
332 337 337 336 338 339 334 328 325 327 334 334 320 316 312 311 312 320 329 328 316 315 316 317 320 324 326 329 330 331 329 325 319 317 315 313 313 312 310 310 309 309 313
332 336 336 336 337 337 327 321 323 332 339 327 320 314 313 312 312 313 315 315 315 316 316 316 318 322 325 328 329 328 326 326 320 316 316 315 315 313 312 311 310 309 308
333 335 337 338 338 333 322 320 325 334 336 327 321 315 314 314 315 316 316 315 316 317 317 317 317 318 322 325 325 325 322 323 321 318 318 319 319 318 316 314 312 310 309
333 336 338 338 337 331 322 320 327 331 335 331 321 317 315 315 316 316 316 316 317 318 318 318 318 318 319 320 321 322 321 322 322 322 319 319 319 319 320 319 317 314 311
336 338 339 339 336 329 324 321 327 333 336 336 325 320 316 315 316 316 317 317 318 318 318 318 319 319 319 319 320 322 323 321 321 322 320 319 319 318 319 319 319 319 316
339 339 339 340 335 329 320 321 326 335 338 339 334 323 318 316 316 316 317 317 318 318 318 318 318 319 319 319 320 321 322 321 321 321 322 321 319 318 318 318 318 318 319
340 338 341 340 335 330 320 320 325 333 337 340 337 328 320 318 317 317 318 318 318 318 318 318 319 319 319 319 319 319 321 322 321 321 321 321 320 318 318 319 318 318 318
343 340 340 338 337 331 322 319 323 330 330 334 338 327 320 320 318 318 317 317 318 318 318 318 318 318 318 318 318 319 319 321 321 320 321 321 320 320 320 321 322 321 319
341 341 340 338 337 334 326 317 322 324 327 329 335 327 321 320 319 319 319 318 318 317 317 318 318 318 318 319 320 319 319 320 319 319 321 322 322 323 324 324 325 325 323
338 338 339 337 337 336 331 325 317 325 326 326 329 326 321 322 321 321 320 319 319 319 318 316 316 317 319 321 321 321 320 320 321 321 322 323 324 325 326 327 327 326 326
335 339 337 338 337 336 334 332 322 317 318 322 320 321 325 326 325 323 320 317 317 317 319 318 320 320 322 323 326 327 328 327 327 327 326 326 327 327 327 327 327 327 327
328 330 338 337 338 336 335 333 334 331 325 319 318 319 325 326 325 322 321 320 321 319 319 320 320 321 322 326 328 330 331 330 329 329 328 328 328 329 329 329 328 328 328
329 334 332 337 338 337 333 332 335 336 336 335 332 327 324 325 326 325 324 322 322 322 322 321 321 322 327 329 330 331 331 330 330 331 331 331 331 331 331 331 331 330 328
338 335 330 329 336 339 338 337 336 337 337 336 336 336 334 329 328 328 327 325 324 325 326 325 324 326 328 330 330 331 331 331 331 331 331 331 331 332 332 332 329 330 328
338 337 335 336 333 333 337 338 337 337 337 336 336 335 335 336 334 330 328 326 325 329 331 331 331 331 331 332 331 331 332 331 331 331 330 330 330 331 331 328 327 327 326
336 337 336 335 328 327 328 335 337 335 337 335 336 336 335 336 335 332 329 327 326 329 332 333 334 334 333 332 332 331 331 331 331 331 331 331 331 332 332 330 327 326 327
337 336 337 336 334 331 335 336 337 336 335 336 336 336 335 334 334 336 333 332 331 333 333 333 333 332 332 332 331 330 330 329 331 328 328 328 331 332 331 329 328 327 328
336 336 336 338 339 338 338 337 336 337 336 335 335 335 334 335 334 336 334 334 334 334 334 333 332 333 331 331 330 329 328 328 327 325 324 325 325 327 328 328 326 327 324
330 332 333 335 337 338 338 337 337 337 336 335 334 334 335 335 336 335 335 335 335 334 334 333 333 332 331 331 330 329 327 326 324 323 324 325 325 326 326 324 326 326 322
325 326 331 330 331 333 335 336 336 335 335 335 334 334 334 336 336 336 335 335 334 335 335 333 332 332 330 330 330 329 327 326 326 324 326 326 325 325 325 326 323 322 320
324 325 326 328 331 332 332 332 333 334 334 334 333 333 334 335 334 335 335 334 333 329 332 332 332 331 331 331 325 325 325 326 327 323 322 322 323 324 322 323 322 321 322
323 323 325 326 328 330 331 332 331 331 331 331 330 330 329 328 328 330 329 328 328 326 326 326 323 320 318 315 314 313 313 315 318 323 322 317 319 321 322 323 321 321 321
322 322 321 323 325 329 329 330 330 329 329 328 327 327 326 324 324 323 322 322 319 317 315 314 313 313 312 312 312 312 312 313 313 314 319 319 317 317 318 319 320 321 320

GFSSE_850_thetae_081.txt.gz
Theta_e
340 337 337 335 336 336 335 335 328 327 320 332 337 338 339 339 339 340 340 337 335 323 314 314 317 317 329 331 331 328 326 326 331 335 335 334 324 320 322 326 330 330 322
338 337 337 335 335 336 335 334 325 330 328 325 340 340 341 342 341 340 338 337 329 315 314 317 317 324 328 328 327 325 325 327 334 335 330 323 315 315 330 332 327 333 330
338 336 336 335 335 337 337 331 323 334 338 319 329 340 342 341 341 341 339 336 317 314 317 318 320 324 327 327 320 320 321 324 324 318 316 314 312 311 310 310 311 326 333
339 336 337 335 338 340 334 327 325 334 337 321 315 321 328 337 341 340 335 327 314 316 317 319 322 324 325 325 323 321 319 317 315 314 314 313 313 312 311 310 309 309 318
338 336 336 339 340 338 332 326 329 336 334 318 314 312 313 319 326 327 325 315 315 316 317 319 321 323 323 322 321 321 320 318 316 317 318 318 317 317 314 313 311 310 309
339 338 337 338 338 334 326 325 331 336 323 318 313 313 312 311 313 314 315 315 316 317 317 319 320 322 323 321 321 321 321 320 319 319 319 319 319 320 319 317 315 312 310
339 338 336 337 337 331 322 324 337 336 324 318 314 314 314 315 315 315 316 317 317 317 318 318 319 321 321 321 321 321 321 322 323 320 319 319 318 318 318 319 319 317 313
338 337 338 338 336 328 321 325 336 335 332 322 316 315 316 316 316 316 317 318 318 318 318 318 319 319 319 320 321 322 322 320 322 321 321 319 318 318 318 318 318 318 318
336 337 338 338 335 327 321 325 335 337 334 329 322 315 316 316 317 317 317 318 318 318 319 319 319 319 319 319 320 321 321 321 322 322 321 320 319 318 318 319 318 318 318
335 337 339 339 334 328 321 324 335 338 337 335 330 320 316 316 316 317 317 318 318 318 318 318 319 319 319 319 319 320 321 322 322 321 321 320 320 320 320 322 322 321 319
338 337 340 339 334 329 320 322 332 338 339 338 335 324 318 317 317 317 317 318 318 318 318 318 318 318 318 318 318 319 320 321 321 320 321 321 321 322 323 324 325 324 323
340 338 338 338 335 330 322 322 328 334 338 338 335 324 321 319 318 317 317 317 317 318 318 318 318 318 318 319 320 319 319 320 320 320 321 322 323 324 325 326 326 326 325
340 340 338 339 335 334 326 319 324 331 331 333 337 328 322 320 320 320 320 319 318 317 317 316 317 317 318 320 321 321 321 321 322 324 323 323 325 326 326 326 327 327 326
333 336 337 337 337 334 332 327 321 327 327 329 333 332 324 323 322 322 322 319 318 318 319 317 318 320 322 322 325 327 328 328 328 327 327 327 327 328 328 328 328 328 327
331 327 327 333 333 336 333 331 327 318 327 328 327 323 323 327 328 325 321 318 321 319 320 320 320 320 321 323 327 329 330 329 329 328 328 329 330 330 330 330 331 330 328
331 326 326 328 333 335 336 331 330 326 319 318 318 318 319 323 325 325 324 323 323 322 322 322 322 322 324 327 330 330 331 330 330 331 331 331 331 331 331 332 331 329 328
328 327 326 327 326 331 337 335 333 334 335 335 332 330 328 326 325 327 327 325 323 324 324 324 324 324 326 328 329 330 331 331 331 331 331 331 329 329 330 330 329 328 325
329 329 328 328 330 328 329 336 334 336 335 336 335 335 335 334 334 332 329 327 326 325 328 328 329 329 330 331 331 331 332 330 330 330 330 330 329 330 329 331 329 328 326
331 331 332 332 330 328 327 326 326 326 335 336 336 336 335 334 335 335 333 329 328 326 329 331 332 333 332 331 331 330 330 330 330 330 330 329 329 331 331 331 330 328 326
337 337 336 333 331 329 327 330 327 326 333 337 336 334 334 334 334 333 335 331 329 328 329 332 331 332 331 331 330 330 330 329 329 328 326 325 325 325 329 330 329 328 328
334 335 335 335 334 332 331 331 327 328 336 335 335 334 334 335 334 332 335 334 332 332 332 332 332 331 331 330 330 329 328 328 327 325 322 322 322 324 325 326 325 326 327
334 334 335 334 334 336 332 329 330 335 335 335 335 334 334 334 333 334 334 333 333 334 333 333 332 331 330 330 329 329 327 326 325 323 322 321 322 324 325 326 324 326 326
330 333 334 333 334 334 335 336 336 335 334 334 334 335 334 334 334 334 334 334 333 333 333 333 333 332 330 330 329 328 327 326 325 325 323 323 324 324 323 325 325 326 323
323 327 329 332 331 331 332 333 332 333 332 332 333 333 333 333 333 331 333 333 330 328 327 329 327 326 326 330 327 327 326 325 325 322 321 321 322 321 323 322 323 323 322
321 323 325 326 327 329 330 330 331 331 331 330 331 330 330 331 331 331 328 325 324 324 324 324 324 325 324 321 317 314 313 313 314 318 319 313 315 317 320 321 320 321 320
321 322 323 326 326 326 327 328 331 330 330 331 330 329 327 327 328 327 324 323 321 323 324 324 323 317 313 313 312 312 312 312 313 314 314 315 314 316 317 317 317 319 318

GFSSE_850_thetae_084.txt.gz
Theta_e
339 338 338 337 334 334 334 331 323 320 333 333 330 328 331 333 337 341 339 336 327 315 313 315 320 327 331 327 324 324 329 334 333 328 323 317 321 333 331 333 333 325 322
337 337 337 335 334 335 334 330 325 320 333 334 334 335 336 340 341 339 336 333 318 313 316 316 323 325 326 324 323 325 327 325 322 317 314 313 313 315 317 323 332 328 327
337 337 337 335 335 335 334 327 329 322 336 338 338 339 340 340 340 337 336 325 313 315 316 318 320 321 321 321 321 320 318 315 314 314 313 313 312 311 310 310 315 330 333
337 337 336 335 335 337 333 324 334 335 324 339 341 342 341 341 341 338 333 317 314 317 318 319 320 320 320 319 318 317 317 316 317 316 316 316 315 314 312 311 310 310 318
337 337 336 335 338 338 329 323 336 337 321 317 334 341 341 341 340 335 327 314 316 318 319 320 320 320 320 320 320 319 318 318 319 319 319 319 319 318 316 314 313 311 310
337 337 335 337 340 335 327 324 335 336 321 317 314 320 331 335 332 326 315 315 317 318 319 320 321 321 321 322 322 321 320 320 319 319 319 318 318 318 318 319 317 315 312
337 336 338 340 338 332 325 327 335 330 319 314 312 312 313 316 314 315 315 316 317 318 319 321 322 322 321 322 322 322 321 322 321 319 319 318 318 318 318 318 318 318 316
337 337 338 338 335 326 323 330 338 330 320 314 313 313 319 315 315 315 316 317 317 318 319 320 321 322 321 322 322 322 321 321 321 321 320 319 318 318 318 319 318 318 318
338 336 337 338 334 323 323 336 337 329 323 316 315 316 317 316 316 317 317 317 317 318 318 319 319 319 320 320 321 322 321 321 321 321 321 320 319 319 320 322 322 320 319
337 337 338 337 332 322 322 335 338 333 331 324 315 316 317 316 316 317 318 318 318 318 318 319 319 319 319 319 320 321 321 321 321 320 320 320 321 322 322 324 324 323 322
336 337 338 336 332 324 321 332 337 335 335 333 326 316 315 316 317 317 317 318 318 318 318 318 319 319 318 318 318 318 319 320 320 320 321 322 323 324 325 325 325 325 324
336 336 339 338 333 325 320 327 336 336 336 336 334 322 317 316 316 317 317 317 318 318 318 318 318 318 318 319 319 319 319 320 319 320 321 322 324 324 325 325 325 326 325
338 337 338 338 334 328 320 321 330 336 337 340 335 327 321 319 317 317 317 317 317 317 317 317 318 318 318 319 320 320 321 322 323 325 324 324 325 326 326 326 327 327 327
334 336 335 337 335 334 327 319 323 332 334 336 337 332 325 321 320 320 320 320 319 319 318 317 316 317 320 322 324 326 328 328 328 327 327 327 328 328 329 329 329 330 328
328 332 332 332 333 335 335 331 321 323 327 329 330 335 331 324 323 323 323 322 319 318 318 319 319 321 322 323 326 327 329 329 329 328 328 330 331 331 331 331 331 330 327
326 328 331 332 328 328 334 335 332 326 319 328 328 328 327 324 328 328 325 321 320 322 321 321 321 321 321 324 327 329 329 329 329 329 330 330 330 330 329 329 329 329 327
329 332 331 330 326 326 328 336 334 332 329 320 318 319 319 320 326 326 326 325 323 324 323 323 323 322 323 325 328 330 330 330 331 330 330 330 330 328 328 327 327 329 326
332 331 330 328 326 326 326 328 335 334 332 333 334 332 332 330 329 326 328 327 327 325 324 325 326 327 327 330 331 331 330 330 330 329 329 329 329 328 327 328 328 328 327
331 328 326 327 327 327 327 326 334 330 327 326 329 334 335 335 334 335 335 333 330 328 326 329 331 332 332 331 330 329 329 330 329 329 328 328 327 326 326 326 329 330 329
329 328 328 327 327 326 326 326 326 326 326 326 327 335 335 335 334 333 333 334 333 330 328 329 331 332 330 330 330 329 328 328 328 326 325 326 323 322 323 324 326 329 329
331 329 329 328 328 330 328 328 328 326 326 326 327 335 335 334 333 333 332 333 335 332 330 330 332 332 330 330 329 328 328 328 327 325 323 320 318 318 321 322 324 326 322
334 334 335 333 333 330 326 330 327 327 328 326 327 332 334 334 333 333 333 332 333 333 333 333 331 331 331 330 329 329 328 325 325 324 323 322 319 322 324 324 325 325 324
333 333 333 334 334 332 330 331 331 330 331 329 329 334 334 333 333 333 332 332 332 331 331 330 329 329 330 330 329 327 327 325 326 324 323 322 320 322 320 319 320 322 324
329 333 334 334 333 333 333 332 333 333 332 332 329 329 329 333 333 332 332 331 331 331 329 327 323 323 324 325 326 328 328 327 327 321 316 317 320 320 320 319 320 322 323
322 323 326 331 332 333 332 331 331 331 331 331 332 331 330 327 329 331 329 331 328 327 326 322 322 323 323 324 322 321 318 314 314 315 314 312 313 315 317 317 318 320 321
321 321 322 324 327 326 328 328 329 330 330 330 330 330 330 329 330 329 328 325 324 323 324 324 323 323 324 320 313 312 312 312 312 313 314 313 312 313 313 315 317 317 317

GFSSE_850_thetae_087.txt.gz
Theta_e
339 339 339 339 335 333 332 328 322 324 326 322 326 329 333 336 337 338 338 334 318 313 317 332 338 330 323 323 328 334 329 321 317 314 315 332 329 326 331 329 325 325 323
339 338 340 337 333 333 331 324 322 332 330 329 324 331 334 334 338 340 335 326 313 315 324 335 329 322 321 325 327 323 320 316 314 313 313 312 312 312 315 327 330 332 331
338 339 339 335 334 334 331 323 321 332 334 332 335 336 335 341 340 337 332 315 314 316 327 324 322 320 321 322 320 316 315 315 315 315 314 313 312 311 310 311 314 328 331
337 339 338 335 335 335 331 325 322 332 336 338 336 337 340 340 337 336 323 313 316 318 320 320 318 318 318 318 317 317 317 318 318 318 319 318 316 315 313 312 311 313 323
337 338 336 336 335 335 327 331 326 334 336 339 341 341 341 340 337 333 317 315 317 319 320 320 321 320 320 320 318 318 319 319 319 319 319 319 319 318 317 316 314 312 312
337 337 336 335 337 333 323 336 336 320 336 341 342 341 342 340 336 329 314 317 318 320 321 321 322 322 322 322 321 321 320 319 318 318 318 318 318 318 318 318 317 316 314
337 336 336 337 339 330 322 334 337 323 316 325 335 341 341 338 332 324 315 317 319 321 322 323 323 323 322 322 322 322 323 321 320 319 318 318 318 318 318 318 318 318 317
337 337 337 339 337 327 323 334 336 323 316 313 314 322 328 326 317 314 316 318 319 320 322 322 322 322 321 322 322 321 321 321 321 320 319 319 319 320 321 321 320 319 318
337 336 340 339 334 323 325 334 333 322 315 313 312 315 313 315 315 315 316 317 319 320 321 321 321 320 321 321 321 321 321 321 321 320 320 320 321 321 323 323 323 322 321
337 338 338 337 330 321 327 338 333 324 318 315 316 334 316 315 316 316 317 317 317 318 319 319 319 319 319 320 320 321 321 321 321 320 321 321 323 323 324 324 324 324 323
337 337 338 335 327 321 333 337 334 330 324 317 316 318 316 316 317 317 317 318 318 318 319 319 319 319 319 319 319 319 320 321 320 320 321 322 323 324 325 325 325 325 325
337 338 337 334 326 321 333 336 335 334 330 329 318 316 317 317 317 317 318 318 318 318 318 318 318 318 318 318 319 319 319 320 320 322 321 323 324 324 325 325 326 326 326
336 338 337 335 328 321 326 335 334 336 333 329 330 320 316 316 316 317 317 317 318 318 318 318 318 318 318 318 319 320 320 322 324 325 325 325 325 326 327 328 329 329 328
335 336 338 335 329 321 321 330 336 336 334 332 333 325 320 318 317 317 317 317 317 317 317 317 317 317 317 319 321 324 325 327 327 327 327 327 328 329 330 330 330 330 328
334 333 334 336 332 325 321 321 328 334 335 334 335 332 325 322 320 320 320 321 320 319 319 319 317 317 320 322 322 326 328 329 329 328 327 329 330 330 330 329 329 328 328
331 332 332 333 334 332 324 324 321 321 328 330 330 332 332 328 324 324 325 324 321 320 320 320 320 321 322 322 324 327 329 329 329 328 330 330 330 329 328 328 327 326 328
330 331 329 327 331 332 333 326 324 326 319 320 325 326 326 327 323 327 328 327 324 323 324 322 322 323 322 322 326 328 329 330 330 330 329 329 329 329 328 326 327 327 327
329 328 326 325 325 329 330 332 327 330 328 327 323 322 319 320 319 323 325 325 327 326 324 324 324 324 324 325 329 330 330 330 329 328 328 328 328 327 327 328 326 326 327
328 327 327 330 330 330 328 330 331 332 329 327 330 328 332 333 333 332 331 331 331 330 328 326 327 328 330 331 330 330 329 329 328 328 327 326 326 326 324 322 324 325 325
327 327 329 328 328 328 326 327 327 328 330 330 329 328 327 332 334 334 334 333 334 333 331 328 328 331 332 330 329 329 328 329 329 328 327 326 324 320 318 318 321 323 326
326 326 329 328 328 328 328 326 327 328 327 328 331 328 326 330 335 335 333 332 332 333 333 330 329 331 331 329 328 329 329 328 326 324 326 322 319 319 317 321 322 323 324
330 330 330 328 327 328 326 327 325 325 326 329 331 327 328 329 331 333 334 333 332 332 332 331 330 331 329 329 328 328 327 326 323 323 323 323 321 318 319 322 321 324 326
330 329 329 328 327 327 328 329 328 328 329 327 328 328 329 329 330 332 332 333 333 331 331 331 331 329 328 328 327 326 327 326 326 323 323 322 319 317 317 315 316 318 320
329 329 331 331 329 331 332 330 328 329 329 329 329 325 326 327 326 326 327 331 329 331 330 330 329 326 323 323 323 323 322 325 327 324 317 315 314 314 314 314 316 314 320
329 328 329 331 331 332 331 331 332 332 331 331 330 329 330 330 330 329 327 328 330 328 325 322 323 323 324 324 323 322 325 319 313 314 315 312 312 313 313 313 315 315 317
320 321 322 324 330 331 332 331 330 331 330 330 330 330 330 330 330 329 329 330 329 327 326 324 323 323 322 322 325 323 313 312 312 312 314 313 312 312 312 312 313 314 317

GFSSE_850_thetae_090.txt.gz
Theta_e
343 345 342 338 337 333 332 331 326 321 320 322 330 332 332 338 339 336 337 326 316 328 332 335 330 336 327 334 333 325 320 315 315 323 325 318 322 329 323 326 333 329 326
343 345 342 340 336 333 332 328 321 321 319 324 328 330 335 338 338 339 333 316 314 324 335 333 328 323 327 332 321 317 315 314 313 313 313 312 313 314 318 328 333 326 326
344 345 339 340 334 332 330 322 327 328 331 326 329 330 336 337 339 336 325 313 319 336 338 329 322 324 326 321 316 315 316 315 315 314 317 322 312 312 312 314 323 330 326
344 345 341 338 333 332 328 322 331 332 332 327 331 335 337 340 339 334 315 315 331 336 335 323 321 321 320 317 316 317 318 318 319 319 326 326 316 315 314 313 313 320 331
344 345 343 335 334 332 325 321 331 335 334 336 335 336 342 339 336 323 314 318 335 334 324 320 319 319 318 318 318 319 319 319 319 319 319 320 321 318 317 316 314 313 315
345 346 340 335 335 332 324 321 331 338 337 338 339 341 341 337 335 316 316 319 333 328 320 320 320 321 320 320 320 320 319 318 318 318 319 318 318 318 318 317 317 316 314
344 345 338 336 335 330 325 328 332 336 340 341 341 342 341 336 329 314 317 319 321 322 322 322 322 322 322 322 322 322 321 320 320 318 319 323 319 319 319 319 318 318 317
343 343 339 336 336 326 328 338 322 332 340 342 341 342 341 337 330 315 317 319 322 322 323 323 323 322 322 322 322 321 321 321 323 320 320 323 320 322 322 321 320 319 319
342 341 339 337 335 324 329 339 328 318 320 337 341 341 340 334 321 315 318 320 321 322 323 323 322 321 321 321 321 321 321 321 327 321 322 327 321 323 324 324 323 322 322
341 340 339 340 335 325 330 338 328 318 314 314 321 330 328 319 316 316 318 320 320 321 322 321 320 320 320 320 320 320 320 321 323 321 322 324 323 324 324 324 324 324 324
339 340 340 340 337 333 335 337 327 319 314 313 316 318 315 317 316 316 318 318 320 320 320 319 319 319 319 319 319 319 319 320 320 320 324 322 323 324 325 325 325 325 325
338 339 340 338 334 334 335 336 331 325 321 330 332 325 329 328 328 327 317 317 318 318 319 319 319 319 319 318 318 319 319 320 320 322 322 322 324 324 325 326 327 327 327
337 339 338 336 332 335 338 336 335 332 332 329 329 331 331 330 319 318 318 319 319 319 319 319 319 318 318 319 319 321 320 321 325 324 325 324 324 325 327 328 329 329 328
332 335 337 332 329 334 337 336 335 333 333 333 323 318 318 318 318 318 318 318 318 318 318 318 319 318 318 319 322 326 324 327 329 327 327 325 326 328 330 330 330 329 328
330 332 336 331 323 323 335 337 335 336 333 332 329 319 316 316 316 317 317 317 317 317 317 317 317 317 317 320 323 327 331 331 331 331 330 327 329 330 329 329 328 327 327
326 334 333 332 323 320 325 333 333 334 335 334 333 324 322 321 320 319 319 321 322 322 319 319 319 319 324 324 328 327 330 332 331 331 331 331 330 330 329 328 327 328 327
328 330 333 334 326 321 321 327 331 328 330 331 331 331 329 327 324 323 324 325 325 322 322 322 322 321 322 322 324 329 331 332 332 332 332 331 330 328 327 329 327 325 327
327 329 328 333 333 328 323 321 324 323 325 321 324 325 327 327 325 321 326 326 327 325 324 324 324 323 324 324 326 330 332 332 331 330 329 329 329 329 329 325 323 325 326
327 329 330 330 327 333 333 331 330 327 326 329 322 325 326 326 325 323 323 325 325 328 328 326 325 325 328 327 330 332 331 330 330 330 330 330 330 327 327 323 318 321 322
329 328 328 325 326 329 332 333 333 332 331 332 331 329 328 329 334 333 333 333 333 334 333 331 328 326 329 332 332 331 328 330 331 330 330 329 329 324 320 317 319 321 321
329 329 327 327 328 328 330 328 330 329 332 332 331 331 329 327 328 333 333 332 333 332 332 333 331 328 330 331 330 330 331 330 330 329 328 326 324 321 319 316 321 322 326
328 328 327 328 326 325 328 327 326 327 330 332 332 333 329 327 328 329 330 331 332 332 330 332 331 331 329 330 330 331 329 328 327 323 325 323 321 318 314 314 318 315 319
327 326 328 328 328 328 328 329 329 329 328 329 327 330 329 328 330 329 326 328 330 331 330 331 332 331 330 329 328 328 328 327 326 326 325 324 319 318 314 314 314 314 317
325 326 327 328 329 329 328 328 328 329 330 329 328 328 326 326 326 327 327 326 326 325 326 329 328 329 329 326 324 324 323 322 325 324 321 319 316 315 315 313 313 312 313
326 327 330 325 326 327 328 328 329 329 328 327 329 329 328 329 325 326 328 329 327 327 326 325 327 326 327 324 325 324 323 322 321 325 319 316 314 315 312 312 312 312 313
327 324 326 328 328 330 324 325 330 330 329 328 330 330 330 329 330 329 329 329 327 328 328 328 327 325 324 323 322 322 321 323 323 313 313 315 316 314 312 312 311 312 312

GFSSE_850_thetae_093.txt.gz
Theta_e
346 344 342 340 336 332 331 330 329 327 330 333 336 336 333 339 339 338 331 329 335 338 337 334 335 334 338 333 325 315 314 321 326 317 320 319 319 320 325 333 333 325 325
346 345 342 340 337 333 332 330 328 326 325 329 334 333 331 340 338 338 327 321 333 333 335 334 330 334 332 320 316 315 314 314 314 314 316 314 314 319 327 331 327 325 325
345 345 344 340 338 333 331 328 323 320 321 326 329 329 335 340 337 337 319 317 327 336 334 330 327 334 325 317 315 315 315 315 316 322 326 318 313 314 317 325 333 325 324
345 345 344 340 338 333 330 326 322 324 323 328 328 328 337 338 339 332 314 327 336 336 331 332 329 329 317 316 317 318 318 319 322 329 329 327 315 314 314 315 323 331 333
345 344 346 340 335 332 329 322 329 330 329 330 332 334 338 337 337 321 316 335 337 335 321 322 322 318 317 318 319 319 319 319 324 329 331 328 318 317 316 316 314 318 324
345 343 344 340 334 332 327 322 333 330 328 331 333 337 338 340 334 314 322 335 335 322 320 320 318 318 319 319 319 319 319 320 328 330 327 320 318 318 318 317 316 315 315
343 344 344 338 335 332 324 322 334 333 335 333 336 339 341 338 324 316 334 336 333 319 319 319 320 320 321 321 321 320 320 323 329 330 331 320 320 320 319 319 318 317 317
344 344 344 337 336 332 324 324 334 336 336 338 340 342 340 336 319 318 330 337 324 321 321 321 322 322 321 321 321 321 320 321 330 330 330 320 322 322 322 321 320 320 319
343 343 344 336 337 331 330 325 334 337 340 340 342 341 339 332 317 318 320 331 321 322 323 323 322 322 322 322 321 320 320 322 330 327 330 325 322 323 323 323 323 322 322
343 342 342 338 338 330 333 333 325 337 341 342 343 340 340 334 319 318 320 325 323 324 324 323 322 321 321 321 321 320 320 321 330 324 330 323 323 323 323 324 324 324 324
338 341 341 341 338 335 334 339 328 320 325 341 340 340 339 332 319 318 321 322 323 324 324 323 321 320 320 319 320 319 320 327 327 328 330 323 323 323 324 324 324 325 326
333 326 326 339 338 335 336 338 328 319 316 321 332 336 331 322 327 331 321 321 322 323 322 320 319 319 319 322 319 318 321 326 326 326 328 323 323 324 324 325 327 327 327
323 323 325 338 338 334 336 337 332 327 329 329 329 329 331 331 329 332 319 319 320 319 319 319 319 319 323 326 326 326 326 326 326 327 325 324 324 324 325 327 329 329 328
324 323 324 331 337 334 335 336 332 330 330 332 331 331 331 332 331 331 322 319 321 319 328 325 328 327 322 322 327 328 329 329 330 330 329 326 325 326 329 329 329 329 327
325 324 325 336 334 336 333 335 334 332 332 330 331 331 331 331 330 330 330 328 326 327 327 327 326 326 325 326 328 330 331 332 332 332 331 330 327 329 329 329 328 327 327
326 326 328 334 329 335 336 335 335 335 333 333 330 328 328 327 324 323 323 322 322 321 325 327 327 325 325 329 329 329 330 332 332 332 332 332 331 330 330 329 328 327 326
328 329 332 331 328 333 334 335 336 335 333 333 331 323 324 321 319 318 319 321 328 330 328 328 327 328 328 329 328 329 330 331 332 332 331 331 331 330 329 327 326 327 326
326 326 326 327 326 322 330 336 336 336 337 335 333 328 322 322 321 321 327 329 333 331 328 330 329 330 329 329 327 328 330 332 331 331 330 329 329 330 330 329 327 320 320
329 327 328 328 330 321 327 334 335 336 336 336 337 334 333 329 327 323 322 333 333 330 328 330 330 330 330 329 328 329 332 331 331 329 330 330 330 330 330 324 320 316 317
328 328 328 326 332 325 321 326 328 327 333 332 333 334 333 330 327 324 329 332 332 330 332 332 331 330 330 329 330 331 331 330 330 330 330 330 329 328 322 321 315 322 322
328 327 324 328 330 330 331 327 327 328 328 330 333 333 330 332 332 333 333 333 333 334 334 333 332 331 330 331 331 331 329 329 330 330 329 328 327 324 322 320 315 317 319
329 328 325 326 327 328 330 330 330 333 332 332 331 331 331 327 327 328 330 331 331 331 331 331 332 332 331 331 330 331 331 330 328 326 327 327 325 322 321 321 314 316 313
329 328 327 324 325 328 329 329 329 329 328 331 332 331 332 328 329 329 329 327 326 329 329 329 331 331 332 330 329 330 329 329 327 326 326 326 320 320 321 317 315 314 312
330 330 328 324 325 326 331 330 330 329 328 328 328 329 329 329 327 327 326 326 328 326 327 327 327 326 327 330 329 328 327 325 323 323 323 323 319 316 316 317 316 314 311
326 327 326 328 326 325 328 329 329 328 328 329 329 328 328 326 327 328 327 327 328 328 327 326 326 324 324 326 329 327 324 324 323 322 324 322 317 315 313 314 313 312 313
321 324 325 327 326 327 327 328 328 328 328 329 328 327 327 329 329 328 327 328 326 327 326 326 326 327 327 327 327 325 324 323 323 321 324 318 313 313 314 314 313 312 312

GFSSE_850_thetae_096.txt.gz
Theta_e
346 344 335 333 330 328 326 326 331 334 335 336 335 333 334 337 338 337 328 331 339 337 339 334 338 339 337 317 314 319 324 318 320 320 319 319 322 332 332 328 323 323 325
345 345 337 336 334 330 329 328 327 329 333 334 334 334 332 339 338 334 330 334 340 338 336 331 337 336 318 315 314 315 316 314 316 317 315 318 323 330 328 325 323 324 331
346 345 343 337 336 332 331 330 328 327 326 330 333 334 331 339 337 331 325 336 334 331 329 330 335 320 316 316 315 315 315 322 326 327 320 314 315 322 325 328 332 328 331
345 344 342 340 337 334 331 329 327 324 323 326 329 331 332 339 337 330 318 329 336 329 324 331 330 318 316 317 317 318 320 328 329 328 326 315 315 316 317 324 329 332 328
345 344 344 342 338 334 331 328 322 320 325 325 329 328 336 338 338 322 320 333 334 333 330 326 318 317 318 319 319 319 320 324 326 328 324 318 317 316 316 316 317 318 319
345 343 343 342 339 333 331 326 322 325 329 329 329 329 338 337 334 316 333 337 331 328 322 319 317 318 319 319 319 319 321 325 325 324 320 318 318 318 317 317 316 316 316
346 343 343 341 339 332 330 323 329 329 330 330 331 333 338 339 328 318 336 336 328 323 320 318 318 319 319 319 319 319 322 324 326 328 320 319 320 320 319 319 319 318 318
345 343 343 343 337 333 328 326 334 331 328 331 334 338 339 339 320 334 336 335 322 325 320 319 320 321 321 321 321 320 321 326 327 325 321 321 322 321 321 321 320 320 320
344 343 344 343 337 334 328 322 333 333 331 332 336 339 341 335 321 333 335 334 321 321 321 322 322 322 321 321 320 320 322 329 329 328 328 322 322 322 322 322 322 322 322
342 343 343 342 337 335 327 323 332 336 336 338 338 342 340 332 320 329 336 334 324 323 322 322 322 322 321 321 320 320 320 327 325 325 326 322 322 322 322 322 323 323 324
342 343 345 342 338 336 328 326 333 338 339 340 341 341 338 328 320 321 336 336 323 323 323 322 321 321 320 320 320 319 320 326 327 329 329 324 322 322 322 323 324 325 326
335 338 339 339 338 338 332 334 328 336 341 341 341 340 338 330 318 320 329 332 324 324 323 322 320 319 319 319 318 318 322 325 326 326 327 325 322 323 323 325 326 327 328
333 337 336 333 331 337 337 336 329 323 330 340 340 339 338 331 319 320 323 324 323 323 323 321 319 319 320 324 325 323 325 326 326 327 326 325 324 324 325 326 328 328 327
326 326 325 334 331 328 331 334 335 324 318 328 328 335 331 325 325 323 320 320 321 321 319 319 320 321 322 322 324 326 328 326 328 330 329 329 326 325 327 328 328 327 326
325 326 323 327 331 329 327 336 335 322 319 327 326 326 331 329 328 325 320 319 319 319 321 325 326 327 325 323 325 327 329 331 332 331 332 331 330 327 328 329 328 327 326
328 325 323 321 326 325 326 335 332 325 331 332 327 331 331 332 327 330 325 321 322 324 325 325 323 323 324 324 326 329 330 331 332 331 330 330 330 331 329 327 327 326 327
328 325 324 323 322 323 328 335 331 330 330 332 332 332 331 331 328 329 327 323 323 322 321 323 327 327 326 328 329 329 328 331 331 332 331 330 330 329 329 329 328 327 325
328 327 326 327 323 328 326 333 331 333 333 332 330 330 327 325 323 320 320 320 320 325 324 326 324 324 325 326 326 326 328 330 330 330 331 330 329 329 330 329 327 322 316
329 330 328 329 328 329 328 332 331 331 334 333 328 325 327 323 320 319 320 323 329 330 327 326 327 328 329 329 328 327 329 331 330 331 329 329 329 330 330 325 319 315 316
328 327 328 327 325 326 324 331 331 332 334 331 332 333 329 329 327 326 328 333 332 330 327 327 329 329 329 329 329 329 330 330 330 329 329 329 329 330 323 317 314 313 313
327 329 327 328 325 323 326 329 326 326 330 331 332 333 334 333 331 327 327 330 331 331 332 333 332 331 330 330 329 329 330 329 328 329 329 330 328 320 317 316 315 313 313
324 327 328 327 327 324 323 322 326 328 330 331 332 334 333 331 331 331 332 333 332 332 332 332 332 332 331 331 330 330 331 330 329 330 329 327 323 319 318 317 316 313 312
324 327 328 322 329 328 328 327 327 328 327 332 332 331 330 329 328 328 329 330 329 329 330 332 331 330 329 329 330 330 329 329 328 327 326 327 326 323 318 316 314 314 312
325 328 325 323 328 328 329 329 329 329 328 328 328 329 329 329 328 328 328 327 327 327 327 328 327 326 327 325 326 327 328 328 327 326 326 325 325 323 319 316 315 314 314
328 328 325 325 326 328 328 328 326 326 326 327 328 328 329 329 329 328 327 326 326 327 328 326 326 326 325 324 323 327 328 328 327 325 324 323 322 320 316 314 314 314 312
327 325 328 327 325 325 327 328 327 327 328 326 327 328 328 326 328 327 326 326 325 325 326 326 326 325 324 323 325 326 327 327 324 323 323 322 323 321 314 314 313 312 312

GFSSE_850_thetae_099.txt.gz
Theta_e
345 334 331 328 325 327 329 331 332 334 336 334 332 331 335 336 339 330 324 320 336 338 337 338 338 337 315 315 322 320 322 322 323 319 319 327 331 331 323 323 323 328 330
344 337 332 330 328 325 327 329 335 333 336 334 332 332 336 336 338 328 329 334 338 338 336 338 338 318 314 316 316 314 315 316 316 317 321 325 330 329 322 322 328 333 333
345 339 334 333 331 327 326 326 328 331 333 335 333 332 335 337 336 329 335 340 339 337 334 337 328 315 315 315 315 319 322 323 321 316 315 318 322 325 326 333 329 332 334
345 342 335 334 334 330 329 328 326 326 329 332 333 332 331 337 335 331 337 336 334 331 332 332 317 316 316 316 318 323 325 325 322 319 316 315 317 318 323 327 325 326 329
346 344 340 335 335 333 330 329 327 326 327 327 331 331 334 338 336 324 333 332 331 325 330 324 317 316 318 318 319 323 326 326 324 321 318 317 317 316 316 317 317 319 322
345 343 341 339 336 335 331 329 326 323 328 329 331 330 334 338 336 319 328 334 326 325 326 318 316 318 319 319 320 322 323 322 321 319 318 318 318 318 317 317 317 316 316
343 344 342 342 338 335 331 328 323 320 330 328 330 330 337 337 333 322 335 334 320 321 319 317 318 319 319 318 320 323 324 324 322 321 319 320 320 319 319 319 318 318 318
342 344 342 343 340 334 330 327 322 326 327 330 332 331 339 337 326 332 336 324 319 325 319 318 319 319 320 319 320 322 324 324 323 322 320 321 321 321 320 320 320 320 321
343 344 343 343 340 334 330 325 327 328 329 331 332 333 339 338 321 334 334 324 329 334 319 319 320 321 321 320 320 321 325 326 323 326 324 321 322 322 321 322 322 322 323
341 343 342 344 341 334 330 326 328 330 329 332 334 338 339 337 330 335 335 319 332 330 320 321 321 321 321 320 320 320 325 326 323 325 325 322 322 322 322 322 323 324 325
338 340 342 343 340 335 332 324 328 334 332 331 335 338 340 336 327 334 333 322 331 320 321 322 321 321 320 320 320 320 323 325 326 326 326 325 322 322 322 322 324 325 326
333 335 337 341 339 336 331 325 328 336 334 335 336 339 340 334 335 337 334 323 328 322 322 322 321 320 319 319 318 319 323 324 324 324 325 324 322 322 322 323 325 326 327
332 332 334 336 337 336 334 334 329 335 338 337 339 340 339 333 329 331 335 333 323 323 322 321 320 319 319 320 321 321 324 324 325 326 326 326 324 323 323 324 327 327 326
331 330 330 333 335 336 335 333 334 330 338 339 339 340 338 332 321 325 328 325 321 323 323 321 319 319 319 320 321 323 326 324 326 328 329 328 328 325 325 326 327 326 325
328 328 331 331 330 333 332 334 335 332 326 337 339 339 338 336 321 322 319 320 321 323 321 319 319 320 322 320 321 324 328 329 331 330 330 329 329 330 328 327 327 327 326
328 327 328 329 324 325 325 329 330 331 328 325 333 335 333 329 323 321 320 320 321 320 319 320 321 322 322 322 323 325 327 331 330 330 330 329 329 329 328 328 327 325 324
327 328 327 324 324 322 324 331 329 326 330 323 329 325 331 330 325 322 322 320 319 319 321 322 323 323 323 323 327 328 329 329 331 331 330 330 329 329 327 329 327 324 321
324 325 326 328 325 324 322 330 322 330 330 324 327 327 330 331 328 323 322 318 319 320 321 320 322 324 325 325 328 328 328 328 331 331 330 330 330 329 328 329 329 322 317
321 326 328 326 325 325 323 324 329 330 330 330 329 331 331 331 330 328 325 322 321 321 321 323 324 323 324 324 325 325 326 329 329 330 329 329 328 328 328 329 327 317 313
320 323 324 327 327 326 323 327 330 329 329 329 331 332 331 331 328 327 323 322 323 325 327 326 325 325 326 327 328 328 326 329 330 329 330 328 328 328 329 329 317 314 313
322 324 326 327 328 330 325 327 331 331 331 329 331 332 331 325 323 322 325 331 333 331 328 325 327 329 330 329 329 329 329 329 329 329 329 330 329 328 328 316 316 317 315
320 320 326 327 328 327 326 326 325 329 330 326 327 326 323 326 326 328 331 331 332 330 329 330 332 330 331 330 330 329 329 329 329 329 329 329 329 328 319 318 318 318 314
320 317 319 327 327 325 327 328 328 328 329 327 327 327 329 329 331 330 327 328 330 332 331 331 330 329 330 330 330 330 329 328 327 327 329 328 327 325 323 323 322 319 315
322 321 321 326 328 325 325 324 325 324 323 326 325 326 325 326 327 328 328 329 330 329 328 327 326 327 327 327 328 329 329 328 327 327 327 327 327 326 325 322 317 316 313
323 323 324 328 328 326 325 325 325 326 324 326 326 327 327 327 328 328 328 327 326 326 327 327 327 327 326 326 325 325 325 327 327 327 326 326 325 324 322 320 316 314 314
325 323 327 327 327 327 327 328 327 327 327 326 323 327 327 326 327 326 328 328 327 326 326 326 326 327 326 325 324 323 325 324 325 327 325 325 324 323 321 321 315 313 312

GFSSE_850_thetae_102.txt.gz
Theta_e
344 335 330 329 328 329 329 331 332 334 331 330 332 333 333 334 339 325 316 322 331 338 337 339 335 317 316 316 326 330 332 318 318 324 328 332 323 321 322 327 330 329 326
342 334 329 328 328 328 327 329 333 336 333 332 331 332 334 336 336 323 318 336 337 339 338 339 330 314 321 317 317 316 316 316 317 320 324 326 327 321 327 332 333 333 326
339 332 329 327 327 326 327 328 331 333 334 333 330 333 335 337 333 325 325 339 339 337 338 334 315 315 317 315 317 318 318 316 315 317 320 320 324 331 331 329 333 334 334
342 332 329 327 326 326 327 328 331 333 336 334 331 332 336 336 331 333 339 340 337 336 334 327 315 315 315 319 323 323 322 321 318 315 316 318 320 324 322 322 325 327 327
344 338 331 327 326 326 326 327 327 329 331 335 332 333 336 336 333 333 337 339 335 332 330 316 316 315 316 322 324 324 324 323 321 317 316 316 316 317 317 317 318 319 318
344 343 336 332 330 328 328 327 326 328 328 330 334 334 334 336 332 334 337 332 329 329 326 316 316 317 318 321 323 322 320 320 320 318 318 317 317 317 317 316 316 316 316
343 343 340 335 334 332 330 329 328 327 332 328 331 332 335 337 332 330 331 330 324 325 321 317 318 319 319 320 322 321 322 323 321 319 319 319 319 318 318 318 318 318 318
342 342 340 339 336 335 332 330 327 324 329 328 330 332 334 338 332 328 329 332 321 321 317 317 319 319 318 320 321 321 321 322 322 320 321 321 320 320 320 320 320 321 321
342 343 342 341 341 337 333 329 325 321 326 330 330 332 333 338 329 327 334 332 319 318 318 318 319 319 319 320 321 323 323 323 324 323 321 321 321 321 321 321 321 322 323
343 343 342 342 342 339 333 329 323 326 323 333 331 333 336 338 325 334 334 326 330 319 318 319 320 321 320 320 320 323 323 322 321 323 322 321 321 321 321 321 322 323 324
338 340 342 343 342 339 333 329 325 329 324 333 333 333 335 338 329 334 327 321 334 328 319 320 321 320 320 320 319 321 323 322 322 323 324 323 322 321 321 321 323 324 325
334 335 336 340 342 338 332 329 325 332 329 332 333 334 339 339 330 332 326 326 333 325 320 321 321 321 320 319 319 319 321 322 321 322 323 323 322 322 321 322 323 325 325
334 333 333 334 336 339 334 328 327 333 333 329 333 336 339 338 331 331 329 330 329 320 321 321 321 320 319 318 318 318 321 322 322 324 325 324 323 322 322 323 324 325 324
331 331 332 332 334 335 336 330 327 334 336 334 332 336 337 339 330 331 328 327 324 320 321 321 320 319 319 320 320 320 323 322 321 325 328 327 327 326 324 324 325 326 324
326 332 332 331 332 334 336 333 327 329 335 337 337 337 337 339 335 331 329 324 321 321 322 321 319 319 319 320 320 321 324 326 326 328 328 328 328 329 326 325 326 325 323
323 328 331 333 332 331 334 334 332 330 329 335 339 338 338 337 334 328 327 325 322 321 322 321 319 319 321 320 320 322 324 328 330 330 330 329 329 328 328 326 325 324 323
324 327 329 329 333 334 333 332 332 329 330 330 331 335 337 337 335 325 320 321 321 322 322 319 320 322 322 321 322 323 325 328 330 330 330 329 329 328 329 327 327 328 325
319 324 327 327 325 324 327 332 331 330 332 331 328 330 335 335 334 328 323 319 322 322 320 320 322 321 321 322 322 325 327 328 328 331 330 329 329 329 328 327 328 329 324
316 319 321 325 326 326 327 325 323 323 330 328 326 329 328 324 331 328 320 320 321 320 319 321 321 321 323 324 324 326 327 326 327 330 330 330 329 328 328 328 328 329 318
319 319 319 323 325 326 327 325 324 323 328 327 326 325 327 326 328 330 328 323 321 322 323 322 321 323 324 324 325 325 325 325 329 329 329 329 329 328 327 328 328 325 315
320 320 319 320 320 321 326 326 326 323 322 328 328 327 326 329 330 331 328 327 326 323 321 322 325 326 325 327 328 328 328 326 328 329 329 328 329 327 328 328 328 318 320
321 321 322 321 324 326 327 327 325 327 328 328 328 327 328 327 329 330 329 328 324 322 327 328 327 327 328 329 329 329 329 328 328 329 329 328 329 329 329 328 323 317 321
321 322 320 319 323 325 326 328 327 330 330 330 328 325 325 326 330 330 328 325 327 329 329 329 326 328 330 329 329 329 329 328 329 329 329 329 329 329 328 328 319 323 320
319 322 319 318 320 320 328 329 326 328 331 329 326 328 328 329 328 325 325 327 330 328 326 329 330 330 329 328 326 325 326 327 327 328 328 329 328 327 326 325 325 323 318
319 322 320 317 318 321 325 327 327 325 327 328 327 326 326 325 325 325 327 327 329 330 328 328 328 326 326 326 325 325 326 326 328 329 326 327 326 326 326 326 324 321 317
321 322 321 322 324 325 326 327 327 327 326 326 326 325 325 326 326 326 326 327 328 328 326 326 327 327 327 327 327 326 326 326 326 327 326 326 326 326 325 323 320 320 316

GFSSE_850_thetae_105.txt.gz
Theta_e
343 337 339 335 335 335 335 334 334 333 334 334 334 335 336 337 337 326 316 319 329 339 339 333 332 332 331 335 336 331 319 321 330 329 329 323 323 322 331 327 331 323 319
343 337 338 335 335 334 334 334 332 333 329 330 332 332 332 334 337 320 319 329 338 338 340 335 321 332 332 328 330 319 316 317 321 325 325 321 323 331 333 334 329 329 328
343 337 334 337 339 337 333 332 333 333 329 330 330 332 332 336 330 317 327 337 338 338 338 324 315 327 316 316 315 315 316 318 320 322 323 329 332 329 333 334 333 334 334
340 335 330 332 338 338 336 332 334 335 333 331 329 333 333 337 326 320 338 338 338 337 334 314 315 315 316 318 319 319 317 316 316 317 320 322 329 324 326 327 326 328 327
339 333 329 328 330 337 336 334 333 334 334 332 330 336 334 336 327 327 339 339 337 333 333 315 315 316 320 321 322 322 321 319 317 316 316 317 317 317 317 318 319 317 317
340 333 330 327 327 327 334 335 333 332 336 335 332 335 337 335 333 336 340 338 336 331 317 315 316 317 321 321 322 322 320 319 318 317 317 317 317 317 317 317 317 317 317
342 337 332 328 327 326 326 330 330 330 330 333 334 334 336 335 334 334 337 337 332 329 316 316 317 318 320 320 321 321 321 319 318 319 319 318 318 318 318 318 318 319 319
343 340 333 329 329 328 328 328 327 327 329 329 332 334 334 336 334 335 334 331 327 326 317 317 318 319 319 320 321 321 322 320 319 320 320 319 319 319 319 320 320 321 322
343 342 336 332 332 332 331 330 328 327 327 331 329 332 333 338 335 332 327 327 325 323 317 318 319 319 319 320 320 321 321 322 321 320 320 320 320 320 320 321 321 322 323
339 342 339 335 334 334 334 332 329 326 323 328 328 330 333 338 336 331 325 330 322 320 317 318 319 318 319 320 320 321 322 321 323 322 321 321 320 320 320 321 322 323 323
336 341 341 340 339 338 335 332 329 324 321 327 329 330 333 338 336 326 327 331 320 318 317 318 319 320 320 320 320 320 321 320 322 323 323 322 321 320 320 321 322 323 324
335 337 338 341 339 340 336 332 329 323 326 330 333 331 333 338 335 328 332 326 322 319 318 319 320 320 320 319 319 320 320 321 321 322 322 322 321 321 321 321 322 324 324
333 335 334 334 336 338 339 332 329 328 329 326 333 332 333 336 334 334 333 327 331 320 319 320 320 320 320 319 319 319 320 320 320 322 323 323 323 322 322 322 323 324 324
319 329 335 333 332 334 338 336 331 325 332 328 333 333 333 334 334 333 333 325 329 321 319 320 320 320 319 319 318 318 320 321 321 323 325 325 325 326 323 324 325 325 325
313 319 331 334 333 332 333 336 333 327 329 333 330 333 335 335 336 332 333 327 329 326 320 321 320 320 319 319 320 319 320 322 321 324 327 327 327 327 326 326 324 324 322
310 314 322 330 334 333 332 335 335 331 326 332 333 331 335 336 336 335 331 329 323 323 322 322 320 319 319 320 321 320 321 325 326 328 329 329 329 328 328 328 325 325 326
310 314 321 325 332 333 333 333 335 331 329 329 329 333 335 336 336 336 334 328 326 322 323 323 321 319 319 321 320 320 322 324 329 329 330 329 329 329 328 328 327 327 327
309 313 322 326 328 332 332 333 333 332 332 330 329 330 333 336 336 336 334 329 329 324 324 323 321 319 321 323 321 321 323 325 327 330 330 329 329 329 329 328 327 327 328
308 310 318 324 327 328 330 332 332 332 332 330 331 330 330 330 334 335 334 329 332 328 324 323 320 320 322 322 322 322 325 326 327 326 328 330 329 329 329 328 327 327 328
308 310 315 318 323 327 326 326 325 327 331 331 330 330 331 330 329 332 332 322 326 329 324 324 321 323 322 323 324 324 326 326 326 325 327 329 328 328 328 328 328 327 328
308 315 315 318 320 324 325 326 326 326 325 324 323 324 329 328 326 328 329 324 324 324 322 321 322 325 323 325 326 326 325 325 325 326 327 328 329 329 328 328 328 327 327
308 316 316 319 319 320 320 320 322 325 326 326 325 325 327 326 326 327 325 327 323 320 325 322 326 325 324 326 326 328 328 328 327 326 328 329 329 329 329 328 328 327 325
314 318 317 319 319 319 320 322 325 326 327 326 325 324 325 328 327 326 323 325 326 322 322 327 326 323 326 327 327 329 329 328 328 327 327 327 328 329 328 328 328 325 319
316 317 317 320 321 321 320 322 324 326 327 327 326 325 326 328 328 327 329 329 326 320 327 325 327 328 328 327 329 329 329 328 326 327 326 326 328 329 329 328 327 325 322
316 317 321 321 320 317 318 319 322 327 327 329 329 329 329 328 327 327 322 324 324 325 325 324 327 326 327 328 329 328 326 325 325 327 327 327 327 328 327 326 324 323 323
316 317 319 321 320 317 318 319 325 327 328 327 328 329 327 326 327 327 328 327 326 326 326 325 325 326 328 327 326 326 326 326 326 327 326 326 326 326 326 325 325 323 320

GFSSE_850_thetae_108.txt.gz
Theta_e
341 340 338 337 338 337 335 332 332 337 339 339 339 339 336 336 336 324 315 317 333 339 333 326 329 338 336 331 321 327 328 333 330 326 326 323 326 329 331 321 320 318 319
343 340 339 337 338 338 336 335 334 334 335 336 336 336 335 334 336 319 317 328 339 339 335 329 331 333 333 335 319 316 320 321 323 319 319 328 332 332 333 331 332 329 326
344 339 340 336 338 338 337 335 334 334 334 334 334 333 333 334 333 318 324 337 339 339 336 327 333 326 319 319 316 316 318 321 321 323 323 326 332 334 333 333 334 333 332
343 339 339 336 338 336 335 335 333 333 329 329 331 331 331 335 326 318 334 338 339 337 325 315 315 315 315 315 316 316 316 317 319 320 325 325 322 325 326 324 322 322 325
344 340 337 335 339 336 335 334 333 333 330 330 330 331 332 335 323 327 337 339 339 335 320 315 315 316 318 319 319 319 318 316 316 317 317 318 317 317 317 317 317 317 316
342 339 335 334 339 337 335 333 333 335 334 332 330 336 334 335 323 334 338 339 336 333 322 315 316 318 320 321 321 320 319 317 317 317 317 317 317 317 317 317 317 317 317
341 336 332 331 334 337 337 333 332 332 334 334 331 337 336 334 327 334 339 338 335 328 315 316 317 319 320 320 319 319 318 318 318 318 318 318 318 317 318 318 319 320 320
342 336 332 331 330 329 330 333 332 330 330 334 334 333 335 335 335 336 339 338 334 327 315 316 318 319 319 319 320 320 320 318 319 319 319 319 318 319 319 320 320 321 321
340 339 333 330 329 328 329 328 328 327 327 327 331 334 334 337 336 335 335 336 332 327 316 316 318 319 319 319 320 320 321 320 319 319 319 319 319 320 320 320 321 322 322
338 339 339 333 328 327 327 328 328 327 326 328 326 330 333 335 337 336 334 332 327 325 317 317 319 319 319 319 320 321 321 322 321 320 320 320 320 320 320 320 321 322 322
337 337 339 338 332 330 330 330 330 329 327 326 329 328 331 332 337 335 332 325 328 322 318 318 319 318 319 319 319 320 321 320 321 322 321 321 321 320 320 321 322 322 324
333 337 337 340 338 334 333 332 332 330 327 324 328 329 330 332 336 337 331 326 330 324 317 318 318 318 319 319 319 319 320 320 321 322 322 322 321 321 321 321 322 323 324
315 328 336 337 339 338 337 337 333 330 325 323 330 331 330 333 334 337 329 330 332 324 318 318 319 320 319 319 319 319 319 319 320 320 322 322 322 321 321 322 322 324 324
310 316 325 336 335 336 337 338 337 331 326 326 328 333 331 333 335 337 329 331 329 329 320 319 320 320 319 319 319 318 318 319 320 321 324 323 324 324 323 323 324 324 325
309 311 317 328 334 334 333 334 337 335 331 326 324 333 332 333 334 336 332 332 329 327 324 320 321 320 320 319 319 318 318 319 320 320 324 326 326 326 326 326 325 323 322
308 309 311 318 332 334 333 333 335 336 333 327 328 329 333 333 333 334 334 333 332 325 330 323 322 321 320 319 318 319 319 320 322 321 325 327 328 328 326 327 327 325 325
306 308 309 312 321 332 334 333 332 335 334 331 329 330 330 333 334 335 335 334 332 328 324 327 323 322 320 319 319 320 321 322 323 324 327 328 328 329 328 328 328 326 325
306 307 309 310 317 324 331 334 333 333 335 331 330 331 331 331 332 334 334 335 333 329 326 326 324 322 320 319 320 321 320 321 323 324 328 328 329 328 329 329 328 327 327
307 306 307 309 315 324 328 332 333 334 334 333 331 330 330 330 332 333 334 334 334 331 328 330 325 323 320 319 322 323 321 322 322 324 327 328 329 329 329 329 329 328 327
307 309 308 309 312 325 328 331 331 333 333 332 332 331 330 330 330 331 332 333 333 331 324 328 325 325 322 321 325 324 323 322 325 325 326 326 328 329 330 329 329 328 328
308 308 308 308 310 317 327 330 332 332 332 331 328 331 330 330 330 329 330 333 332 331 321 323 327 325 324 322 326 324 324 324 325 325 325 324 325 326 328 328 328 328 328
308 308 308 308 310 315 322 326 326 326 326 326 326 327 328 328 327 329 330 330 331 330 325 322 320 321 325 323 327 325 326 325 324 324 324 324 325 327 328 328 329 328 327
309 308 308 308 312 315 319 324 326 326 325 325 325 325 325 324 323 324 327 328 329 329 328 323 321 323 324 322 327 326 328 327 327 327 327 326 327 327 328 329 328 328 328
309 308 307 309 315 317 319 321 321 320 320 320 320 322 324 325 324 324 327 327 328 327 320 320 319 319 321 324 326 326 327 328 328 327 327 326 326 326 328 327 329 328 327
313 310 310 310 317 318 318 319 319 321 322 322 324 324 325 326 325 324 325 327 328 324 325 323 320 318 320 326 326 327 327 328 328 328 325 324 324 325 326 326 327 328 325
315 312 315 317 316 317 321 321 320 319 319 320 326 326 327 327 328 327 326 326 328 326 325 323 320 316 323 324 324 324 325 327 326 326 325 326 326 326 325 325 326 327 325

GFSSE_850_thetae_111.txt.gz
Theta_e
340 342 338 336 336 337 338 340 339 339 339 339 339 339 337 337 336 320 316 325 338 338 329 327 326 332 335 327 324 331 334 331 331 329 323 326 327 326 320 318 318 320 322
344 342 343 343 337 335 334 334 336 338 339 339 339 338 336 335 335 317 316 332 338 336 326 336 338 336 331 325 318 326 327 323 321 320 325 330 331 328 331 327 324 324 325
344 343 341 343 342 338 334 332 334 336 337 338 338 336 335 333 333 317 322 338 340 337 328 331 333 334 325 315 315 316 319 319 317 319 329 333 335 334 334 334 334 334 333
344 344 340 340 339 338 337 336 334 334 334 334 334 334 333 333 330 318 332 339 340 338 324 318 317 317 316 315 316 318 319 319 322 326 323 325 329 327 326 327 327 327 328
344 343 343 338 338 337 339 336 334 333 333 329 330 331 332 333 326 325 337 339 339 332 316 315 315 315 316 316 317 316 317 318 318 319 319 318 319 319 317 317 316 317 316
344 343 342 341 338 336 336 335 334 332 330 328 329 330 331 333 322 331 337 339 336 330 317 315 316 318 319 320 319 318 317 317 317 317 317 317 317 317 317 317 317 318 318
344 343 342 341 340 337 336 335 333 332 333 332 329 330 333 334 323 333 337 339 335 331 318 316 317 319 320 320 320 319 317 317 317 317 317 317 317 317 318 319 319 320 320
345 341 340 339 339 338 337 335 333 333 334 333 332 332 336 334 327 333 338 338 335 328 316 316 318 320 320 319 319 319 318 318 318 318 318 318 318 318 319 320 321 321 321
341 341 337 338 338 337 337 336 333 332 332 334 335 332 334 335 334 332 336 338 336 327 315 316 318 319 319 319 320 320 319 318 319 319 319 319 319 320 320 321 321 322 322
338 339 339 337 337 335 335 335 334 333 331 330 332 334 334 335 336 336 336 338 336 330 317 316 318 319 319 319 319 320 320 320 319 319 319 320 320 320 320 321 322 322 323
336 337 338 339 338 333 329 330 332 332 330 329 329 331 334 335 337 337 337 334 333 327 324 316 317 319 319 319 319 320 320 322 322 321 320 320 320 320 320 321 322 322 323
325 333 336 337 339 337 329 328 328 329 330 330 330 331 333 334 334 336 336 334 328 327 325 316 318 319 319 319 319 320 320 319 320 322 322 321 321 321 321 321 321 323 323
310 321 326 335 337 339 336 332 331 330 330 329 329 331 333 333 334 336 336 333 328 329 325 318 318 318 319 320 320 320 319 319 320 320 321 321 321 321 321 321 322 323 323
308 311 317 326 334 337 339 336 335 334 333 330 327 330 331 331 332 334 337 334 328 329 324 318 318 318 319 320 320 320 320 320 320 320 322 322 322 322 322 322 323 324 324
306 309 312 318 327 335 336 337 337 337 336 333 327 325 330 331 330 333 336 334 329 329 326 320 318 319 320 320 320 319 319 319 320 321 322 324 324 324 325 325 326 323 322
305 307 310 312 320 328 334 334 333 335 336 335 330 326 327 332 331 332 333 336 331 331 327 324 319 321 321 321 320 320 319 318 319 321 321 323 326 327 327 327 327 327 324
305 305 308 309 313 319 332 334 333 333 335 336 334 330 327 332 333 332 334 334 334 333 330 329 325 321 322 322 320 319 319 320 320 321 323 324 327 328 328 328 328 328 325
308 306 305 308 310 314 322 333 333 332 333 335 334 331 330 329 331 331 333 333 334 334 333 329 329 326 322 321 320 319 320 321 322 322 324 327 328 329 328 329 329 328 327
310 309 306 305 308 310 314 325 333 333 333 334 334 332 330 331 331 331 331 333 333 334 334 331 328 330 325 322 321 319 320 322 321 322 323 324 327 329 329 329 329 329 328
310 310 308 306 306 308 310 319 327 333 334 333 334 331 330 331 331 331 331 332 333 334 334 332 327 328 328 325 323 319 320 323 323 322 323 324 326 327 328 329 329 328 328
310 310 308 307 306 308 309 318 325 332 333 333 334 332 332 330 330 331 331 331 332 332 332 333 329 323 320 320 324 322 320 323 324 322 322 325 325 325 325 328 329 328 328
310 309 308 307 309 309 309 315 325 329 331 331 332 332 332 331 329 327 329 331 330 330 331 332 329 321 324 321 325 323 322 323 322 322 322 323 324 324 325 327 328 328 328
311 310 308 308 308 308 308 312 320 329 330 330 331 331 329 326 329 328 328 327 329 330 329 331 330 326 322 321 323 324 323 326 323 323 322 322 325 324 326 327 327 328 328
313 311 309 308 307 307 308 313 317 326 329 327 326 326 326 326 326 326 327 325 324 326 328 330 329 322 320 321 322 322 322 325 327 327 327 327 327 327 326 326 325 327 327
314 312 308 308 308 308 308 313 317 323 325 325 324 323 322 322 324 324 325 324 324 324 327 330 329 328 326 322 320 319 322 325 326 327 327 326 326 324 324 325 325 326 325
315 314 313 309 308 307 308 314 321 321 323 323 320 319 319 320 321 323 324 325 325 324 324 327 328 327 323 320 320 320 321 323 325 325 326 325 325 323 324 325 325 325 325

GFSSE_850_thetae_114.txt.gz
Theta_e
345 347 346 345 339 340 339 340 342 342 341 340 340 339 338 337 333 318 321 334 336 326 327 322 336 337 333 326 329 334 335 336 331 328 320 333 323 319 318 324 332 331 321
344 346 345 345 340 338 338 339 340 339 339 339 339 339 337 336 333 317 323 336 338 326 330 327 337 335 330 322 331 334 331 329 325 320 329 330 323 322 319 319 320 322 327
343 344 345 344 340 339 338 338 338 338 339 339 338 338 336 335 333 317 326 338 339 329 336 338 337 332 319 318 324 321 318 320 319 329 334 338 335 335 334 333 334 335 334
344 345 345 345 340 337 334 334 335 337 338 338 338 337 335 333 331 317 331 338 339 334 327 334 334 326 315 315 317 318 319 317 321 330 336 337 335 332 333 332 331 332 331
344 345 346 343 342 340 336 335 334 335 336 336 334 333 334 332 329 319 335 340 340 332 318 317 317 316 316 317 318 319 319 322 324 329 333 334 333 321 320 318 317 317 317
344 345 345 342 342 339 340 338 335 334 333 332 329 330 332 332 328 329 336 339 339 326 315 315 315 316 317 317 317 316 317 318 319 328 330 319 331 317 317 317 317 318 318
344 345 343 340 340 339 338 338 336 334 332 329 329 330 331 332 326 327 336 339 337 328 316 315 317 319 320 319 319 318 317 317 318 318 320 321 318 317 317 318 319 320 320
342 344 343 341 341 340 337 337 336 333 332 331 331 330 333 333 325 329 334 338 336 331 318 316 318 320 320 320 319 318 317 317 318 318 318 322 317 318 319 320 321 321 321
341 342 342 341 341 340 339 338 337 334 333 334 333 332 333 335 331 330 335 337 338 330 318 316 318 321 320 320 320 319 318 318 322 322 320 325 319 319 320 321 321 322 322
336 339 340 339 340 340 339 338 338 335 334 334 334 334 334 336 333 333 334 338 338 331 317 315 318 320 320 321 321 321 319 319 324 319 320 324 320 320 320 321 322 322 323
324 335 338 340 339 339 339 339 337 336 335 335 334 335 335 336 336 336 337 337 338 335 326 315 317 319 320 321 321 321 322 323 322 323 325 320 320 320 320 320 321 322 323
315 323 333 337 339 340 338 338 336 336 335 335 335 335 334 338 339 340 338 337 337 334 329 318 316 318 320 323 320 321 322 326 327 324 323 321 320 320 320 321 321 322 323
311 312 320 331 336 337 340 337 337 338 337 337 338 336 338 339 337 336 337 337 336 331 329 326 316 318 321 329 328 324 325 324 326 324 322 322 321 321 321 321 322 323 324
307 310 312 318 328 334 337 339 336 336 336 335 333 336 336 337 338 337 336 336 336 333 333 330 321 324 327 323 326 326 324 322 322 322 324 322 322 322 322 322 323 324 324
306 307 309 310 317 325 332 338 338 336 335 335 332 331 336 337 338 337 337 336 336 336 335 331 328 325 318 321 322 320 323 324 325 325 321 322 323 324 325 324 325 324 322
307 306 307 308 310 317 325 335 337 337 338 337 336 333 329 335 336 337 337 337 336 336 334 333 329 327 327 323 321 320 321 322 322 323 322 323 322 326 326 326 326 327 328
309 308 306 306 307 310 317 328 335 336 337 336 337 336 331 327 334 335 335 337 337 336 333 330 330 323 320 326 321 323 320 321 322 323 324 323 322 325 327 327 327 327 327
309 309 307 305 306 307 311 316 329 334 334 334 335 336 333 331 328 332 334 335 335 335 334 332 330 331 329 327 325 325 322 321 323 324 325 325 326 326 327 328 328 329 328
311 310 309 308 306 305 309 312 317 332 334 333 333 336 334 332 330 329 332 333 333 334 333 334 332 327 329 325 323 324 324 321 323 324 324 325 326 326 328 328 328 328 329
311 311 310 310 309 306 312 315 312 321 333 333 333 334 334 333 330 329 331 332 332 333 333 334 334 331 328 329 328 324 324 322 322 322 323 323 324 323 324 328 328 328 329
311 311 311 310 310 309 310 317 310 313 326 333 333 333 334 332 331 331 331 331 331 332 333 333 333 333 330 324 323 325 323 321 320 319 321 321 321 322 324 325 325 328 329
312 311 311 310 310 309 311 315 313 311 319 331 332 333 333 333 330 329 329 330 331 331 332 332 333 333 332 326 323 324 324 323 321 320 320 321 320 322 323 324 324 326 328
312 311 310 309 309 309 312 316 319 312 325 328 332 334 333 333 331 330 329 330 330 332 330 332 332 332 331 330 327 326 325 326 324 324 321 319 321 322 323 324 324 326 327
314 313 312 311 310 308 311 315 319 319 328 326 331 331 332 332 332 332 331 330 329 328 328 330 331 330 330 330 326 323 323 326 326 325 322 321 325 326 324 326 326 326 324
316 314 314 312 310 309 312 314 316 318 324 325 331 331 331 331 331 330 328 329 328 328 328 331 329 329 328 331 328 327 326 326 325 324 322 324 326 326 326 326 325 324 324
316 316 314 314 309 309 313 314 315 311 322 325 328 328 327 327 326 326 326 325 325 328 327 325 326 327 327 330 330 326 325 324 326 324 322 323 326 325 325 325 324 324 323

GFSSE_850_thetae_117.txt.gz
Theta_e
347 347 347 346 342 342 342 341 342 342 341 340 339 339 339 337 331 318 320 327 326 317 315 324 335 336 326 321 336 337 339 333 328 322 334 321 319 321 332 334 337 322 320
344 347 346 346 343 341 341 340 342 342 341 340 339 339 337 336 330 318 330 334 332 319 321 338 339 336 322 331 334 335 334 326 321 327 329 320 318 318 320 320 321 327 334
346 347 346 346 342 339 340 339 340 340 339 339 339 339 337 335 332 318 335 337 336 329 333 334 334 328 320 327 331 328 327 321 326 333 340 337 333 330 331 333 336 335 335
347 348 346 346 342 340 338 338 339 338 338 339 338 338 337 335 333 317 334 338 339 331 338 337 334 316 316 319 319 317 319 320 333 337 338 335 336 335 334 330 333 331 330
346 349 346 345 343 338 337 337 336 336 337 338 337 338 335 334 332 318 333 339 340 327 330 332 329 316 315 317 318 320 318 323 328 334 335 335 334 323 321 319 318 318 316
348 347 347 345 345 341 337 334 334 334 336 337 336 336 332 333 331 319 335 340 340 327 318 316 319 316 317 318 318 319 320 324 329 332 332 332 333 317 317 317 317 318 318
345 346 345 345 344 343 340 340 337 335 334 334 332 330 331 332 330 323 336 339 339 328 316 315 316 317 317 318 317 316 317 318 329 330 331 332 318 317 317 319 319 320 319
342 344 346 345 341 341 340 340 339 336 334 333 329 330 331 331 332 331 333 338 339 332 318 315 317 319 320 320 319 318 317 317 325 328 329 331 317 318 319 320 321 321 321
341 343 344 345 341 341 340 339 338 337 335 333 333 333 331 333 333 329 330 337 339 333 323 316 318 320 320 320 319 318 317 318 327 328 329 328 318 319 320 320 321 321 321
332 340 341 343 343 341 341 340 338 338 336 334 334 334 333 336 335 332 333 336 338 336 323 315 318 320 320 319 320 320 318 319 328 327 329 329 319 319 320 320 321 322 322
313 330 338 340 341 341 342 341 338 338 337 336 335 334 335 336 337 333 334 335 337 337 326 315 316 320 320 320 320 320 320 321 328 328 329 324 320 319 320 320 321 322 322
312 314 329 336 339 339 340 341 339 337 337 336 337 337 335 337 339 337 338 336 336 338 334 322 315 318 320 321 320 320 321 330 329 329 328 322 320 320 320 320 321 321 322
309 311 313 324 333 338 339 339 341 339 337 338 338 337 338 338 337 340 338 337 337 338 335 330 317 316 319 329 330 323 323 330 329 329 329 322 321 320 320 320 320 321 322
309 308 310 312 317 330 335 339 339 339 338 337 337 338 337 337 337 338 336 337 337 337 334 329 327 317 321 329 330 329 329 329 328 328 328 324 320 320 320 320 320 321 322
309 308 307 308 310 314 323 333 339 338 337 338 338 339 340 337 336 336 337 335 336 337 335 334 330 328 327 330 329 328 328 328 328 327 327 326 322 322 322 323 322 323 322
311 309 308 307 307 309 312 322 332 339 339 337 337 337 338 337 336 336 336 336 335 336 336 334 332 330 329 329 327 327 326 326 326 326 326 326 324 322 324 324 324 324 327
311 312 311 310 307 307 308 312 323 333 338 339 337 338 338 337 337 336 334 335 336 335 336 335 334 330 328 328 328 327 326 325 325 324 324 325 326 323 322 325 326 325 326
313 313 311 311 309 308 307 308 314 325 335 339 338 338 338 336 334 336 336 335 336 335 335 335 335 331 329 329 328 327 326 325 325 324 325 325 326 326 325 324 325 327 328
314 313 312 311 310 309 308 309 310 323 327 335 340 339 337 336 335 329 330 332 335 334 334 334 334 332 331 328 328 328 327 325 324 324 325 326 326 326 326 329 326 326 327
315 314 313 313 312 313 311 309 313 317 322 329 338 336 335 335 335 333 331 329 334 335 335 334 334 333 332 331 331 328 327 324 325 321 321 326 324 324 321 320 322 323 326
314 314 313 313 313 313 313 311 313 319 325 322 333 335 333 334 335 333 331 331 330 333 333 334 334 334 333 332 327 329 330 325 325 321 320 320 319 320 322 320 321 322 324
315 314 314 314 314 313 313 313 312 318 322 322 325 334 336 335 335 334 332 330 330 330 331 332 333 333 333 333 332 330 329 327 322 323 322 322 320 320 322 320 321 322 323
316 315 314 314 314 313 313 313 313 316 321 322 325 328 337 336 335 334 331 330 330 329 327 331 333 333 333 333 333 331 328 327 325 325 324 325 323 325 320 320 324 321 322
313 317 316 315 313 313 313 313 313 316 320 320 323 326 334 336 336 334 331 330 328 328 329 329 332 332 333 332 332 331 330 327 328 327 326 326 326 326 323 325 323 323 323
310 313 317 317 315 314 313 312 314 316 319 322 322 327 328 332 333 336 333 331 330 329 330 331 331 331 333 332 330 330 330 330 327 327 328 327 327 324 324 325 324 325 326
310 312 315 319 318 315 313 313 313 315 317 318 321 324 327 330 330 332 334 332 332 330 330 332 333 330 329 329 329 330 329 329 329 328 328 327 325 325 324 323 324 326 325